[[{"header":{"parameterUnit":"m.s-1","parameterCategory":1,"la1":31.0,"la2":29.5877,"lo1":-88.7671,"lo2":-86.6584,"dy":0.0162,"dx":0.0185,"nx":115,"ny":88,"refTime":"2023-05-19T06:00:00:Z","depth":0,"parameterNumber":2,"parameterNumberName":"U-component_of_WINDS"},"data":[0.0,0.0,0.0,0.0,0.0,0.0,0.0,0.0,0.0,0.0,0.0,0.0,0.0,0.0,0.0,0.0,0.0,0.0,0.0,0.0,0.0,0.0,0.0,0.0,0.0,0.0,0.0,0.0,0.0,0.0,0.0,0.0,0.0,0.0,0.0,0.0,0.0,0.0,0.0,0.0,0.0,0.0,0.0,0.0,0.0,0.0,0.0,0.0,0.0,0.0,0.0,0.0,0.0,0.0,0.0,0.0,0.0,0.0,0.0,0.0,0.0,0.0,0.0,0.0,0.0,0.0,0.0,0.0,0.0,0.0,0.0,0.0,0.0,0.0,0.0,0.0,0.0,0.0,0.0,0.0,0.0,0.0,0.0,0.0,0.0,0.0,0.0,0.0,0.0,0.0,0.0,0.0,0.0,0.0,0.0,0.0,0.0,0.0,0.0,0.0,0.0,0.0,0.0,0.0,0.0,0.0,0.0,0.0,0.0,0.0,0.0,0.0,0.0,0.0,0.0,0.0,0.0,0.0,0.0,0.0,0.0,0.0,0.0,0.0,0.0,0.0,0.0,0.0,0.0,0.0,0.0,0.0,0.0,0.0,0.0,0.0,0.0,0.0,0.0,0.0,0.0,0.0,0.0,0.0,0.0,0.0,0.0,0.0,0.0,0.0,0.0,0.0,0.0,0.0,0.0,0.0,0.0,0.0,0.0,0.0,0.0,0.0,0.0,0.0,0.0,0.0,0.0,0.0,0.0,0.0,0.0,0.0,0.0,0.0,0.0,0.0,0.0,0.0,0.0,0.0,0.0,0.0,0.0,0.0,0.0,0.0,0.0,0.0,0.0,0.0,0.0,0.0,0.0,0.0,0.0,0.0,0.0,0.0,0.0,0.0,0.0,0.0,0.0,0.0,0.0,0.0,0.0,0.0,0.0,0.0,0.0,0.0,0.0,0.0,0.0,0.0,0.0,0.0,0.0,0.0,0.0,0.0,0.0,0.0,0.0,0.0,0.0,0.0,0.0,0.0,0.0,0.0,0.0,0.0,0.0,0.0,0.0,0.0,0.0,0.0,0.0,0.0,0.0,0.0,0.0,0.0,0.0,0.0,0.0,0.0,0.0,0.0,0.0,0.0,0.0,0.0,0.0,0.0,0.0,0.0,0.0,0.0,0.0,0.0,0.0,0.0,0.0,0.0,0.0,0.0,0.0,0.0,0.0,0.0,0.0,0.0,0.0,0.0,0.0,0.0,0.0,0.0,0.0,0.0,0.0,0.0,0.0,0.0,0.0,0.0,0.0,0.0,0.0,0.0,0.0,0.0,0.0,0.0,0.0,0.0,0.0,0.0,0.0,0.0,0.0,0.0,0.0,0.0,0.0,0.0,0.0,0.0,0.0,0.0,0.0,0.0,0.0,0.0,0.0,0.0,0.0,0.0,0.0,0.0,0.0,0.0,0.0,0.0,0.0,0.0,0.0,0.0,0.0,0.0,0.0,0.0,0.0,0.0,0.0,0.0,0.0,0.0,0.0,0.0,0.0,0.0,0.0,0.0,0.0,0.0,0.0,0.0,0.0,0.0,0.0,0.0,0.0,0.0,0.0,0.0,0.0,0.0,0.0,0.0,0.0,0.0,0.0,0.0,0.0,0.0,0.0,0.0,0.0,0.0,0.0,0.0,0.0,0.0,0.0,0.0,0.0,0.0,0.0,0.0,0.0,0.0,0.0,0.0,0.0,0.0,0.0,0.0,0.0,0.0,0.0,0.0,0.0,0.0,0.0,0.0,0.0,0.0,0.0,0.0,0.0,0.0,0.0,0.0,0.0,0.0,0.0,0.0,0.0,0.0,0.0,0.0,0.0,0.0,0.0,0.0,0.0,0.0,0.0,0.0,0.0,0.0,0.0,0.0,0.0,0.0,0.0,0.0,0.0,0.0,0.0,0.0,0.0,0.0,0.0,0.0,0.0,0.0,0.0,0.0,0.0,0.0,0.0,0.0,0.0,0.0,0.0,0.0,0.0,0.0,0.0,0.0,0.0,0.0,0.0,0.0,0.0,0.0,0.0,0.0,0.0,0.0,0.0,0.0,0.0,0.0,0.0,0.0,0.0,0.0,0.0,0.0,0.0,0.0,0.0,0.0,0.0,0.0,0.0,0.0,0.0,0.0,0.0,0.0,0.0,0.0,0.0,0.0,0.0,0.0,0.0,0.0,0.0,0.0,0.0,0.0,0.0,0.0,0.0,0.0,0.0,0.0,0.0,0.0,0.0,0.0,0.0,0.0,0.0,0.0,0.0,0.0,0.0,0.0,0.0,0.0,0.0,0.0,0.0,0.0,0.0,0.0,0.0,0.0,0.0,0.0,0.0,0.0,0.0,0.0,0.0,0.0,0.0,0.0,0.0,0.0,0.0,0.0,0.0,0.0,0.0,0.0,0.0,0.0,0.0,0.0,0.0,0.0,0.0,0.0,0.0,0.0,0.0,0.0,0.0,0.0,0.0,0.0,0.0,0.0,0.0,0.0,0.0,0.0,0.0,0.0,0.0,0.0,0.0,0.0,0.0,0.0,0.0,0.0,0.0,0.0,0.0,0.0,0.0,0.0,0.0,0.0,0.0,0.0,0.0,0.0,0.0,0.0,0.0,0.0,0.0,0.0,0.0,0.0,0.0,0.0,0.0,0.0,0.0,0.0,0.0,0.0,0.0,0.0,0.0,0.0,0.0,0.0,0.0,0.0,0.0,0.0,0.0,0.0,0.0,0.0,0.0,0.0,0.0,0.0,0.0,0.0,0.0,0.0,0.0,0.0,0.0,0.0,0.0,0.0,0.0,0.0,0.0,0.0,0.0,0.0,0.0,0.0,0.0,0.0,0.0,0.0,0.0,0.0,0.0,0.0,0.0,0.0,0.0,0.0,0.0,0.0,0.0,0.0,0.0,0.0,0.0,0.0,0.0,0.0,0.0,0.0,0.0,0.0,0.0,0.0,0.0,0.0,0.0,0.0,0.0,0.0,0.0,0.0,0.0,0.0,0.0,0.0,0.0,0.0,0.0,0.0,0.0,0.0,0.0,0.0,0.0,0.0,0.0,0.0,0.0,0.0,0.0,0.0,0.0,0.0,0.0,0.0,0.0,0.0,0.0,0.0,0.0,0.0,0.0,0.0,0.0,0.0,0.0,0.0,0.0,0.0,0.0,0.0,0.0,0.0,0.0,0.0,0.0,0.0,0.0,0.0,0.0,0.0,0.0,0.0,0.0,0.0,0.0,0.0,0.0,0.0,0.0,0.0,0.0,0.0,0.0,0.0,0.0,0.0,0.0,0.0,0.0,0.0,0.0,0.0,0.0,0.0,0.0,0.0,0.0,0.0,0.0,0.0,0.0,0.0,0.0,0.0,0.0,0.0,0.0,0.0,0.0,0.0,0.0,0.0,0.0,0.0,0.0,0.0,0.0,0.0,0.0,0.0,0.0,0.0,0.0,0.0,0.0,0.0,0.0,0.0,0.0,0.0,0.0,0.0,0.0,0.0,0.0,0.0,0.0,0.0,0.0,0.0,0.0,0.0,0.0,0.0,0.0,0.0,0.0,0.0,0.0,0.0,0.0,0.0,0.0,0.0,0.0,0.0,0.0,0.0,0.0,0.0,0.0,0.0,0.0,0.0,0.0,0.0,0.0,0.0,0.0,0.0,0.0,0.0,0.0,0.0,0.0,0.0,0.0,0.0,0.0,0.0,0.0,0.0,0.0,0.0,0.0,0.0,0.0,0.0,0.0,0.0,0.0,0.0,0.0,0.0,0.0,0.0,0.0,0.0,0.0,0.0,0.0,0.0,0.0,0.0,0.0,0.0,0.0,0.0,0.0,0.0,0.0,0.0,0.0,0.0,0.0,0.0,0.0,0.0,0.0,0.0,0.0,0.0,0.0,0.0,0.0,0.0,0.0,0.0,0.0,0.0,0.0,0.0,0.0,0.0,0.0,0.0,0.0,0.0,0.0,0.0,0.0,0.0,0.0,0.0,0.0,0.0,0.0,0.0,0.0,0.0,0.0,0.0,0.0,0.0,0.0,0.0,0.0,0.0,0.0,0.0,0.0,0.0,0.0,0.0,0.0,0.0,0.0,0.0,0.0,0.0,0.0,0.0,0.0,0.0,0.0,0.0,0.0,0.0,0.0,0.0,0.0,0.0,0.0,0.0,0.0,0.0,0.0,0.0,0.0,0.0,0.0,0.0,0.0,0.0,0.0,0.0,0.0,0.0,0.0,0.0,0.0,0.0,0.0,0.0,0.0,0.0,0.0,0.0,1.9514,0.0,0.0,0.0,0.0,0.0,0.0,0.0,0.0,0.0,0.0,0.0,0.0,0.0,0.0,0.0,0.0,0.0,0.0,0.0,0.0,0.0,0.0,0.0,0.0,0.0,0.0,0.0,0.0,0.0,0.0,0.0,0.0,0.0,0.0,0.0,0.0,0.0,0.0,0.0,0.0,0.0,0.0,0.0,0.0,0.0,0.0,0.0,0.0,0.0,0.0,0.0,0.0,0.0,0.0,0.0,0.0,0.0,0.0,0.0,0.0,0.0,0.0,0.0,0.0,0.0,0.0,0.0,0.0,0.0,0.0,0.0,0.0,0.0,0.0,0.0,0.0,0.0,0.0,0.0,0.0,0.0,0.0,0.0,0.0,0.0,0.0,0.0,0.0,0.0,0.0,0.0,0.0,0.0,0.0,0.0,0.0,0.0,0.0,0.0,0.0,0.0,0.0,0.0,0.0,0.0,0.0,0.0,0.0,0.0,0.0,1.9811,1.9798,1.9565,1.9552,1.9747,0.0,0.0,0.0,0.0,0.0,0.0,0.0,0.0,0.0,0.0,0.0,0.0,0.0,0.0,0.0,0.0,0.0,0.0,0.0,0.0,0.0,0.0,0.0,0.0,0.0,0.0,0.0,0.0,0.0,0.0,0.0,0.0,0.0,0.0,0.0,0.0,0.0,0.0,0.0,0.0,0.0,0.0,0.0,0.0,0.0,0.0,0.0,0.0,0.0,0.0,0.0,0.0,0.0,0.0,0.0,0.0,0.0,0.0,0.0,0.0,0.0,0.0,0.0,0.0,0.0,0.0,0.0,0.0,0.0,0.0,0.0,0.0,0.0,0.0,0.0,0.0,0.0,0.0,0.0,0.0,0.0,0.0,0.0,0.0,0.0,0.0,0.0,0.0,0.0,0.0,0.0,0.0,0.0,0.0,0.0,0.0,0.0,0.0,0.0,0.0,0.0,0.0,0.0,0.0,0.0,0.0,0.0,0.0,0.0,0.0,0.0,0.0,1.9811,1.9695,1.9501,0.0,0.0,0.0,0.0,0.0,0.0,0.0,0.0,0.0,0.0,0.0,0.0,0.0,0.0,0.0,0.0,0.0,0.0,0.0,0.0,0.0,0.0,0.0,0.0,0.0,0.0,0.0,0.0,0.0,0.0,0.0,0.0,0.0,0.0,0.0,0.0,0.0,0.0,0.0,0.0,0.0,0.0,0.0,0.0,0.0,0.0,0.0,0.0,0.0,0.0,0.0,0.0,0.0,0.0,0.0,0.0,0.0,0.0,0.0,0.0,0.0,0.0,0.0,0.0,0.0,0.0,0.0,0.0,0.0,0.0,0.0,0.0,0.0,0.0,0.0,0.0,0.0,0.0,0.0,0.0,0.0,0.0,0.0,0.0,0.0,0.0,0.0,0.0,0.0,0.0,0.0,0.0,0.0,0.0,0.0,0.0,0.0,0.0,0.0,0.0,0.0,0.0,0.0,0.0,0.0,0.0,0.0,0.0,0.0,0.0,1.9811,1.9811,1.9811,0.0,1.8632,0.0,0.0,0.0,0.0,0.0,0.0,0.0,0.0,0.0,0.0,0.0,0.0,0.0,0.0,0.0,0.0,0.0,0.0,0.0,0.0,0.0,0.0,0.0,0.0,0.0,0.0,0.0,0.0,0.0,0.0,0.0,0.0,0.0,0.0,0.0,0.0,0.0,0.0,0.0,0.0,0.0,0.0,0.0,0.0,0.0,0.0,0.0,0.0,0.0,0.0,0.0,0.0,0.0,0.0,0.0,0.0,0.0,0.0,0.0,0.0,0.0,0.0,0.0,0.0,0.0,0.0,0.0,0.0,0.0,0.0,0.0,0.0,0.0,0.0,0.0,0.0,0.0,0.0,0.0,0.0,0.0,0.0,0.0,0.0,0.0,0.0,0.0,0.0,0.0,0.0,0.0,0.0,0.0,0.0,0.0,0.0,0.0,0.0,0.0,0.0,0.0,0.0,0.0,0.0,0.0,0.0,0.0,0.0,0.0,0.0,1.9811,1.9811,1.9811,1.9643,0.0,0.0,0.0,0.0,0.0,0.0,0.0,0.0,0.0,0.0,0.0,0.0,0.0,0.0,0.0,0.0,0.0,0.0,0.0,0.0,0.0,0.0,0.0,0.0,0.0,0.0,0.0,0.0,0.0,0.0,0.0,0.0,0.0,0.0,0.0,0.0,0.0,0.0,0.0,0.0,0.0,0.0,0.0,0.0,0.0,0.0,0.0,0.0,0.0,0.0,0.0,0.0,0.0,0.0,0.0,0.0,0.0,0.0,0.0,0.0,0.0,0.0,0.0,0.0,0.0,0.0,0.0,0.0,0.0,0.0,0.0,0.0,0.0,0.0,0.0,0.0,0.0,0.0,0.0,0.0,0.0,0.0,0.0,0.0,0.0,0.0,0.0,0.0,0.0,0.0,0.0,0.0,0.0,0.0,0.0,0.0,0.0,0.0,0.0,0.0,0.0,0.0,0.0,0.0,0.0,0.0,0.0,0.0,0.0,0.0,1.9811,1.9811,1.9798,1.9669,1.9488,1.9281,0.0,0.0,0.0,0.0,0.0,0.0,0.0,0.0,0.0,0.0,0.0,0.0,0.0,0.0,0.0,0.0,0.0,0.0,0.0,0.0,0.0,0.0,0.0,0.0,0.0,0.0,0.0,0.0,0.0,0.0,0.0,0.0,0.0,0.0,0.0,0.0,0.0,0.0,0.0,0.0,0.0,0.0,0.0,0.0,0.0,0.0,0.0,0.0,0.0,0.0,0.0,0.0,0.0,0.0,0.0,0.0,0.0,0.0,0.0,0.0,0.0,0.0,0.0,0.0,0.0,0.0,0.0,0.0,0.0,0.0,0.0,0.0,0.0,0.0,0.0,0.0,0.0,0.0,0.0,0.0,0.0,0.0,0.0,0.0,0.0,0.0,0.0,0.0,0.0,0.0,0.0,0.0,0.0,0.0,0.0,0.0,0.0,0.0,0.0,0.0,0.0,0.0,0.0,0.0,0.0,0.0,0.0,0.0,1.9811,1.9811,1.9811,1.9785,1.9291,1.8697,0.0,0.0,0.0,0.0,0.0,0.0,0.0,0.0,0.0,0.0,0.0,0.0,0.0,0.0,0.0,0.0,0.0,0.0,0.0,0.0,0.0,0.0,0.0,0.0,0.0,0.0,0.0,0.0,0.0,0.0,0.0,0.0,0.0,0.0,0.0,0.0,0.0,0.0,0.0,0.0,0.0,0.0,0.0,0.0,0.0,0.0,0.0,0.0,0.0,0.0,0.0,0.0,0.0,0.0,0.0,0.0,0.0,0.0,0.0,0.0,0.0,0.0,0.0,0.0,0.0,0.0,0.0,0.0,0.0,0.0,0.0,0.0,0.0,0.0,0.0,0.0,0.0,0.0,0.0,0.0,0.0,0.0,0.0,0.0,0.0,0.0,0.0,0.0,0.0,0.0,0.0,0.0,0.0,0.0,0.0,0.0,0.0,0.0,0.0,0.0,0.0,0.0,0.0,0.0,0.0,0.0,0.0,0.0,0.0,1.9811,1.9811,1.9811,1.9785,1.9278,1.8894,0.0,0.0,0.0,0.0,0.0,0.0,0.0,0.0,0.0,0.0,0.0,0.0,0.0,0.0,0.0,0.0,0.0,0.0,0.0,0.0,0.0,0.0,0.0,0.0,0.0,0.0,0.0,0.0,0.0,0.0,0.0,0.0,0.0,0.0,0.0,0.0,0.0,0.0,0.0,0.0,0.0,0.0,0.0,0.0,0.0,0.0,0.0,0.0,0.0,0.0,0.0,0.0,0.0,0.0,0.0,0.0,0.0,0.0,0.0,0.0,0.0,0.0,0.0,0.0,0.0,0.0,0.0,0.0,0.0,0.0,0.0,0.0,0.0,0.0,0.0,0.0,0.0,0.0,0.0,0.0,0.0,0.0,0.0,0.0,0.0,0.0,0.0,0.0,0.0,0.0,0.0,0.0,0.0,0.0,0.0,0.0,0.0,0.0,0.0,0.0,0.0,0.0,0.0,0.0,0.0,0.0,0.0,0.0,0.0,1.9811,0.0,1.9811,0.0,1.9448,1.9172,0.0,0.0,0.0,0.0,0.0,0.0,0.0,0.0,0.0,0.0,0.0,0.0,0.0,0.0,0.0,0.0,0.0,0.0,0.0,0.0,0.0,0.0,0.0,0.0,0.0,0.0,0.0,0.0,0.0,0.0,0.0,0.0,0.0,0.0,0.0,0.0,0.0,0.0,0.0,0.0,0.0,0.0,0.0,0.0,0.0,0.0,0.0,0.0,0.0,0.0,0.0,0.0,0.0,0.0,0.0,0.0,0.0,0.0,0.0,0.0,0.0,0.0,0.0,0.0,0.0,0.0,0.0,0.0,0.0,0.0,0.0,0.0,0.0,0.0,0.0,0.0,0.0,0.0,0.0,0.0,0.0,0.0,0.0,0.0,0.0,0.0,0.0,0.0,0.0,0.0,0.0,0.0,0.0,0.0,0.0,0.0,0.0,0.0,0.0,0.0,0.0,0.0,0.0,0.0,0.0,0.0,0.0,0.0,1.9811,1.9811,1.9811,1.9811,1.9811,1.976,1.9526,0.0,0.0,0.0,0.0,0.0,0.0,0.0,0.0,0.0,0.0,0.0,0.0,0.0,0.0,0.0,0.0,0.0,0.0,0.0,0.0,0.0,0.0,0.0,0.0,0.0,0.0,0.0,0.0,0.0,0.0,0.0,0.0,0.0,0.0,0.0,0.0,0.0,0.0,0.0,0.0,0.0,0.0,0.0,0.0,0.0,0.0,0.0,0.0,0.0,0.0,0.0,0.0,0.0,0.0,0.0,0.0,0.0,0.0,0.0,0.0,0.0,0.0,0.0,0.0,0.0,0.0,0.0,0.0,0.0,0.0,0.0,0.0,0.0,0.0,0.0,0.0,0.0,0.0,0.0,0.0,0.0,0.0,0.0,0.0,0.0,0.0,0.0,0.0,0.0,0.0,0.0,0.0,0.0,0.0,0.0,0.0,0.0,0.0,0.0,0.0,0.0,0.0,0.0,0.0,0.0,0.0,0.0,0.0,0.0,1.9811,1.9811,1.9811,1.9785,1.9435,1.9172,0.0,0.0,0.0,0.0,0.0,0.0,0.0,0.0,0.0,0.0,0.0,0.0,0.0,0.0,0.0,0.0,0.0,0.0,0.0,0.0,0.0,0.0,0.0,0.0,0.0,0.0,0.0,0.0,0.0,0.0,0.0,0.0,0.0,0.0,0.0,0.0,0.0,0.0,0.0,0.0,0.0,0.0,0.0,0.0,0.0,0.0,0.0,0.0,0.0,0.0,0.0,0.0,0.0,0.0,0.0,0.0,0.0,0.0,0.0,0.0,0.0,0.0,0.0,0.0,0.0,0.0,0.0,0.0,0.0,0.0,0.0,0.0,0.0,0.0,0.0,0.0,0.0,0.0,0.0,0.0,0.0,0.0,0.0,0.0,0.0,0.0,0.0,0.0,0.0,0.0,0.0,0.0,0.0,0.0,0.0,0.0,0.0,0.0,0.0,0.0,0.0,0.0,0.0,0.0,0.0,0.0,0.0,0.0,0.0,1.9811,1.9811,1.9811,1.9811,1.9487,1.9304,1.9278,0.0,0.0,0.0,0.0,0.0,0.0,0.0,0.0,0.0,0.0,0.0,0.0,0.0,0.0,0.0,0.0,0.0,0.0,0.0,0.0,0.0,0.0,0.0,0.0,0.0,0.0,0.0,0.0,0.0,0.0,0.0,0.0,0.0,0.0,0.0,0.0,0.0,0.0,0.0,0.0,0.0,0.0,0.0,0.0,0.0,0.0,0.0,0.0,0.0,0.0,0.0,0.0,0.0,0.0,0.0,0.0,0.0,0.0,0.0,0.0,0.0,0.0,0.0,0.0,0.0,0.0,0.0,0.0,0.0,0.0,0.0,0.0,0.0,0.0,0.0,0.0,0.0,0.0,0.0,0.0,0.0,0.0,0.0,0.0,0.0,0.0,0.0,0.0,0.0,0.0,0.0,0.0,0.0,0.0,0.0,0.0,0.0,0.0,0.0,0.0,0.0,0.0,0.0,0.0,0.0,0.0,0.0,0.0,1.9811,1.9836,1.9836,1.9811,1.9798,1.9798,0.0,0.0,0.0,0.0,0.0,0.0,0.0,0.0,0.0,0.0,0.0,0.0,0.0,0.0,0.0,0.0,0.0,0.0,0.0,0.0,0.0,0.0,0.0,0.0,0.0,0.0,0.0,0.0,0.0,0.0,0.0,0.0,0.0,0.0,0.0,0.0,0.0,0.0,0.0,0.0,0.0,0.0,0.0,0.0,0.0,0.0,0.0,0.0,0.0,0.0,0.0,0.0,0.0,0.0,0.0,0.0,0.0,0.0,0.0,0.0,0.0,0.0,0.0,0.0,0.0,0.0,0.0,0.0,0.0,0.0,0.0,0.0,0.0,0.0,0.0,0.0,0.0,0.0,0.0,0.0,0.0,0.0,0.0,0.0,0.0,0.0,0.0,0.0,0.0,0.0,0.0,0.0,0.0,0.0,0.0,0.0,0.0,0.0,0.0,0.0,0.0,0.0,0.0,0.0,0.0,0.0,0.0,0.0,0.0,1.9824,2.0238,2.0238,1.9836,1.9811,1.9747,0.0,0.0,0.0,0.0,0.0,0.0,0.0,0.0,0.0,0.0,0.0,0.0,0.0,0.0,0.0,0.0,0.0,0.0,0.0,0.0,0.0,0.0,0.0,0.0,0.0,0.0,0.0,0.0,0.0,0.0,0.0,0.0,0.0,0.0,0.0,0.0,0.0,0.0,0.0,0.0,0.0,0.0,0.0,0.0,0.0,0.0,0.0,0.0,0.0,0.0,0.0,0.0,0.0,0.0,0.0,0.0,0.0,0.0,0.0,0.0,0.0,0.0,0.0,0.0,0.0,0.0,0.0,0.0,0.0,0.0,0.0,0.0,0.0,0.0,0.0,0.0,0.0,0.0,0.0,0.0,0.0,0.0,0.0,0.0,0.0,0.0,0.0,0.0,0.0,0.0,0.0,0.0,0.0,0.0,0.0,0.0,0.0,0.0,0.0,0.0,0.0,0.0,0.0,0.0,0.0,0.0,0.0,0.0,2.0514,2.0514,2.0854,2.0839,2.0395,2.0487,2.0353,0.0,0.0,0.0,0.0,0.0,0.0,0.0,0.0,0.0,0.0,0.0,0.0,0.0,0.0,0.0,0.0,0.0,0.0,0.0,0.0,0.0,0.0,0.0,0.0,0.0,0.0,0.0,0.0,0.0,0.0,0.0,0.0,0.0,0.0,0.0,0.0,0.0,0.0,0.0,0.0,0.0,0.0,0.0,0.0,0.0,0.0,0.0,0.0,0.0,0.0,0.0,0.0,0.0,0.0,0.0,0.0,0.0,0.0,0.0,0.0,0.0,0.0,0.0,0.0,0.0,0.0,0.0,0.0,0.0,0.0,0.0,0.0,0.0,0.0,0.0,0.0,0.0,0.0,0.0,0.0,0.0,0.0,0.0,0.0,0.0,0.0,0.0,0.0,0.0,0.0,0.0,0.0,0.0,0.0,0.0,0.0,0.0,0.0,0.0,0.0,0.0,0.0,0.0,0.0,0.0,0.0,0.0,0.0,2.1481,2.1481,2.1557,2.1498,2.1319,2.1422,2.1144,0.0,0.0,0.0,0.0,0.0,0.0,0.0,0.0,0.0,0.0,0.0,0.0,0.0,0.0,0.0,0.0,0.0,0.0,0.0,0.0,0.0,0.0,0.0,0.0,0.0,0.0,0.0,0.0,0.0,0.0,0.0,0.0,0.0,0.0,0.0,0.0,0.0,0.0,0.0,0.0,0.0,0.0,0.0,0.0,0.0,0.0,0.0,0.0,0.0,0.0,0.0,0.0,0.0,0.0,0.0,0.0,0.0,0.0,0.0,0.0,0.0,0.0,0.0,0.0,0.0,0.0,0.0,0.0,0.0,0.0,0.0,0.0,0.0,0.0,0.0,0.0,0.0,0.0,0.0,0.0,0.0,0.0,0.0,0.0,0.0,0.0,0.0,0.0,0.0,0.0,0.0,0.0,0.0,0.0,0.0,0.0,0.0,0.0,0.0,0.0,0.0,0.0,0.0,0.0,0.0,0.0,0.0,0.0,2.1481,2.1507,2.192,2.2105,2.2061,2.1551,2.085,0.0,0.0,0.0,0.0,0.0,0.0,0.0,0.0,0.0,0.0,0.0,0.0,0.0,0.0,0.0,0.0,0.0,0.0,0.0,0.0,0.0,0.0,0.0,0.0,0.0,0.0,0.0,0.0,0.0,0.0,0.0,0.0,0.0,0.0,0.0,0.0,0.0,0.0,0.0,0.0,0.0,0.0,0.0,0.0,0.0,0.0,0.0,0.0,2.0343,0.0,0.0,0.0,0.0,0.0,0.0,0.0,0.0,0.0,0.0,0.0,0.0,0.0,0.0,0.0,0.0,0.0,0.0,0.0,0.0,0.0,0.0,0.0,0.0,0.0,0.0,0.0,0.0,0.0,0.0,0.0,0.0,0.0,0.0,0.0,0.0,0.0,0.0,0.0,0.0,0.0,0.0,0.0,0.0,0.0,0.0,0.0,0.0,0.0,0.0,0.0,0.0,0.0,0.0,0.0,0.0,0.0,0.0,0.0,2.2245,2.2272,2.2518,2.2654,2.258,2.2217,2.15,0.0,0.0,0.0,0.0,0.0,0.0,0.0,0.0,0.0,0.0,0.0,0.0,0.0,0.0,0.0,0.0,0.0,0.0,0.0,0.0,0.0,0.0,0.0,0.0,0.0,0.0,0.0,0.0,0.0,0.0,0.0,0.0,0.0,0.0,0.0,0.0,0.0,0.0,0.0,0.0,0.0,0.0,0.0,0.0,0.0,0.0,0.0,0.0,0.0,0.0,0.0,0.0,0.0,0.0,0.0,0.0,0.0,0.0,0.0,0.0,0.0,0.0,0.0,0.0,0.0,0.0,0.0,0.0,0.0,0.0,0.0,0.0,0.0,0.0,0.0,0.0,0.0,0.0,0.0,0.0,0.0,0.0,0.0,0.0,0.0,0.0,0.0,0.0,0.0,0.0,0.0,0.0,0.0,0.0,0.0,0.0,0.0,0.0,0.0,0.0,0.0,0.0,0.0,0.0,0.0,0.0,0.0,2.2819,2.3095,2.3095,2.3095,2.3047,2.2939,2.2939,2.2399,2.1302,0.0,0.0,0.0,0.0,0.0,0.0,0.0,0.0,0.0,0.0,0.0,0.0,0.0,0.0,0.0,0.0,0.0,0.0,0.0,0.0,0.0,0.0,0.0,0.0,0.0,0.0,0.0,0.0,0.0,0.0,0.0,0.0,0.0,0.0,0.0,0.0,0.0,0.0,1.9326,2.0087,0.0,0.0,0.0,0.0,0.0,0.0,0.0,0.0,2.0996,0.0,0.0,0.0,0.0,0.0,0.0,0.0,0.0,0.0,0.0,0.0,0.0,0.0,0.0,0.0,0.0,0.0,0.0,0.0,0.0,0.0,0.0,0.0,0.0,0.0,0.0,0.0,0.0,0.0,0.0,0.0,0.0,0.0,0.0,0.0,0.0,0.0,0.0,0.0,0.0,0.0,0.0,0.0,0.0,0.0,0.0,0.0,0.0,0.0,0.0,0.0,0.0,0.0,0.0,0.0,0.0,2.2307,2.2819,2.3095,2.3095,2.3095,2.3093,2.3063,2.3078,2.272,2.1959,0.0,0.0,0.0,0.0,0.0,0.0,0.0,0.0,0.0,0.0,0.0,0.0,0.0,0.0,0.0,0.0,0.0,0.0,0.0,0.0,0.0,0.0,0.0,0.0,0.0,0.0,0.0,0.0,0.0,0.0,0.0,0.0,0.0,0.0,0.0,0.0,0.0,0.0,0.0,2.0263,2.0596,0.0,0.0,0.0,0.0,0.0,0.0,0.0,0.0,2.1444,0.0,0.0,0.0,0.0,0.0,0.0,0.0,0.0,0.0,0.0,0.0,0.0,0.0,0.0,0.0,0.0,0.0,0.0,0.0,0.0,0.0,0.0,0.0,0.0,0.0,0.0,0.0,0.0,0.0,0.0,0.0,0.0,0.0,0.0,0.0,0.0,0.0,0.0,0.0,0.0,0.0,0.0,0.0,0.0,0.0,0.0,0.0,0.0,0.0,0.0,0.0,0.0,0.0,0.0,0.0,2.2719,2.2907,2.3015,2.2987,2.3,2.3,2.3,2.3063,2.275,0.0,0.0,0.0,0.0,0.0,0.0,0.0,0.0,0.0,0.0,0.0,0.0,0.0,0.0,0.0,0.0,0.0,0.0,0.0,0.0,0.0,0.0,0.0,0.0,0.0,0.0,0.0,0.0,0.0,0.0,0.0,0.0,0.0,0.0,0.0,0.0,0.0,0.0,0.0,0.0,2.0478,2.0596,2.0596,0.0,0.0,0.0,0.0,0.0,0.0,2.1591,2.202,0.0,0.0,0.0,0.0,0.0,0.0,0.0,0.0,0.0,0.0,0.0,0.0,0.0,0.0,0.0,0.0,0.0,0.0,0.0,0.0,0.0,0.0,0.0,0.0,0.0,0.0,0.0,0.0,0.0,0.0,0.0,0.0,0.0,0.0,0.0,0.0,0.0,0.0,0.0,0.0,0.0,0.0,0.0,0.0,0.0,0.0,0.0,0.0,0.0,0.0,0.0,0.0,0.0,0.0,0.0,2.3108,2.3,2.2939,2.2939,2.2939,2.2942,2.2939,2.3047,2.2747,0.0,0.0,0.0,0.0,0.0,0.0,0.0,0.0,0.0,0.0,0.0,0.0,0.0,0.0,0.0,0.0,0.0,0.0,0.0,0.0,0.0,0.0,0.0,0.0,0.0,0.0,0.0,0.0,0.0,0.0,0.0,0.0,0.0,0.0,0.0,0.0,0.0,0.0,0.0,0.0,0.0,2.0586,2.0566,2.0566,0.0,0.0,0.0,0.0,2.1445,2.2049,0.0,0.0,0.0,0.0,0.0,0.0,0.0,0.0,0.0,0.0,0.0,0.0,0.0,0.0,0.0,0.0,0.0,0.0,0.0,0.0,0.0,0.0,0.0,0.0,0.0,0.0,0.0,0.0,0.0,0.0,0.0,0.0,0.0,0.0,0.0,0.0,0.0,0.0,0.0,0.0,0.0,0.0,0.0,0.0,0.0,0.0,0.0,0.0,0.0,0.0,0.0,0.0,0.0,0.0,0.0,0.0,2.3095,2.3078,2.3078,2.3078,2.3078,2.3078,2.309,2.3093,2.2765,0.0,0.0,0.0,0.0,0.0,0.0,0.0,0.0,0.0,0.0,0.0,0.0,0.0,0.0,0.0,0.0,0.0,0.0,0.0,0.0,0.0,0.0,0.0,0.0,0.0,0.0,0.0,0.0,0.0,0.0,0.0,0.0,0.0,0.0,0.0,0.0,0.0,0.0,0.0,0.0,0.0,2.0527,2.0362,2.0489,2.0664,0.0,0.0,0.0,2.2225,2.243,0.0,0.0,0.0,0.0,0.0,0.0,0.0,0.0,0.0,0.0,0.0,0.0,0.0,0.0,0.0,0.0,0.0,0.0,0.0,0.0,0.0,0.0,0.0,0.0,0.0,0.0,0.0,0.0,0.0,0.0,0.0,0.0,0.0,0.0,0.0,0.0,0.0,0.0,0.0,0.0,0.0,0.0,0.0,0.0,0.0,0.0,0.0,0.0,0.0,0.0,0.0,0.0,0.0,0.0,0.0,2.3095,2.308,2.2644,2.2583,2.2969,2.261,2.2595,2.2987,2.3063,2.2781,0.0,0.0,0.0,0.0,0.0,0.0,0.0,0.0,0.0,0.0,0.0,0.0,0.0,0.0,0.0,0.0,0.0,0.0,0.0,0.0,0.0,0.0,0.0,0.0,0.0,0.0,0.0,0.0,0.0,0.0,0.0,0.0,0.0,0.0,0.0,0.0,0.0,0.0,0.0,0.0,0.0,0.0,2.0469,2.0644,0.0,0.0,0.0,2.1953,2.2409,0.0,0.0,0.0,0.0,0.0,0.0,0.0,0.0,0.0,0.0,0.0,0.0,0.0,0.0,0.0,0.0,0.0,0.0,0.0,0.0,0.0,0.0,0.0,0.0,0.0,0.0,0.0,0.0,0.0,0.0,0.0,0.0,0.0,0.0,0.0,0.0,0.0,0.0,0.0,0.0,0.0,0.0,0.0,0.0,0.0,0.0,0.0,0.0,0.0,0.0,0.0,0.0,0.0,0.0,0.0,0.0,0.0,2.2854,2.243,2.2353,2.2684,2.253,2.2665,2.3166,2.3398,0.0,0.0,0.0,0.0,0.0,0.0,0.0,0.0,0.0,0.0,0.0,0.0,0.0,0.0,0.0,0.0,0.0,0.0,0.0,0.0,0.0,0.0,0.0,0.0,0.0,0.0,0.0,1.8008,0.0,0.0,0.0,0.0,0.0,0.0,0.0,0.0,0.0,0.0,0.0,0.0,0.0,0.0,2.0294,2.006,2.0531,2.0867,0.0,0.0,2.2174,2.2442,2.2614,2.275,0.0,0.0,0.0,0.0,0.0,0.0,0.0,0.0,0.0,0.0,0.0,0.0,0.0,0.0,0.0,0.0,0.0,0.0,0.0,0.0,0.0,0.0,0.0,0.0,0.0,0.0,0.0,0.0,0.0,0.0,0.0,0.0,0.0,0.0,0.0,0.0,0.0,0.0,0.0,0.0,0.0,0.0,0.0,0.0,0.0,0.0,0.0,0.0,0.0,0.0,0.0,0.0,0.0,0.0,0.0,2.2206,2.272,2.2732,2.2218,2.3269,2.3879,2.3938,2.4399,2.401,0.0,0.0,0.0,0.0,0.0,0.0,0.0,0.0,0.0,0.0,0.0,0.0,0.0,0.0,0.0,0.0,0.0,0.0,0.0,0.0,0.0,0.0,0.0,0.0,0.0,0.0,0.0,0.0,0.0,0.0,0.0,0.0,0.0,0.0,0.0,0.0,0.0,0.0,0.0,0.0,0.0,2.0079,1.8641,1.9862,2.0616,0.0,0.0,2.1958,2.2337,2.2413,2.2441,2.2432,0.0,0.0,0.0,0.0,0.0,0.0,0.0,0.0,0.0,0.0,0.0,0.0,0.0,0.0,0.0,0.0,0.0,0.0,0.0,0.0,0.0,0.0,0.0,0.0,0.0,0.0,0.0,0.0,0.0,0.0,0.0,0.0,0.0,0.0,0.0,0.0,0.0,0.0,0.0,0.0,0.0,0.0,0.0,0.0,0.0,0.0,0.0,0.0,0.0,0.0,0.0,0.0,0.0,2.3164,2.3269,2.3129,2.3028,2.3027,2.31,2.3323,2.3737,2.3945,2.3828,0.0,0.0,0.0,0.0,0.0,0.0,0.0,0.0,0.0,0.0,0.0,0.0,0.0,0.0,0.0,0.0,0.0,0.0,0.0,0.0,0.0,0.0,0.0,0.0,0.0,0.0,0.0,0.0,1.8008,1.8088,1.8334,0.0,0.0,0.0,0.0,0.0,0.0,0.0,0.0,0.0,0.0,1.8889,1.8112,1.9194,0.0,0.0,2.0228,2.0935,2.0643,2.0984,2.132,2.1507,2.2024,0.0,0.0,0.0,0.0,0.0,0.0,0.0,0.0,0.0,0.0,0.0,0.0,0.0,0.0,0.0,0.0,0.0,0.0,0.0,0.0,0.0,0.0,0.0,0.0,0.0,0.0,0.0,0.0,0.0,0.0,0.0,0.0,0.0,0.0,0.0,0.0,0.0,0.0,0.0,0.0,0.0,0.0,0.0,0.0,0.0,0.0,0.0,0.0,0.0,0.0,0.0,0.0,2.3501,2.3252,2.3429,2.3466,2.3294,2.3431,2.3627,2.3869,2.403,2.3944,0.0,0.0,0.0,0.0,0.0,0.0,0.0,0.0,0.0,0.0,0.0,0.0,0.0,0.0,0.0,0.0,0.0,0.0,0.0,0.0,0.0,0.0,0.0,0.0,0.0,0.0,0.0,0.0,1.8108,1.8352,1.8771,0.0,0.0,0.0,0.0,0.0,0.0,0.0,0.0,0.0,0.0,1.7918,1.7309,1.8377,1.9028,1.8342,1.9535,2.0232,1.9405,1.9983,2.0466,2.0345,0.0,0.0,0.0,0.0,0.0,0.0,0.0,0.0,0.0,0.0,0.0,0.0,0.0,0.0,0.0,0.0,0.0,0.0,0.0,0.0,0.0,0.0,0.0,0.0,0.0,0.0,0.0,0.0,0.0,0.0,0.0,0.0,0.0,0.0,0.0,0.0,0.0,0.0,0.0,0.0,0.0,0.0,0.0,0.0,0.0,0.0,0.0,0.0,0.0,0.0,0.0,0.0,0.0,0.0,2.1677,2.3696,2.4067,2.2758,2.4525,2.5105,2.4472,2.4964,2.4541,2.3076,0.0,0.0,0.0,0.0,0.0,0.0,0.0,0.0,0.0,0.0,0.0,0.0,0.0,0.0,0.0,0.0,0.0,0.0,0.0,0.0,0.0,0.0,0.0,0.0,0.0,0.0,1.8076,1.8371,1.8771,0.0,0.0,0.0,0.0,0.0,0.0,0.0,0.0,0.0,0.0,1.7474,1.7333,1.6048,1.7381,1.8128,1.7093,1.883,1.9931,1.8903,1.9613,1.9985,0.0,0.0,0.0,0.0,0.0,0.0,0.0,0.0,0.0,0.0,0.0,0.0,0.0,0.0,0.0,0.0,0.0,0.0,0.0,0.0,0.0,0.0,0.0,0.0,0.0,0.0,0.0,2.1811,2.2069,0.0,0.0,0.0,0.0,0.0,0.0,0.0,0.0,0.0,0.0,0.0,2.2819,2.2832,0.0,0.0,0.0,0.0,0.0,0.0,0.0,0.0,0.0,0.0,0.0,0.0,2.4064,2.4239,2.4473,2.429,2.3609,2.3769,2.3758,2.3517,2.3663,2.3526,2.3038,0.0,0.0,0.0,0.0,0.0,0.0,0.0,0.0,0.0,0.0,0.0,0.0,0.0,0.0,0.0,0.0,0.0,0.0,0.0,0.0,0.0,0.0,0.0,0.0,0.0,1.8666,0.0,0.0,0.0,0.0,0.0,0.0,0.0,0.0,0.0,0.0,0.0,1.8005,1.6588,1.6938,1.6891,1.5704,1.6621,1.7122,0.0,0.0,0.0,0.0,0.0,0.0,0.0,0.0,0.0,0.0,0.0,0.0,0.0,0.0,1.6426,1.614,1.6069,1.6069,1.6069,0.0,0.0,0.0,0.0,0.0,0.0,0.0,0.0,0.0,0.0,0.0,0.0,0.0,0.0,0.0,0.0,2.2232,0.0,0.0,0.0,0.0,0.0,0.0,0.0,0.0,2.2932,2.3095,2.3108,2.3308,2.3424,0.0,2.3609,2.3697,0.0,0.0,0.0,0.0,0.0,0.0,0.0,0.0,2.4073,2.466,2.4476,2.4166,2.3738,2.3493,2.3257,2.3001,2.2721,2.259,2.259,2.2572,2.259,0.0,0.0,0.0,0.0,0.0,0.0,0.0,0.0,0.0,0.0,0.0,0.0,0.0,0.0,0.0,0.0,0.0,0.0,0.0,0.0,0.0,0.0,0.0,1.9074,0.0,0.0,0.0,0.0,0.0,0.0,0.0,0.0,0.0,1.8809,1.8342,1.7516,1.6181,1.6283,1.6242,1.5498,0.0,0.0,0.0,0.0,0.0,0.0,0.0,1.7169,1.684,1.7342,1.7544,1.688,1.6221,1.5801,1.5801,0.0,0.0,1.5801,1.5801,1.5801,1.5801,1.5801,1.5801,1.5801,1.5801,1.5801,0.0,0.0,0.0,0.0,0.0,0.0,0.0,0.0,2.2097,2.2408,0.0,2.2627,0.0,0.0,0.0,0.0,0.0,0.0,0.0,0.0,2.313,2.313,2.3221,2.375,2.4029,2.4067,2.4528,2.4775,2.4791,2.429,0.0,0.0,0.0,0.0,0.0,0.0,2.3749,2.3146,2.372,2.3731,2.3046,2.364,2.3658,2.2964,2.2225,2.1807,2.1807,2.1826,2.1807,2.1788,2.1807,0.0,0.0,0.0,0.0,0.0,0.0,0.0,0.0,0.0,0.0,0.0,0.0,0.0,0.0,0.0,0.0,0.0,0.0,0.0,0.0,1.9335,0.0,0.0,0.0,0.0,0.0,0.0,0.0,0.0,0.0,0.0,1.8236,1.7813,1.7067,1.5928,0.0,0.0,0.0,0.0,1.5801,1.5801,1.6622,1.6911,1.5944,1.6598,1.6911,1.5974,0.0,0.0,1.5801,1.5801,1.5801,1.5801,1.5801,1.5801,1.5801,1.5801,1.5801,1.5801,1.5801,1.5801,1.5801,1.5801,1.5801,2.3745,0.0,0.0,0.0,0.0,2.3442,2.3328,2.3098,2.3067,2.3171,2.3354,2.3063,0.0,0.0,0.0,0.0,0.0,0.0,2.3333,2.3725,2.3738,2.3951,2.4327,2.449,2.4566,2.4578,2.4713,2.5005,2.536,2.5222,2.5222,2.5356,0.0,0.0,0.0,0.0,2.3993,2.3768,2.3467,2.3213,2.302,2.2644,2.2344,2.2138,2.1911,2.1788,2.1788,2.1788,2.1731,2.1598,2.1731,0.0,0.0,0.0,0.0,0.0,0.0,0.0,0.0,0.0,0.0,0.0,0.0,0.0,0.0,0.0,0.0,0.0,0.0,0.0,1.9707,2.0038,2.0284,0.0,0.0,0.0,0.0,0.0,0.0,0.0,0.0,0.0,1.7514,1.7303,1.6777,0.0,0.0,1.6173,1.5742,1.5755,1.5801,1.5801,0.0,0.0,0.0,1.6045,1.6133,1.5825,1.5801,1.5801,1.5801,1.5801,1.5801,1.5801,1.5801,1.5801,1.5801,1.5801,1.5801,1.5801,1.5801,1.5801,1.5801,1.5801,1.5801,2.4292,2.4023,2.4081,2.3966,2.3789,2.3861,2.3715,2.342,2.3403,2.3403,2.3373,2.3195,2.3304,2.3656,2.3715,0.0,0.0,0.0,2.3976,2.4318,2.433,2.449,2.4788,2.5001,2.5105,2.5134,2.5372,2.5653,2.5954,2.5954,2.5954,2.5908,0.0,0.0,2.5716,2.4366,2.3793,2.4047,2.3061,2.2515,2.2505,2.2063,2.1788,2.1788,2.1788,2.1788,2.1788,2.1788,2.175,2.1617,2.175,2.1693,0.0,0.0,0.0,0.0,0.0,0.0,0.0,0.0,0.0,0.0,0.0,1.9814,0.0,0.0,0.0,0.0,1.9739,1.9789,2.0042,2.0217,0.0,0.0,0.0,0.0,0.0,0.0,0.0,1.8077,1.823,1.8036,1.7083,1.6934,1.6691,1.6002,1.6171,1.6225,1.5846,0.0,1.5801,1.5801,1.5801,1.5801,1.5801,1.5801,1.5801,1.5801,1.5801,1.5801,1.5801,1.5801,1.5801,1.5801,1.5801,1.5801,1.5801,1.5801,1.5801,1.5801,1.5801,1.5801,1.5801,1.5801,1.5801,2.4651,2.405,2.4153,2.4009,2.3663,2.3875,2.3722,2.3248,2.3452,2.3397,2.3246,2.3233,2.3534,2.4092,2.4562,0.0,0.0,2.4816,2.4816,2.4867,2.4867,2.4904,2.4954,2.5448,2.5661,2.5686,2.6248,2.6487,2.6487,2.6487,2.6482,2.6366,2.5664,2.5629,2.6164,2.4172,2.3368,2.3872,2.2513,2.1788,2.1807,2.1788,2.1788,2.1788,2.1788,2.1788,2.1788,2.1788,2.1788,2.1769,2.1788,2.1788,2.1731,0.0,0.0,0.0,0.0,0.0,0.0,0.0,0.0,0.0,0.0,0.0,0.0,0.0,0.0,0.0,2.0401,0.0,2.0284,2.004,0.0,0.0,0.0,1.9597,1.9577,1.9378,1.8995,1.8366,0.0,0.0,0.0,0.0,1.6614,1.6621,1.6136,1.5801,1.5801,1.5801,1.5801,1.5801,1.5801,1.5801,1.5801,1.5801,1.5801,1.5801,1.5801,1.5801,1.5801,1.5801,1.5801,1.5801,1.5801,1.5801,1.5801,1.5801,1.5801,1.5801,1.5801,1.5801,1.5801,1.5801,1.5801,2.5278,2.5128,2.505,2.4638,2.4106,2.4528,2.4608,2.4402,2.4431,2.4447,2.4402,2.4374,2.4478,2.4616,2.4741,2.4816,2.4816,2.4816,2.5017,2.5398,2.541,2.5649,2.6092,2.6223,2.6268,2.6281,2.6441,2.6487,2.6487,2.6487,2.6193,2.5594,2.5382,2.5087,2.4671,2.412,2.3346,2.2354,2.1987,2.1788,2.1788,2.1788,2.1788,2.1788,2.1788,2.1788,2.1788,2.1788,2.1712,2.1589,2.1712,2.1598,2.1128,2.1263,0.0,0.0,0.0,0.0,0.0,0.0,0.0,0.0,0.0,2.0596,2.0596,0.0,2.0527,0.0,2.0137,1.999,1.9981,1.9922,0.0,0.0,1.9616,1.9547,1.937,1.8954,1.8356,1.7514,1.7241,1.6742,1.5824,1.5888,1.6017,1.6024,1.5896,1.5801,1.5801,1.5801,1.5801,1.5801,1.5801,1.5801,1.5801,1.5801,1.5801,1.5801,1.5801,1.5801,1.5801,1.5801,1.5801,1.5801,1.5801,1.5801,1.5801,1.5801,1.5801,1.5801,1.5801,1.5801,1.5801,1.5801,1.5801,2.5576,2.5291,2.5467,2.5274,2.4835,2.4959,2.4933,2.4816,2.4816,2.4816,2.4816,2.5042,2.5159,2.518,2.5452,2.5548,2.5548,2.5565,2.5728,2.6009,2.6005,2.6185,2.6487,2.6487,2.6487,2.6487,2.6487,2.6487,2.6469,2.6141,2.5734,2.5294,2.4933,2.4366,2.3651,2.3614,2.3202,2.2346,2.1997,2.1788,2.1788,2.1788,2.1911,2.2108,2.1911,2.1901,2.2097,2.1921,2.1843,2.1943,2.205,2.1924,2.1497,2.1585,2.1416,0.0,0.0,0.0,0.0,0.0,0.0,0.0,0.0,0.0,0.0,0.0,2.0381,0.0,1.9902,1.9774,1.9774,1.9686,1.9587,1.9478,1.9625,1.9695,1.9577,1.9474,1.8951,1.7732,1.7449,1.6909,1.5751,1.5684,1.5801,1.5801,1.5801,1.5801,1.5801,1.5801,1.5801,1.5801,1.5801,1.5801,1.5801,1.5801,1.5801,1.5801,1.5801,1.5801,1.5801,1.5801,1.5801,1.5801,1.5801,1.5801,1.5801,1.5801,1.5778,1.5689,1.5666,1.5713,1.5778,1.5801,1.5801,2.5801,2.5277,2.5771,2.5891,2.5674,2.5353,2.5118,2.5017,2.5017,2.5017,2.503,2.5511,2.5728,2.5753,2.6273,2.6487,2.6487,2.6487,2.6487,2.6487,2.6487,2.6487,2.6487,2.6487,2.6487,2.6487,2.6413,2.6332,2.6332,2.5511,2.5105,2.4981,2.4294,2.3585,2.2889,2.2906,2.2917,2.2852,2.222,2.189,2.1901,2.1942,2.218,2.2542,2.219,2.217,2.2553,2.219,2.2189,2.2553,2.2584,2.2515,2.2317,2.2258,2.1877,0.0,2.1036,0.0,0.0,0.0,0.0,0.0,0.0,0.0,0.0,2.0372,2.0127,1.9892,1.9676,1.9585,1.9612,1.9493,1.9393,1.9467,1.9758,1.9987,1.9996,2.0221,1.9837,1.8382,1.8139,1.7492,1.6031,1.5801,1.5801,1.5801,1.5801,1.5801,1.5801,1.5801,1.5801,1.5801,1.5801,1.5801,1.5801,1.5801,1.5801,1.5801,1.5801,1.5801,1.5761,1.5784,1.5778,1.5761,1.5761,1.5754,1.5754,1.5737,1.5642,1.5475,1.5452,1.5499,1.5618,1.5666,1.5713,2.6515,2.6375,2.6388,2.637,2.6323,2.6252,2.6202,2.6185,2.6168,2.6168,2.6185,2.6285,2.6336,2.6336,2.6449,2.6487,2.6487,2.6487,2.6487,2.6487,2.6487,2.6487,2.6487,2.6487,2.6487,2.6452,2.5851,2.5541,2.5506,2.4725,2.4022,2.3453,2.3287,2.2823,2.2084,0.0,0.0,0.0,2.2257,2.2366,2.2377,2.2729,2.2967,2.3049,2.2967,0.0,2.3049,2.2987,2.2967,2.3049,2.308,0.0,0.0,0.0,0.0,0.0,0.0,0.0,0.0,0.0,0.0,0.0,2.1661,2.1348,2.0664,2.0216,1.9892,1.9656,1.9469,1.9488,1.9828,1.9815,1.9923,2.0234,2.0335,2.039,2.0378,2.0087,1.9404,1.8338,1.7774,1.7066,1.6025,1.5801,1.5801,1.5801,1.5801,1.5801,1.5801,1.5801,1.5801,1.5801,1.5801,1.5801,1.5801,1.5801,1.5801,1.5801,1.5801,1.5737,1.5611,1.5689,1.573,1.5588,1.5564,1.5564,1.5571,1.5387,1.5244,1.5202,1.5178,1.5172,1.522,1.522,1.522,2.6842,0.0,2.6521,2.6487,0.0,2.6487,2.6487,2.6487,2.6487,2.6487,2.6487,2.6487,2.6487,2.6487,2.6487,2.6487,2.6487,2.6487,2.6487,2.6487,2.6487,2.6487,2.6487,2.6487,2.6487,2.6452,2.5676,2.5294,2.5241,2.4125,2.3479,2.334,2.2963,2.2659,2.251,2.2729,2.2738,2.249,2.2718,2.2832,2.2842,2.309,2.3318,2.3536,0.0,0.0,0.0,0.0,0.0,0.0,0.0,0.0,0.0,0.0,0.0,2.2245,2.2112,2.2009,2.1905,2.1915,2.1915,2.1915,2.1915,2.1607,2.0949,2.0669,2.0395,2.0079,1.9947,1.9969,2.017,2.0198,2.028,2.0482,2.0674,2.0793,2.0744,2.0325,1.9608,1.861,1.7803,1.6904,1.5944,1.5801,1.5801,1.5801,1.5801,1.5801,1.5801,1.5801,1.5801,1.5801,1.5801,1.5801,1.5801,1.5801,1.5801,1.5801,1.5713,1.5618,1.5523,1.5475,1.5434,1.5339,1.5291,1.5315,1.5291,1.5178,1.5065,1.4939,1.4909,1.4838,1.476,1.4909,1.5107,2.7173,2.6776,2.6675,2.665,2.6655,2.652,2.6487,2.6487,0.0,0.0,0.0,2.6487,2.6487,2.6487,2.6487,2.6487,2.6487,2.6487,2.6487,2.6487,2.6487,2.6487,2.6487,2.6487,2.6435,2.6245,2.555,2.5147,2.4962,2.3664,2.324,2.3518,2.2958,2.2842,2.3297,2.3328,2.337,2.3422,2.335,2.3339,2.3328,2.3391,2.3598,2.4012,2.3629,2.3608,2.3991,2.3629,2.3619,2.4002,2.4012,2.3897,2.3687,2.3645,2.3293,2.2566,2.2463,2.2329,2.213,2.213,2.2109,2.213,2.212,2.1844,2.1273,2.1203,2.1015,2.0542,2.05,2.0518,2.0613,2.0601,2.0637,2.0711,2.1004,2.1218,2.1171,2.0664,1.9914,1.8911,1.7917,1.6934,1.5967,1.5801,1.5801,1.5801,1.5801,1.5801,1.5801,1.5801,1.5801,1.5801,1.5754,1.573,1.573,1.5666,1.5689,1.5642,1.5523,1.5428,1.5356,1.522,1.5077,1.5029,1.5035,1.5035,1.5011,1.4957,1.4885,1.4688,1.4616,1.4562,1.4394,1.4646,1.4909,2.7928,2.7833,2.7386,2.7185,2.7148,2.67,2.6487,2.6487,2.6487,2.6487,2.6487,2.6487,2.6487,2.6487,2.6487,2.6487,2.6487,2.6487,2.6487,0.0,2.6487,2.6487,2.6487,2.6487,2.6129,2.5472,2.5063,2.4532,2.3928,2.3422,2.3209,2.3251,2.3171,2.3349,2.3764,2.3805,2.396,2.429,2.3971,2.3805,2.3805,2.4125,2.4332,2.4425,2.4353,2.4332,2.4394,2.4332,2.4342,2.4404,2.4436,2.4383,2.4361,2.419,2.3945,2.3595,2.3423,2.3207,2.2937,2.2937,2.2916,2.2947,2.2937,2.2454,2.132,2.1203,2.1015,2.0563,2.0537,2.0647,2.0949,2.1025,2.1163,2.1462,2.1581,2.1617,2.1577,2.0787,1.9863,1.8911,1.7924,1.6887,1.6015,1.5801,1.5801,1.5801,1.5801,1.5801,1.5778,1.5801,1.5801,1.5778,1.5659,1.5564,1.5516,1.5333,1.5244,1.5196,1.5172,1.5077,1.4927,1.4981,1.4963,1.4783,1.4742,1.4742,1.4742,1.4568,1.4466,1.44,1.44,1.437,1.4322,1.44,1.4442,2.8355,2.8066,2.7833,2.7733,2.7713,2.7148,2.6939,2.6914,2.6612,2.6487,2.6487,2.6487,2.6487,2.6487,2.6487,2.6487,2.6487,2.6487,2.6487,2.6487,2.6487,2.6487,2.6477,2.6316,2.6031,2.5625,2.4899,2.4341,2.4015,2.3461,2.3328,2.3577,2.3795,2.4012,2.4198,2.4218,2.4312,2.4508,2.4322,2.4218,2.424,2.4394,2.4507,2.4507,2.4507,2.4507,2.4507,2.4507,2.4507,2.4507,2.4507,2.4454,2.4325,2.4357,2.4153,2.3677,2.3646,2.3493,2.3113,2.3101,2.3101,2.3101,2.3101,2.2739,2.1923,2.1864,2.1679,2.1194,2.1159,2.1224,2.1407,2.1425,2.1485,2.1678,2.1687,2.1687,2.153,2.0357,1.9316,1.875,1.7435,1.6322,1.5849,1.5801,1.5801,1.5801,1.5801,1.5761,1.5666,1.5642,1.5635,1.5611,1.5452,1.5315,1.5267,1.5178,1.5107,1.5107,1.4987,1.4838,1.4712,1.4742,1.4616,1.4514,1.4496,1.449,1.4472,1.4394,1.4322,1.4322,1.4322,1.4322,1.4322,1.4322,1.4322,2.8869,2.8486,2.8348,2.8204,2.8072,2.7657,2.7487,2.7437,2.6909,2.6675,2.6663,2.6562,2.6487,2.6487,2.6487,2.6487,2.6487,2.6487,2.6413,2.6275,2.6556,2.6484,2.6172,2.6112,2.5998,2.5581,2.4832,2.4373,2.4175,2.3697,2.367,2.4033,2.4332,2.4507,2.4507,2.4507,2.4507,2.4507,2.4507,2.4507,2.4507,2.4507,2.4507,2.4507,2.4507,2.4507,2.4507,2.4507,2.4507,2.4507,2.4507,2.4421,2.4228,2.4368,2.4196,2.3612,2.3689,2.3592,2.3157,2.3101,2.3101,2.3101,2.3101,2.2894,2.2476,2.2397,2.2198,2.1776,2.165,2.1691,2.1668,2.1678,2.1687,2.1687,2.1687,2.1687,2.153,1.9985,1.8796,1.8603,1.7061,1.5825,1.5801,1.5801,1.5801,1.5801,1.5801,1.573,1.5588,1.554,1.5499,1.5421,1.5213,1.5035,1.5005,1.4933,1.4909,1.4909,1.4742,1.4616,1.4568,1.4418,1.4346,1.4322,1.4322,1.4346,1.4322,1.4322,1.4322,1.4322,1.4322,1.4322,1.4322,1.4322,1.4322,2.9666,2.9566,2.9032,2.8543,2.816,2.8072,2.8034,2.7959,2.7462,2.7223,2.7185,2.673,2.6499,2.6487,2.6487,2.6487,2.6499,2.6487,2.6136,2.5649,2.6668,2.6437,2.5238,2.6154,2.5937,2.47,2.4774,2.4556,2.4033,2.423,2.4383,2.4435,2.4487,2.4507,2.4507,2.4507,2.4507,2.4507,2.4507,2.4507,2.4507,2.4507,2.4507,2.4507,2.4507,2.4507,2.4507,2.4507,2.4507,2.4507,2.4497,2.4411,2.4249,2.439,2.4196,2.3547,2.3689,2.3602,2.3157,2.3101,2.3101,2.3101,2.3101,2.2925,2.2454,2.2397,2.2198,2.183,2.1709,2.1687,2.1687,2.1687,2.1687,2.1687,2.1687,2.1687,2.1486,1.9985,1.8796,1.8796,1.703,1.5801,1.5801,1.5801,1.5801,1.5801,1.5801,1.5754,1.5706,1.554,1.5452,1.538,1.507,1.4783,1.4742,1.452,1.4472,1.4424,1.4376,1.4376,1.437,1.4346,1.4322,1.4322,1.4322,1.4322,1.4322,1.4322,1.4322,1.4322,1.4322,1.4322,1.4322,1.4322,1.4322,2.9779,2.9786,2.9521,2.9315,2.9076,2.8718,2.8568,2.8518,2.7996,2.777,2.7695,2.7198,2.6801,2.6499,2.6487,2.6487,2.6512,2.6809,2.6525,2.5847,2.6615,2.6371,2.5364,2.5519,2.5331,2.4757,2.471,2.4556,2.4313,2.4446,2.4507,2.4507,2.4507,2.4507,2.4507,2.4507,2.4507,2.4507,2.4507,2.4507,2.4507,2.4507,2.4507,2.4507,2.4507,2.4507,2.4507,2.4507,2.4507,2.4507,2.439,2.4196,2.398,2.4035,2.3841,2.3319,2.3341,2.3309,2.3113,2.3101,2.3101,2.3101,2.3101,2.296,2.2684,2.2476,2.2264,2.1985,2.1785,2.1687,2.1687,2.1687,2.1687,2.1687,2.1687,2.1687,2.1664,1.9962,1.8796,1.8657,1.703,1.5801,1.5801,1.5801,1.5801,1.5801,1.5801,1.5761,1.5642,1.5434,1.5196,1.5022,1.4712,1.4568,1.464,1.4496,1.4346,1.4322,1.4322,1.4322,1.4322,1.4322,1.4322,1.4322,1.4322,1.4322,1.4322,1.4322,1.4322,1.4322,1.4322,1.4322,1.4322,1.4322,1.4322,2.9779,2.9779,2.9779,2.9779,2.9754,2.934,2.9145,2.907,2.8574,2.8304,2.8267,2.7758,2.7311,2.6922,2.665,2.6562,2.6746,2.6881,2.6572,2.5995,2.6432,2.6074,2.5135,2.5209,2.5091,2.4867,2.4629,2.4518,2.4507,2.4507,2.4507,2.4507,2.4507,2.4507,2.4507,2.4507,2.4507,2.4507,2.4507,2.4507,2.4507,2.4507,2.4507,2.4507,2.4507,2.4507,2.4507,2.4507,2.4454,2.4421,2.4335,2.412,2.3764,2.3829,2.3689,2.3276,2.3135,2.3101,2.3101,2.3101,2.3101,2.3101,2.3101,2.2991,2.2728,2.2517,2.2296,2.1985,2.1807,2.1687,2.1687,2.1687,2.1687,2.1687,2.1687,2.162,2.1221,1.9758,1.868,1.8311,1.6833,1.5801,1.5801,1.5801,1.5801,1.5801,1.5754,1.5683,1.5523,1.5291,1.5029,1.4814,1.4592,1.449,1.4568,1.4442,1.4322,1.4322,1.4322,1.4322,1.4322,1.4322,1.4322,1.4322,1.4322,1.4322,1.4322,1.4322,1.4322,1.4322,1.4322,1.4322,1.4322,1.4322,1.4322,2.9779,2.9779,2.9779,2.9779,2.9779,2.9741,2.9741,2.9666,2.912,2.8869,2.8806,2.8292,2.8059,2.7921,2.7027,2.6801,2.7104,2.6529,2.6041,2.5758,2.6129,2.5491,2.4116,2.5174,2.5326,2.4607,2.4541,2.4507,2.4507,2.4507,2.4507,2.4507,2.4507,2.4507,2.4507,2.4507,2.4507,2.4507,2.4507,2.4507,2.4507,2.4507,2.4507,2.4507,2.4507,2.4507,2.4507,2.4507,2.4421,2.4228,2.4347,2.4175,2.3634,2.3926,2.3894,2.3503,2.3232,2.3101,2.3101,2.3101,2.3101,2.3101,2.3091,2.2916,2.2574,2.2463,2.2242,2.1776,2.1763,2.1731,2.1687,2.1687,2.1687,2.1687,2.1642,2.1253,2.0484,1.943,1.8403,1.7528,1.6511,1.5849,1.5801,1.5801,1.5784,1.5754,1.5611,1.5493,1.5428,1.5244,1.5083,1.4987,1.479,1.4616,1.44,1.4346,1.4322,1.4322,1.4322,1.4322,1.4322,1.4322,1.4322,1.4322,1.4322,1.4322,1.4322,1.4322,1.4322,1.4322,1.4322,1.4322,1.4322,1.4322,1.4322,2.9301,2.9779,2.9779,2.9779,2.9779,2.9779,2.9779,2.9786,2.9591,2.9478,2.9358,2.8869,2.8618,2.858,2.7858,2.7638,2.7748,2.7254,2.6672,2.6085,2.599,2.5371,2.4439,2.4776,2.4839,2.4561,2.4507,2.4507,2.4507,2.4507,2.4507,2.4507,2.4507,2.4507,2.4507,2.4507,2.4507,2.4507,2.4507,2.4507,2.4507,2.4507,2.4507,2.4507,2.4507,2.4507,2.4507,2.4507,2.4411,2.4206,2.411,2.3894,2.3547,2.3493,2.3428,2.3276,2.3166,2.3101,2.3101,2.3101,2.3101,2.3101,2.3101,2.3025,2.286,2.2706,2.2508,2.2198,2.1998,2.1896,2.1741,2.1687,2.1687,2.162,2.1154,2.0732,2.0099,1.888,1.7692,1.7255,1.644,1.5825,1.5801,1.5801,1.5761,1.5642,1.5564,1.5445,1.5237,1.5029,1.4861,1.4814,1.4616,1.4394,1.4346,1.4322,1.4322,1.4322,1.4322,1.4322,1.4322,1.4322,1.4322,1.4322,1.4322,1.4322,1.4322,1.4322,1.4322,1.4322,1.4322,1.4322,1.4322,1.4322,1.4322,2.838,2.8878,2.8934,2.8922,2.8973,2.926,2.9378,2.9417,2.9675,2.9656,2.9381,2.9231,2.8884,2.8408,2.8248,2.8031,2.7754,2.7341,2.6798,2.6134,2.5626,2.5073,2.4583,2.4507,2.4507,2.4507,2.4507,2.4507,2.4507,2.4507,2.4507,2.4507,2.4454,2.4433,2.4475,2.4433,2.4411,2.439,2.4475,2.4475,2.4433,2.439,2.44,2.44,2.4315,2.4347,2.4475,2.4433,2.4304,2.4078,2.3894,2.3711,2.3503,2.3264,2.3101,2.3101,2.3101,2.3101,2.3101,2.3101,2.3101,2.3101,2.3101,2.3101,2.3013,2.2882,2.2662,2.2353,2.2185,2.1985,2.1785,2.1687,2.1687,2.1642,2.1109,2.0619,2.0249,1.8819,1.7622,1.684,1.6228,1.5849,1.5801,1.5801,1.5737,1.5618,1.5564,1.5404,1.5124,1.4885,1.467,1.4562,1.4442,1.4346,1.4322,1.4322,1.4322,1.4322,1.4322,1.4322,1.4322,1.4322,1.4322,1.4322,1.4322,1.4322,1.4322,1.4322,1.4322,1.4322,1.4322,1.4322,1.4322,1.4322,1.4322,2.7119,2.7252,2.7119,2.7282,2.7455,2.8151,2.8502,2.8601,2.93,2.9111,2.8589,2.9238,2.8588,2.7599,2.7965,2.7928,2.7085,2.6594,2.6208,2.5784,2.4988,2.4604,2.4507,2.4507,2.4507,2.4507,2.4507,2.4507,2.4507,2.4507,2.4507,2.4454,2.4325,2.4347,2.4507,2.4357,2.4249,2.4292,2.4411,2.4421,2.4228,2.4218,2.4228,2.4185,2.397,2.4035,2.4433,2.4282,2.4088,2.3841,2.3776,2.3711,2.346,2.3232,2.3101,2.3101,2.3101,2.3101,2.3101,2.3101,2.3101,2.3101,2.3101,2.3047,2.2904,2.2825,2.2627,2.2242,2.2119,2.2008,2.1763,2.1687,2.1687,2.1687,2.1486,2.1019,2.0235,1.9293,1.8002,1.6362,1.5825,1.5801,1.5801,1.5801,1.5778,1.5713,1.5594,1.538,1.51,1.4838,1.4616,1.4424,1.4322,1.4322,1.4322,1.4322,1.4322,1.4322,1.4322,1.4322,1.4322,1.4322,1.4322,1.4322,1.4322,1.4322,1.4322,1.4322,1.4322,1.4322,1.4322,1.4322,1.4322,1.4322,1.4322,2.6545,2.7078,2.7098,2.7098,2.7119,2.7415,2.7536,2.7557,2.7851,2.7778,2.7617,2.7819,2.7617,2.7252,2.7415,2.7049,2.6224,2.6018,2.5895,2.5652,2.4871,2.4507,2.4507,2.4507,2.4507,2.4507,2.4507,2.4507,2.4507,2.4507,2.4507,2.4475,2.4443,2.4433,2.4497,2.4433,2.439,2.4411,2.4454,2.439,2.4218,2.4206,2.412,2.3937,2.3819,2.3884,2.3992,2.3959,2.3829,2.3612,2.3612,2.3472,2.3254,2.3144,2.3101,2.3101,2.3101,2.3101,2.3101,2.3101,2.3101,2.3101,2.3101,2.3079,2.2991,2.2882,2.2662,2.2331,2.2185,2.2008,2.1763,2.1687,2.1687,2.1687,2.1132,2.0416,1.9384,1.7863,1.6615,1.6015,1.5801,1.5801,1.5801,1.5801,1.5754,1.5635,1.554,1.5356,1.4957,1.4783,1.4592,1.437,1.4346,1.4322,1.4322,1.4322,1.4322,1.4322,1.4322,1.4322,1.4322,1.4322,1.4322,1.4322,1.4322,1.4322,1.4322,1.4322,1.4322,1.4322,1.4322,1.4322,1.4322,1.4322,1.4322,2.5621,2.6112,2.6133,2.6133,2.6195,2.6453,2.6607,2.668,2.6967,2.6924,2.6717,2.6964,2.67,2.6308,2.6453,2.6121,2.5369,2.5327,2.5327,2.5263,2.4818,2.4497,2.4507,2.4507,2.4507,2.4507,2.4507,2.4507,2.4507,2.4507,2.4507,2.4497,2.4433,2.44,2.4368,2.4282,2.4218,2.4153,2.4196,2.4153,2.398,2.3937,2.3841,2.3689,2.3592,2.3537,2.3549,2.3537,2.3547,2.3482,2.3406,2.3276,2.3123,2.3101,2.3101,2.3101,2.3101,2.3101,2.3101,2.3101,2.3101,2.3101,2.3101,2.3101,2.3079,2.2969,2.2784,2.2441,2.2287,2.2074,2.1785,2.1687,2.1687,2.1687,2.1253,2.0212,1.8949,1.7381,1.6268,1.5991,1.5801,1.5801,1.5801,1.5801,1.5706,1.5547,1.5499,1.5302,1.4879,1.4712,1.4538,1.4394,1.4322,1.4322,1.4322,1.4322,1.4322,1.4322,1.4322,1.4322,1.4322,1.4322,1.4322,1.4322,1.4322,1.4322,1.4322,1.4322,1.4322,1.4322,1.4322,1.4322,1.4322,1.4322,1.4322,2.4518,2.4507,2.4518,2.4647,2.4754,2.5432,2.5725,2.5872,2.6494,2.6388,2.5992,2.6419,2.6008,2.4988,2.5453,2.5327,2.4647,2.4604,2.4636,2.4625,2.4497,2.4507,2.4507,2.4507,2.4507,2.4507,2.4507,2.4475,2.4464,2.4464,2.4486,2.439,2.4261,2.4196,2.4196,2.3959,2.3829,2.3764,2.3776,2.3754,2.3569,2.3557,2.3503,2.3482,2.3276,2.3166,2.3157,2.3188,2.3244,2.3416,2.3232,2.3144,2.3101,2.3101,2.3101,2.3101,2.3101,2.3101,2.3101,2.3101,2.3101,2.3101,2.3101,2.3101,2.3101,2.2991,2.2784,2.2441,2.2309,2.2122,2.1798,2.1687,2.1687,2.1674,2.1253,2.0311,1.8926,1.7692,1.6645,1.5991,1.5801,1.5801,1.5801,1.5801,1.5706,1.5571,1.5499,1.5231,1.4879,1.4688,1.4568,1.4448,1.4322,1.4322,1.4322,1.4322,1.4322,1.4322,1.4322,1.4322,1.4322,1.4322,1.4322,1.4322,1.4322,1.4322,1.4322,1.4322,1.4322,1.4322,1.4322,1.4322,1.4322,1.4322,1.4322,2.4507,2.4507,2.4507,2.4507,2.4518,2.4775,2.4861,2.4882,2.5115,2.5158,2.4956,2.5084,2.5031,2.4561,2.4743,2.47,2.454,2.4507,2.4507,2.4507,2.4507,2.4507,2.4507,2.4507,2.4507,2.4507,2.4507,2.4433,2.4292,2.4304,2.4196,2.3992,2.4175,2.4196,2.4175,2.4131,2.4088,2.4012,2.3841,2.3721,2.3547,2.3493,2.3385,2.321,2.3144,2.3101,2.3101,2.3101,2.3113,2.3188,2.3144,2.3101,2.3101,2.3101,2.3101,2.3101,2.3101,2.3101,2.3101,2.3101,2.3101,2.3101,2.3101,2.3101,2.3091,2.2762,2.2564,2.2353,2.2109,2.1865,2.1731,2.1687,2.1687,2.153,2.056,1.9255,1.801,1.6833,1.6038,1.5832,1.5801,1.5801,1.5801,1.5801,1.5706,1.5571,1.5452,1.5326,1.4927,1.4688,1.4592,1.4424,1.4322,1.4322,1.4322,1.4322,1.4322,1.4322,1.4322,1.4322,1.4322,1.4322,1.4322,1.4322,1.4322,1.4322,1.4322,1.4322,1.4322,1.4322,1.4322,1.4322,1.4322,1.4322,1.4322,2.4507,2.4507,2.4507,2.4507,2.4507,2.4507,2.4507,2.4507,2.4507,2.4507,2.4507,2.4507,2.4507,2.4507,2.4507,2.4507,2.4507,2.4507,2.4507,2.4507,2.4507,2.4507,2.4507,2.4507,2.4507,2.4507,2.4507,2.4454,2.4357,2.4325,2.4239,2.4175,2.4239,2.4271,2.4196,2.4196,2.4142,2.4024,2.3862,2.3732,2.3634,2.3547,2.3438,2.3254,2.3166,2.3101,2.3101,2.3101,2.3101,2.3101,2.3101,2.3101,2.3101,2.3101,2.3101,2.3101,2.3101,2.3101,2.3101,2.3101,2.3101,2.3101,2.3101,2.3057,2.2969,2.2706,2.253,2.2252,2.2008,2.1852,2.1718,2.1687,2.1499,2.0997,1.9727,1.858,1.7948,1.7131,1.6298,1.5967,1.5801,1.5801,1.5801,1.5795,1.57,1.5571,1.5499,1.5261,1.4975,1.4807,1.4609,1.4399,1.4262,1.4238,1.4244,1.425,1.431,1.4316,1.4322,1.4322,1.4322,1.4322,1.4322,1.4322,1.4322,1.4322,1.4322,1.4322,1.4322,1.4322,1.4322,1.4322,1.4322,1.4322,1.4322,2.4507,2.4507,2.4507,2.4507,2.4507,2.4507,2.4507,2.4507,2.4507,2.4507,2.4507,2.4507,2.4507,2.4507,2.4507,2.4507,2.4507,2.4507,2.4507,2.4507,2.4497,2.4475,2.4443,2.4475,2.4507,2.4507,2.4475,2.4411,2.4325,2.4347,2.4325,2.4164,2.4229,2.4261,2.4067,2.4067,2.397,2.3807,2.3689,2.3646,2.358,2.3472,2.3394,2.3341,2.3178,2.3113,2.3101,2.3101,2.3101,2.3101,2.3101,2.3101,2.3101,2.3101,2.3101,2.3101,2.3101,2.3101,2.3101,2.3101,2.3101,2.3101,2.3101,2.3035,2.2904,2.2794,2.2596,2.2252,2.2109,2.1941,2.1709,2.162,2.1235,2.0554,1.9499,1.8808,1.8486,1.7756,1.673,1.5903,1.5718,1.5708,1.5715,1.5721,1.5617,1.5202,1.5165,1.4971,1.472,1.4497,1.4368,1.4305,1.4194,1.4153,1.4171,1.4189,1.4238,1.4298,1.4316,1.4322,1.4322,1.4322,1.4322,1.4322,1.4322,1.4322,1.4322,1.4322,1.4322,1.4322,1.4322,1.4322,1.4322,1.4322,1.4322,2.4507,2.4507,2.4507,2.4507,2.4507,2.4507,2.4507,2.4507,2.4507,2.4507,2.4507,2.4507,2.4507,2.4507,2.4507,2.4507,2.4507,2.4507,2.4507,2.4507,2.4507,2.44,2.4357,2.4433,2.4475,2.4433,2.4325,2.4164,2.3993,2.3792,2.3614,2.3487,2.3655,2.3701,2.3649,2.3662,2.3634,2.3547,2.3396,2.3341,2.3341,2.3297,2.3232,2.321,2.3135,2.3113,2.3101,2.3101,2.3101,2.3101,2.3101,2.3101,2.3101,2.3101,2.3101,2.3101,2.3101,2.3101,2.3101,2.3101,2.3101,2.3101,2.3091,2.3069,2.3025,2.286,2.2662,2.2375,2.2207,2.2008,2.1663,2.1011,2.082,2.0505,1.944,1.8345,1.7829,1.6731,1.5837,1.5365,1.5213,1.518,1.5193,1.524,1.5113,1.4861,1.4731,1.4588,1.4414,1.4228,1.415,1.4113,1.3968,1.3876,1.387,1.3936,1.402,1.4075,1.4117,1.4141,1.4147,1.425,1.4232,1.4262,1.4322,1.4322,1.4322,1.4322,1.4322,1.4322,1.4322,1.4322,1.4322,1.4322,1.4322,2.4507,2.4507,2.4507,2.4507,2.4507,2.4507,2.4507,2.4507,2.4507,2.4507,2.4507,2.4507,2.4507,2.4507,2.4507,2.4507,2.4507,2.4507,2.4507,2.4507,2.4507,2.4454,2.4378,2.439,2.4411,2.4187,2.3961,2.3751,2.3509,2.324,2.3007,2.2899,2.3024,2.3081,2.3128,2.3246,2.3338,2.3396,2.3426,2.3428,2.3428,2.3319,2.3178,2.3123,2.3101,2.3101,2.3101,2.3101,2.3101,2.3101,2.3101,2.3101,2.3101,2.3101,2.3101,2.3101,2.3101,2.3101,2.3101,2.3101,2.3101,2.3101,2.3101,2.3035,2.2991,2.2847,2.2627,2.2331,2.2113,2.1943,2.1475,2.1098,2.0856,2.0503,1.9536,1.855,1.7959,1.6794,1.5612,1.5214,1.5048,1.5042,1.5015,1.4934,1.4869,1.4733,1.4679,1.4537,1.4343,1.417,1.3985,1.389,1.3671,1.3574,1.3569,1.3629,1.3749,1.3785,1.3797,1.3809,1.3809,1.3978,1.4141,1.4195,1.4262,1.4322,1.4322,1.4322,1.4322,1.4322,1.4322,1.4322,1.4322,1.4322,1.4322,2.4507,2.4507,2.4507,2.4507,2.4507,2.4507,2.4507,2.4507,2.4507,2.4507,2.4507,2.4507,2.4507,2.4507,2.4507,2.4507,2.4507,2.4507,2.4507,2.4507,2.4433,2.4368,2.4325,2.4325,2.4186,2.3769,2.3576,2.3384,2.3105,2.2732,2.2507,2.2501,2.2481,2.2508,2.257,2.2771,2.2928,2.2926,2.3103,2.3262,2.3282,2.3173,2.301,2.2988,2.3071,2.3091,2.3101,2.3101,2.3101,2.3101,2.3101,2.3101,2.3101,2.3101,2.3101,2.3101,2.3101,2.3101,2.3101,2.3101,2.3101,2.3101,2.3101,2.3035,2.2925,2.2869,2.2693,2.2359,2.2092,2.1705,2.1167,2.093,2.0738,2.0349,1.9556,1.8858,1.8167,1.7071,1.5886,1.5271,1.4859,1.4693,1.4718,1.4698,1.4652,1.4607,1.4547,1.4436,1.4203,1.3998,1.3773,1.3517,1.3284,1.3314,1.3328,1.3364,1.3483,1.3568,1.3556,1.3556,1.3562,1.3719,1.3924,1.4141,1.422,1.4244,1.428,1.4322,1.4322,1.4322,1.4322,1.4322,1.4322,1.4322,1.4322,2.4507,2.4507,2.4507,2.4507,2.4507,2.4507,2.4507,2.4507,2.4507,2.4507,2.4507,2.4507,2.4507,2.4507,2.4507,2.4507,2.4507,2.4507,2.4507,2.4486,2.4368,2.4218,2.4121,2.4239,2.4013,2.3601,2.3324,2.3125,2.2825,2.2369,2.1974,2.2001,2.1981,2.1982,2.1982,2.2087,2.2169,2.2209,2.2357,2.2415,2.2404,2.2372,2.2448,2.2586,2.2808,2.2976,2.3054,2.3062,2.3101,2.3101,2.3091,2.3091,2.3101,2.3101,2.3101,2.3101,2.3101,2.3101,2.3101,2.3101,2.3101,2.3101,2.3101,2.3101,2.3057,2.3006,2.2754,2.2427,2.1913,2.1398,2.0924,2.0697,2.042,1.9926,1.928,1.8412,1.7384,1.6531,1.5896,1.5673,1.5021,1.4323,1.4404,1.4422,1.4349,1.4282,1.4232,1.4017,1.3722,1.3548,1.337,1.3099,1.2835,1.297,1.3105,1.3147,1.3214,1.3375,1.3399,1.3376,1.3406,1.3491,1.3682,1.381,1.4039,1.4159,1.4201,1.4214,1.4238,1.4189,1.4232,1.4286,1.4322,1.4322,1.4322,2.4507,2.4507,2.4507,2.4507,2.4507,2.4507,2.4507,2.4507,2.4507,2.4507,2.4507,2.4507,2.4507,2.4507,2.4507,2.4507,2.4507,2.4507,2.4507,2.4475,2.439,2.4304,2.4143,2.4304,2.3894,2.3448,2.3044,2.2761,2.2473,2.1626,2.1329,2.1231,2.1221,2.1231,2.1299,2.1436,2.1523,2.1572,2.1738,2.1886,2.1896,2.1896,2.2042,2.2187,2.2363,2.248,2.2469,2.2479,2.2576,2.2723,2.2791,2.2908,2.3025,2.3071,2.3081,2.3062,2.3081,2.3101,2.3101,2.3101,2.3101,2.3101,2.3081,2.3101,2.3033,2.2884,2.2572,2.2021,2.158,2.0915,2.037,2.0281,2.0008,1.9624,1.918,1.8678,1.8005,1.7196,1.6719,1.6275,1.5195,1.4465,1.4163,1.4134,1.4045,1.3983,1.3934,1.3659,1.3355,1.3228,1.3137,1.2924,1.2717,1.2789,1.2918,1.2942,1.2979,1.3121,1.3194,1.3171,1.3177,1.3248,1.3298,1.3412,1.3641,1.3846,1.3864,1.3821,1.3942,1.4063,1.4057,1.4087,1.4232,1.4322,1.4244,2.4228,2.4249,2.4228,2.4249,2.4249,2.4218,2.4229,2.4249,2.4197,2.4177,2.4249,2.4218,2.4208,2.426,2.4332,2.4405,2.4487,2.4507,2.4507,2.4454,2.4347,2.4315,2.4336,2.4139,2.3752,2.3153,2.2572,2.227,2.1866,2.1144,2.0703,2.0693,2.0625,2.0596,2.0723,2.0967,2.1064,2.1211,2.1406,2.1632,2.1631,2.1709,2.1778,2.1797,2.1857,2.1954,2.2013,2.2023,2.2129,2.2305,2.2391,2.2529,2.2791,2.2859,2.2859,2.2888,2.2984,2.3081,2.3081,2.2976,2.2927,2.2906,2.2879,2.2859,2.2771,2.2448,2.2079,2.136,2.1008,2.0611,2.0103,1.9907,1.969,1.9428,1.9318,1.9143,1.8685,1.8037,1.7322,1.6535,1.5318,1.479,1.4622,1.4109,1.4067,1.3962,1.3913,1.3673,1.3377,1.3185,1.3052,1.2833,1.2705,1.2705,1.2759,1.2777,1.2807,1.2862,1.2904,1.2904,1.291,1.2928,1.2997,1.3093,1.3153,1.3322,1.3352,1.3485,1.3659,1.3797,1.3815,1.3857,1.393,1.3984,1.3966,2.335,2.336,2.336,2.337,2.3381,2.3401,2.3381,2.3401,2.3432,2.337,2.3463,2.3391,2.3422,2.3505,2.3826,2.4136,2.4373,2.4424,2.4413,2.4391,2.4081,2.3889,2.3783,2.33,2.3143,2.2727,2.2099,2.1609,2.1301,2.083,2.0625,2.0596,2.0596,2.0596,2.0605,2.0713,2.0683,2.0703,2.0772,2.0801,2.0869,2.1133,2.1269,2.1376,2.1592,2.1788,2.1749,2.1739,2.1836,2.1914,2.1974,2.2003,2.2031,2.2041,2.2031,2.2256,2.2615,2.3091,2.2986,2.2742,2.2588,2.2508,2.2334,2.21,2.206,2.2031,2.1716,2.1277,2.0957,2.0551,1.9969,1.9748,1.9535,1.9398,1.9292,1.8915,1.8507,1.8707,1.7997,1.7229,1.6152,1.5643,1.5332,1.4636,1.4088,1.3983,1.387,1.3631,1.3419,1.3222,1.2988,1.279,1.2705,1.2705,1.2705,1.2705,1.2705,1.2705,1.2705,1.2705,1.2747,1.2789,1.2759,1.2822,1.2864,1.2985,1.3177,1.334,1.3461,1.3515,1.3533,1.3539,1.3545,1.3599,1.3713,2.2708,2.3184,2.3194,2.3194,2.3194,2.3194,2.3194,2.3194,2.3194,2.3194,2.3194,2.3194,2.3194,2.3225,2.3422,2.3732,2.4042,2.4009,2.411,2.4129,2.3749,2.3457,2.3337,2.2952,2.2609,2.2127,2.1769,2.1332,2.0958,2.0732,2.0596,2.0596,2.0596,2.0596,2.0596,2.0596,2.0596,2.0625,2.0605,2.0596,2.0644,2.0762,2.0859,2.0869,2.1094,2.1182,2.1202,2.1182,2.1289,2.1426,2.1514,2.166,2.1847,2.1925,2.1925,2.1934,2.2187,2.2393,2.2393,2.2236,2.2187,2.2139,2.1953,2.1826,2.1591,2.1474,2.1268,2.072,2.0454,2.0161,1.9841,1.9557,1.9429,1.9341,1.9292,1.9134,1.8807,1.8816,1.8567,1.7796,1.7086,1.6535,1.5904,1.5068,1.4412,1.4067,1.3955,1.3779,1.3525,1.3264,1.3009,1.2726,1.2705,1.2705,1.2705,1.2705,1.2705,1.2705,1.2705,1.2705,1.2705,1.2711,1.2705,1.2705,1.2765,1.2888,1.3057,1.3081,1.3127,1.3206,1.3268,1.3298,1.3334,1.3467,1.3539,2.2211,2.2852,2.2842,2.2853,2.2842,2.2842,2.2822,2.2832,2.2811,2.2822,2.2822,2.2762,2.2783,2.2928,2.2908,2.3094,2.3525,2.3359,2.349,2.3498,2.3269,2.2962,2.2749,2.2439,2.1948,2.1481,2.1342,2.1046,2.0771,2.0596,2.0596,2.0596,2.0596,2.0596,2.0596,2.0596,2.0596,2.0596,2.0596,2.0596,2.0596,2.0596,2.0615,2.0605,2.0596,2.0596,2.0596,2.0644,2.084,2.0977,2.1064,2.1201,2.1426,2.1436,2.1446,2.1456,2.1563,2.1553,2.1602,2.1611,2.1699,2.1689,2.1583,2.1338,2.1143,2.1035,2.0947,2.0508,2.0342,2.0078,1.9794,1.9607,1.9489,1.9429,1.9341,1.9321,1.9273,1.9134,1.8836,1.8098,1.7492,1.7229,1.6494,1.5519,1.4803,1.425,1.4018,1.3885,1.361,1.3285,1.3009,1.2705,1.2705,1.2705,1.2705,1.2705,1.2705,1.2705,1.2705,1.2705,1.2705,1.2705,1.2705,1.2705,1.2705,1.2759,1.287,1.2819,1.2759,1.2904,1.3031,1.3103,1.3181,1.3308,1.3304,2.1819,2.1881,2.1921,2.1933,2.1943,2.1881,2.1912,2.2005,2.1973,2.1994,2.1988,2.1791,2.198,2.2165,2.2218,2.2352,2.2726,2.2675,2.2797,2.2714,2.2439,2.2316,2.2106,2.1736,2.133,2.1183,2.0987,2.0771,2.0615,2.0596,2.0596,2.0596,2.0596,2.0596,2.0596,2.0596,2.0596,2.0596,2.0596,2.0596,2.0596,2.0596,2.0596,2.0596,2.0596,2.0596,2.0596,2.0596,2.0615,2.0723,2.0732,2.0732,2.0899,2.0918,2.0908,2.0908,2.0908,2.0908,2.0947,2.1123,2.123,2.1142,2.1006,2.086,2.0772,2.0684,2.0586,2.0566,2.0411,2.0333,2.0167,2.001,1.9666,1.9479,1.9341,1.9321,1.9292,1.9273,1.8906,1.8298,1.7957,1.7775,1.7391,1.6473,1.5539,1.4964,1.4117,1.3963,1.3519,1.32,1.2939,1.2726,1.2705,1.2705,1.2705,1.2705,1.2705,1.2705,1.2705,1.2705,1.2705,1.2705,1.2705,1.2705,1.2705,1.2705,1.2705,1.2717,1.2723,1.2717,1.2756,1.2892,1.2922,1.297,1.294,2.1598,2.1598,2.1493,2.1578,2.1788,2.1788,2.1788,2.1788,2.1788,2.1712,2.1598,2.1446,2.1489,2.1679,2.1759,2.1983,2.244,2.2341,2.2392,2.2311,2.2109,2.1747,2.1449,2.1183,2.083,2.083,2.0674,2.0596,2.0615,2.0596,2.0596,2.0596,2.0596,2.0596,2.0596,2.0596,2.0596,2.0596,2.0596,2.0596,2.0596,2.0596,2.0596,2.0596,2.0596,2.0596,2.0596,2.0596,2.0596,2.0596,2.0596,2.0596,2.0596,2.0596,2.0596,2.0596,2.0596,2.0596,2.0596,2.0762,2.081,2.0801,2.0684,2.0596,2.0596,2.0596,2.0596,2.0566,2.0489,2.0362,2.0069,1.9853,1.9616,1.944,1.9361,1.9312,1.9292,1.9292,1.9213,1.8687,1.8587,1.8499,1.8037,1.7513,1.6555,1.5664,1.4789,1.3977,1.3555,1.3173,1.2918,1.2726,1.2705,1.2705,1.2705,1.2705,1.2705,1.2705,1.2705,1.2705,1.2705,1.2705,1.2705,1.2705,1.2705,1.2705,1.2705,1.2705,1.2705,1.2705,1.2705,1.2735,1.2723,1.2705,1.2705,2.1416,2.1397,2.1263,2.1359,2.1617,2.1617,2.1617,2.1617,2.1598,2.1589,2.1483,2.1359,2.1359,2.1445,2.1446,2.1539,2.1833,2.1796,2.1809,2.167,2.1412,2.1214,2.1007,2.084,2.0693,2.0663,2.0625,2.0596,2.0596,2.0596,2.0596,2.0596,2.0596,2.0596,2.0596,2.0596,2.0596,2.0596,2.0596,2.0596,2.0596,2.0596,2.0596,2.0596,2.0596,2.0596,2.0596,2.0596,2.0596,2.0596,2.0596,2.0596,2.0596,2.0596,2.0596,2.0596,2.0596,2.0596,2.0596,2.0596,2.0596,2.0635,2.0625,2.0596,2.0596,2.0596,2.0596,2.0586,2.043,2.0225,1.999,1.9813,1.9645,1.9478,1.9341,1.9292,1.9292,1.9292,1.9292,1.9134,1.9065,1.8946,1.8507,1.7925,1.6801,1.5739,1.4587,1.3921,1.3597,1.3243,1.2982,1.2811,1.2705,1.2705,1.2705,1.2705,1.2705,1.2705,1.2705,1.2705,1.2705,1.2705,1.2705,1.2705,1.2705,1.2705,1.2705,1.2705,1.2705,1.2705,1.2705,1.2705,1.2705,1.2705,1.2705,2.1205,2.1215,2.1186,2.1186,2.1205,2.1234,2.1254,2.1282,2.1263,2.1359,2.1483,2.1455,2.1436,2.1425,2.1301,2.1304,2.1257,2.117,2.1093,2.1035,2.1085,2.0898,2.082,2.0751,2.0693,2.0799,2.0722,2.0596,2.0596,2.0596,2.0596,2.0596,2.0596,2.0596,2.0596,2.0596,2.0596,2.0596,2.0596,2.0596,2.0596,2.0596,2.0596,2.0596,2.0596,2.0596,2.0596,2.0596,2.0596,2.0596,2.0596,2.0596,2.0596,2.0596,2.0596,2.0596,2.0596,2.0596,2.0596,2.0596,2.0596,2.0596,2.0596,2.0596,2.0596,2.0596,2.0596,2.0586,2.045,2.0342,2.0127,1.9912,1.9695,1.9518,1.9381,1.9292,1.9292,1.9292,1.9292,1.9292,1.9292,1.9193,1.8807,1.8207,1.6984,1.5801,1.4482,1.3836,1.3646,1.3237,1.2918,1.2833,1.2705,1.2705,1.2705,1.2705,1.2705,1.2705,1.2705,1.2705,1.2705,1.2705,1.2705,1.2705,1.2705,1.2705,1.2705,1.2705,1.2705,1.2705,1.2705,1.2705,1.2705,1.2705,1.2705,2.1003,2.1003,2.0867,2.0809,2.0848,2.1099,2.1215,2.1215,2.1215,2.132,2.1436,2.1359,2.1301,2.1263,2.1263,2.1224,2.1282,2.1301,2.1233,2.1176,2.1137,2.1032,2.0935,2.0819,2.0761,2.0693,2.0605,2.0596,2.0596,2.0596,2.0596,2.0596,2.0596,2.0596,2.0596,2.0596,2.0596,2.0596,2.0596,2.0596,2.0596,2.0596,2.0596,2.0596,2.0596,2.0596,2.0596,2.0596,2.0596,2.0596,2.0596,2.0596,2.0596,2.0596,2.0596,2.0596,2.0596,2.0596,2.0596,2.0596,2.0596,2.0596,2.0596,2.0596,2.0596,2.0596,2.0596,2.0596,2.0508,2.0401,2.0264,2.001,1.9774,1.9577,1.9429,1.9312,1.9292,1.9292,1.9292,1.9292,1.9292,1.9233,1.8955,1.8367,1.729,1.6309,1.5116,1.4314,1.3977,1.3258,1.2769,1.2769,1.2705,1.2705,1.2705,1.2705,1.2705,1.2705,1.2705,1.2705,1.2705,1.2705,1.2705,1.2705,1.2705,1.2705,1.2705,1.2705,1.2705,1.2705,1.2705,1.2705,1.2705,1.2705,1.2705,2.079,2.0799,2.0644,2.0596,2.0654,2.0954,2.1099,2.1109,2.1147,2.1244,2.1254,2.1215,2.1244,2.1282,2.132,2.134,2.1483,2.1483,2.134,2.135,2.1282,2.107,2.0945,2.0848,2.0761,2.0663,2.0625,2.0596,2.0596,2.0596,2.0596,2.0596,2.0596,2.0596,2.0596,2.0596,2.0596,2.0596,2.0596,2.0596,2.0596,2.0596,2.0596,2.0596,2.0596,2.0596,2.0596,2.0596,2.0596,2.0596,2.0596,2.0596,2.0596,2.0596,2.0596,2.0596,2.0596,2.0596,2.0596,2.0596,2.0596,2.0596,2.0596,2.0596,2.0596,2.0596,2.0596,2.0596,2.0547,2.0381,2.0206,1.9942,1.9765,1.9557,1.9429,1.9321,1.9292,1.9292,1.9292,1.9292,1.9273,1.9193,1.8975,1.8367,1.7594,1.669,1.5786,1.5088,1.4391,1.3675,1.3024,1.289,1.2826,1.2811,1.2769,1.2705,1.2705,1.2705,1.2747,1.279,1.2705,1.2705,1.2705,1.2705,1.2705,1.2705,1.2705,1.2705,1.2705,1.2705,1.2705,1.2705,1.2705,1.2705,1.2705,2.0615,2.0596,2.0596,2.0596,2.0634,2.0838,2.0935,2.0935,2.1099,2.1089,2.0954,2.1196,2.132,2.1445,2.1474,2.1455,2.1425,2.1425,2.1263,2.108,2.108,2.0964,2.0877,2.0761,2.0761,2.0761,2.0722,2.0596,2.0596,2.0596,2.0596,2.0596,2.0596,2.0596,2.0596,2.0596,2.0596,2.0596,2.0596,2.0596,2.0596,2.0596,2.0596,2.0596,2.0596,2.0596,2.0596,2.0596,2.0596,2.0596,2.0596,2.0596,2.0596,2.0596,2.0596,2.0596,2.0596,2.0596,2.0596,2.0596,2.0596,2.0596,2.0596,2.0596,2.0596,2.0596,2.0596,2.0576,2.0498,2.0245,2.001,1.9833,1.9676,1.9508,1.939,1.9321,1.9292,1.9292,1.9292,1.9292,1.9292,1.9154,1.8747,1.8198,1.8086,1.7399,1.6617,1.5918,1.5179,1.4398,1.376,1.3273,1.3167,1.2982,1.296,1.3167,1.3045,1.3152,1.2982,1.296,1.2854,1.2705,1.2705,1.2705,1.2705,1.2705,1.2705,1.2705,1.2705,1.2705,1.2705,1.2705,1.2705,1.2705,1.2705,2.0596,2.0596,2.0596,2.0596,2.0634,2.0799,2.0906,2.0926,2.0984,2.108,2.134,2.1378,2.1406,2.1483,2.1378,2.1291,2.1244,2.1167,2.1128,2.1051,2.1032,2.0984,2.0906,2.0809,2.078,2.0693,2.0634,2.0596,2.0596,2.0596,2.0596,2.0596,2.0596,2.0596,2.0596,2.0596,2.0596,2.0596,2.0596,2.0596,2.0596,2.0596,2.0596,2.0596,2.0596,2.0596,2.0596,2.0596,2.0596,2.0596,2.0596,2.0596,2.0596,2.0596,2.0596,2.0596,2.0596,2.0596,2.0596,2.0596,2.0596,2.0596,2.0596,2.0596,2.0596,2.0596,2.0596,2.0557,2.0537,2.0333,2.0186,2.001,1.9774,1.9577,1.9449,1.941,1.9361,1.9292,1.9292,1.9292,1.9292,1.9213,1.8767,1.8767,1.8607,1.8063,1.7456,1.6768,1.5966,1.5165,1.4419,1.3907,1.3781,1.3675,1.3928,1.416,1.383,1.3603,1.3392,1.3088,1.2811,1.2705,1.2705,1.2705,1.2705,1.2705,1.2705,1.2705,1.2705,1.2705,1.2705,1.2705,1.2705,1.2705,1.2705,2.0596,2.0596,2.0596,2.0644,2.0741,2.0848,2.0945,2.1003,2.1022,2.1167,2.1359,2.1263,2.134,2.1436,2.1244,2.1167,2.132,2.1167,2.107,2.1022,2.1089,2.0935,2.0848,2.079,2.0693,2.0634,2.0596,2.0596,2.0596,2.0596,2.0596,2.0596,2.0596,2.0596,2.0596,2.0596,2.0596,2.0596,2.0596,2.0596,2.0596,2.0596,2.0596,2.0596,2.0596,2.0596,2.0596,2.0596,2.0596,2.0596,2.0596,2.0596,2.0596,2.0596,2.0596,2.0596,2.0596,2.0596,2.0596,2.0596,2.0596,2.0596,2.0596,2.0596,2.0596,2.0596,2.0596,2.0596,2.0566,2.0527,2.0391,2.0245,1.9931,1.9636,1.9577,1.9489,1.94,1.9312,1.9292,1.9292,1.9292,1.9292,1.9253,1.9292,1.9143,1.8574,1.8161,1.7769,1.6858,1.5891,1.5103,1.4433,1.4454,1.4482,1.4755,1.4796,1.4321,1.3899,1.3625,1.3322,1.2918,1.2705,1.2705,1.2705,1.2705,1.2705,1.2705,1.2705,1.2705,1.2705,1.2705,1.2705,1.2705,1.2705,1.2705,2.0566,2.0596,2.0615,2.0693,2.0867,2.0867,2.0964,2.1167,2.1138,2.1186,2.1167,2.0984,2.1128,2.132,2.1089,2.1109,2.1167,2.1109,2.0935,2.0887,2.0877,2.077,2.0693,2.0615,2.0634,2.0615,2.0596,2.0596,2.0596,2.0596,2.0596,2.0596,2.0596,2.0596,2.0596,2.0596,2.0596,2.0596,2.0596,2.0596,2.0596,2.0596,2.0596,2.0596,2.0596,2.0596,2.0596,2.0596,2.0596,2.0596,2.0596,2.0596,2.0596,2.0596,2.0596,2.0596,2.0596,2.0596,2.0596,2.0596,2.0596,2.0596,2.0596,2.0596,2.0596,2.0596,2.0596,2.0596,2.0586,2.0508,2.0381,2.0284,2.0049,1.9754,1.9577,1.9489,1.9361,1.9292,1.9292,1.9292,1.9292,1.9292,1.9292,1.9273,1.9123,1.8832,1.86,1.8351,1.7749,1.6673,1.6015,1.5269,1.5276,1.536,1.5235,1.5151,1.4594,1.4195,1.3942,1.337,1.2854,1.2726,1.2705,1.2705,1.2705,1.2705,1.2705,1.2705,1.2705,1.2705,1.2705,1.2705,1.2705,1.2705,1.2705,2.0275,2.0596,2.0596,2.0625,2.0673,2.0693,2.079,2.0964,2.0984,2.1061,2.1147,2.1022,2.1012,2.1205,2.1003,2.0974,2.1003,2.0935,2.0741,2.0693,2.0693,2.0693,2.0625,2.0596,2.0596,2.0596,2.0596,2.0596,2.0596,2.0596,2.0596,2.0596,2.0596,2.0596,2.0596,2.0596,2.0596,2.0596,2.0596,2.0596,2.0596,2.0596,2.0596,2.0596,2.0596,2.0596,2.0596,2.0596,2.0596,2.0596,2.0596,2.0596,2.0596,2.0596,2.0596,2.0596,2.0596,2.0596,2.0596,2.0596,2.0596,2.0596,2.0596,2.0596,2.0596,2.0596,2.0596,2.0596,2.0557,2.0459,2.0362,2.0284,2.0147,1.9853,1.9597,1.9469,1.9341,1.9292,1.9292,1.9292,1.9292,1.9292,1.9292,1.9202,1.9053,1.8882,1.876,1.854,1.8241,1.7517,1.72,1.6599,1.634,1.6278,1.601,1.565,1.5172,1.4629,1.4293,1.3618,1.2875,1.2854,1.2918,1.2747,1.2705,1.2705,1.2705,1.2705,1.2705,1.2705,1.2705,1.2705,1.2705,1.2705,1.2705,1.9878,2.0283,2.0508,2.0644,2.0712,2.0741,2.0858,2.0993,2.0926,2.0964,2.1042,2.0964,2.0993,2.1109,2.0896,2.0848,2.0838,2.0693,2.0654,2.0615,2.0596,2.0615,2.0596,2.0596,2.0596,2.0596,2.0596,2.0596,2.0596,2.0596,2.0596,2.0596,2.0596,2.0596,2.0596,2.0596,2.0596,2.0596,2.0596,2.0596,2.0596,2.0596,2.0596,2.0596,2.0596,2.0596,2.0596,2.0596,2.0596,2.0596,2.0596,2.0596,2.0596,2.0596,2.0596,2.0596,2.0596,2.0596,2.0596,2.0596,2.0596,2.0596,2.0596,2.0596,2.0596,2.0596,2.0596,2.0596,2.0596,2.0518,2.042,2.0342,2.0167,1.9922,1.9765,1.9647,1.944,1.9292,1.9292,1.9292,1.9292,1.9292,1.9292,1.9273,1.9143,1.9143,1.8982,1.8942,1.8614,1.8233,1.7971,1.7656,1.7229,1.6841,1.6463,1.6175,1.5886,1.5318,1.4671,1.4146,1.3576,1.33,1.313,1.3003,1.2854,1.2705,1.2705,1.2747,1.2705,1.2705,1.2705,1.2705,1.2705,1.2705,1.2705,1.9454,1.9854,2.0312,2.0604,2.0779,2.0828,2.0935,2.1051,2.0945,2.0867,2.0867,2.0848,2.0974,2.0925,2.0809,2.0819,2.078,2.0673,2.0605,2.0596,2.0596,2.0596,2.0596,2.0596,2.0596,2.0596,2.0596,2.0596,2.0596,2.0596,2.0596,2.0596,2.0596,2.0596,2.0596,2.0596,2.0596,2.0596,2.0596,2.0596,2.0596,2.0596,2.0596,2.0596,2.0596,2.0596,2.0596,2.0596,2.0596,2.0596,2.0596,2.0596,2.0596,2.0596,2.0596,2.0596,2.0596,2.0596,2.0596,2.0596,2.0596,2.0596,2.0596,2.0596,2.0596,2.0596,2.0596,2.0596,2.0596,2.0576,2.0479,2.0362,2.0177,2.0,1.9883,1.9725,1.9479,1.9292,1.9292,1.9292,1.9292,1.9292,1.9292,1.9292,1.9292,1.9292,1.9292,1.9292,1.9134,1.8705,1.8353,1.8011,1.7615,1.7241,1.6812,1.6381,1.6072,1.5679,1.5005,1.4629,1.4279,1.3977,1.366,1.3322,1.3152,1.3003,1.2854,1.2854,1.279,1.2705,1.2705,1.2705,1.2705,1.2705,1.2705,1.9002,1.9462,1.9863,2.0058,2.0145,2.0487,2.0683,2.0702,2.0673,2.0673,2.0673,2.0673,2.0702,2.0722,2.0663,2.0654,2.0683,2.0625,2.0625,2.0596,2.0634,2.0615,2.0596,2.0596,2.0596,2.0596,2.0596,2.0596,2.0596,2.0596,2.0596,2.0596,2.0596,2.0596,2.0596,2.0596,2.0596,2.0596,2.0596,2.0596,2.0596,2.0596,2.0596,2.0596,2.0596,2.0596,2.0596,2.0596,2.0596,2.0596,2.0596,2.0596,2.0596,2.0596,2.0596,2.0596,2.0596,2.0596,2.0596,2.0596,2.0596,2.0596,2.0596,2.0596,2.0596,2.0596,2.0596,2.0596,2.0586,2.0586,2.0508,2.0401,2.0245,2.0069,1.9931,1.9627,1.9361,1.9321,1.9292,1.9292,1.9292,1.9292,1.9292,1.9292,1.9292,1.9292,1.9292,1.9292,1.9273,1.9004,1.8665,1.8273,1.7858,1.7392,1.6853,1.6299,1.592,1.5637,1.5409,1.5089,1.4817,1.4636,1.4293,1.3724,1.3561,1.3455,1.3307,1.2875,1.279,1.2705,1.2705,1.2705,1.2705,1.2705,1.2705]},{"header":{"parameterUnit":"m.s-1","parameterCategory":1,"la1":31.0,"la2":29.5877,"lo1":-88.7671,"lo2":-86.6584,"dy":0.0162,"dx":0.0185,"nx":115,"ny":88,"refTime":"2023-05-19T06:00:00:Z","depth":0,"parameterNumber":3,"parameterNumberName":"V-component_of_WINDS"},"data":[0.0,0.0,0.0,0.0,0.0,0.0,0.0,0.0,0.0,0.0,0.0,0.0,0.0,0.0,0.0,0.0,0.0,0.0,0.0,0.0,0.0,0.0,0.0,0.0,0.0,0.0,0.0,0.0,0.0,0.0,0.0,0.0,0.0,0.0,0.0,0.0,0.0,0.0,0.0,0.0,0.0,0.0,0.0,0.0,0.0,0.0,0.0,0.0,0.0,0.0,0.0,0.0,0.0,0.0,0.0,0.0,0.0,0.0,0.0,0.0,0.0,0.0,0.0,0.0,0.0,0.0,0.0,0.0,0.0,0.0,0.0,0.0,0.0,0.0,0.0,0.0,0.0,0.0,0.0,0.0,0.0,0.0,0.0,0.0,0.0,0.0,0.0,0.0,0.0,0.0,0.0,0.0,0.0,0.0,0.0,0.0,0.0,0.0,0.0,0.0,0.0,0.0,0.0,0.0,0.0,0.0,0.0,0.0,0.0,0.0,0.0,0.0,0.0,0.0,0.0,0.0,0.0,0.0,0.0,0.0,0.0,0.0,0.0,0.0,0.0,0.0,0.0,0.0,0.0,0.0,0.0,0.0,0.0,0.0,0.0,0.0,0.0,0.0,0.0,0.0,0.0,0.0,0.0,0.0,0.0,0.0,0.0,0.0,0.0,0.0,0.0,0.0,0.0,0.0,0.0,0.0,0.0,0.0,0.0,0.0,0.0,0.0,0.0,0.0,0.0,0.0,0.0,0.0,0.0,0.0,0.0,0.0,0.0,0.0,0.0,0.0,0.0,0.0,0.0,0.0,0.0,0.0,0.0,0.0,0.0,0.0,0.0,0.0,0.0,0.0,0.0,0.0,0.0,0.0,0.0,0.0,0.0,0.0,0.0,0.0,0.0,0.0,0.0,0.0,0.0,0.0,0.0,0.0,0.0,0.0,0.0,0.0,0.0,0.0,0.0,0.0,0.0,0.0,0.0,0.0,0.0,0.0,0.0,0.0,0.0,0.0,0.0,0.0,0.0,0.0,0.0,0.0,0.0,0.0,0.0,0.0,0.0,0.0,0.0,0.0,0.0,0.0,0.0,0.0,0.0,0.0,0.0,0.0,0.0,0.0,0.0,0.0,0.0,0.0,0.0,0.0,0.0,0.0,0.0,0.0,0.0,0.0,0.0,0.0,0.0,0.0,0.0,0.0,0.0,0.0,0.0,0.0,0.0,0.0,0.0,0.0,0.0,0.0,0.0,0.0,0.0,0.0,0.0,0.0,0.0,0.0,0.0,0.0,0.0,0.0,0.0,0.0,0.0,0.0,0.0,0.0,0.0,0.0,0.0,0.0,0.0,0.0,0.0,0.0,0.0,0.0,0.0,0.0,0.0,0.0,0.0,0.0,0.0,0.0,0.0,0.0,0.0,0.0,0.0,0.0,0.0,0.0,0.0,0.0,0.0,0.0,0.0,0.0,0.0,0.0,0.0,0.0,0.0,0.0,0.0,0.0,0.0,0.0,0.0,0.0,0.0,0.0,0.0,0.0,0.0,0.0,0.0,0.0,0.0,0.0,0.0,0.0,0.0,0.0,0.0,0.0,0.0,0.0,0.0,0.0,0.0,0.0,0.0,0.0,0.0,0.0,0.0,0.0,0.0,0.0,0.0,0.0,0.0,0.0,0.0,0.0,0.0,0.0,0.0,0.0,0.0,0.0,0.0,0.0,0.0,0.0,0.0,0.0,0.0,0.0,0.0,0.0,0.0,0.0,0.0,0.0,0.0,0.0,0.0,0.0,0.0,0.0,0.0,0.0,0.0,0.0,0.0,0.0,0.0,0.0,0.0,0.0,0.0,0.0,0.0,0.0,0.0,0.0,0.0,0.0,0.0,0.0,0.0,0.0,0.0,0.0,0.0,0.0,0.0,0.0,0.0,0.0,0.0,0.0,0.0,0.0,0.0,0.0,0.0,0.0,0.0,0.0,0.0,0.0,0.0,0.0,0.0,0.0,0.0,0.0,0.0,0.0,0.0,0.0,0.0,0.0,0.0,0.0,0.0,0.0,0.0,0.0,0.0,0.0,0.0,0.0,0.0,0.0,0.0,0.0,0.0,0.0,0.0,0.0,0.0,0.0,0.0,0.0,0.0,0.0,0.0,0.0,0.0,0.0,0.0,0.0,0.0,0.0,0.0,0.0,0.0,0.0,0.0,0.0,0.0,0.0,0.0,0.0,0.0,0.0,0.0,0.0,0.0,0.0,0.0,0.0,0.0,0.0,0.0,0.0,0.0,0.0,0.0,0.0,0.0,0.0,0.0,0.0,0.0,0.0,0.0,0.0,0.0,0.0,0.0,0.0,0.0,0.0,0.0,0.0,0.0,0.0,0.0,0.0,0.0,0.0,0.0,0.0,0.0,0.0,0.0,0.0,0.0,0.0,0.0,0.0,0.0,0.0,0.0,0.0,0.0,0.0,0.0,0.0,0.0,0.0,0.0,0.0,0.0,0.0,0.0,0.0,0.0,0.0,0.0,0.0,0.0,0.0,0.0,0.0,0.0,0.0,0.0,0.0,0.0,0.0,0.0,0.0,0.0,0.0,0.0,0.0,0.0,0.0,0.0,0.0,0.0,0.0,0.0,0.0,0.0,0.0,0.0,0.0,0.0,0.0,0.0,0.0,0.0,0.0,0.0,0.0,0.0,0.0,0.0,0.0,0.0,0.0,0.0,0.0,0.0,0.0,0.0,0.0,0.0,0.0,0.0,0.0,0.0,0.0,0.0,0.0,0.0,0.0,0.0,0.0,0.0,0.0,0.0,0.0,0.0,0.0,0.0,0.0,0.0,0.0,0.0,0.0,0.0,0.0,0.0,0.0,0.0,0.0,0.0,0.0,0.0,0.0,0.0,0.0,0.0,0.0,0.0,0.0,0.0,0.0,0.0,0.0,0.0,0.0,0.0,0.0,0.0,0.0,0.0,0.0,0.0,0.0,0.0,0.0,0.0,0.0,0.0,0.0,0.0,0.0,0.0,0.0,0.0,0.0,0.0,0.0,0.0,0.0,0.0,0.0,0.0,0.0,0.0,0.0,0.0,0.0,0.0,0.0,0.0,0.0,0.0,0.0,0.0,0.0,0.0,0.0,0.0,0.0,0.0,0.0,0.0,0.0,0.0,0.0,0.0,0.0,0.0,0.0,0.0,0.0,0.0,0.0,0.0,0.0,0.0,0.0,0.0,0.0,0.0,0.0,0.0,0.0,0.0,0.0,0.0,0.0,0.0,0.0,0.0,0.0,0.0,0.0,0.0,0.0,0.0,0.0,0.0,0.0,0.0,0.0,0.0,0.0,0.0,0.0,0.0,0.0,0.0,0.0,0.0,0.0,0.0,0.0,0.0,0.0,0.0,0.0,0.0,0.0,0.0,0.0,0.0,0.0,0.0,0.0,0.0,0.0,0.0,0.0,0.0,0.0,0.0,0.0,0.0,0.0,0.0,0.0,0.0,0.0,0.0,0.0,0.0,0.0,0.0,0.0,0.0,0.0,0.0,0.0,0.0,0.0,0.0,0.0,0.0,0.0,0.0,0.0,0.0,0.0,0.0,0.0,0.0,0.0,0.0,0.0,0.0,0.0,0.0,0.0,0.0,0.0,0.0,0.0,0.0,0.0,0.0,0.0,0.0,0.0,0.0,0.0,0.0,0.0,0.0,0.0,0.0,0.0,0.0,0.0,0.0,0.0,0.0,0.0,0.0,0.0,0.0,0.0,0.0,0.0,0.0,0.0,0.0,0.0,0.0,0.0,0.0,0.0,0.0,0.0,0.0,0.0,0.0,0.0,0.0,0.0,0.0,0.0,0.0,0.0,0.0,0.0,0.0,0.0,0.0,0.0,0.0,0.0,0.0,0.0,0.0,0.0,0.0,0.0,0.0,0.0,0.0,0.0,0.0,0.0,0.0,0.0,0.0,0.0,0.0,0.0,0.0,0.0,0.0,0.0,0.0,0.0,0.0,0.0,0.0,0.0,0.0,0.0,0.0,0.0,0.0,0.0,0.0,0.0,0.0,0.0,0.0,0.0,0.0,0.0,0.0,0.0,0.0,0.0,0.0,0.0,0.0,0.0,0.0,0.0,0.0,0.0,0.0,0.0,0.0,0.0,0.0,0.0,0.0,0.0,0.0,0.0,0.0,0.0,0.0,0.0,0.0,0.0,0.0,0.0,0.0,0.0,0.0,0.0,0.0,0.0,0.0,0.0,0.0,0.0,0.0,0.0,0.0,0.0,0.0,0.0,0.0,0.0,0.0,0.0,0.0,0.0,2.3805,0.0,0.0,0.0,0.0,0.0,0.0,0.0,0.0,0.0,0.0,0.0,0.0,0.0,0.0,0.0,0.0,0.0,0.0,0.0,0.0,0.0,0.0,0.0,0.0,0.0,0.0,0.0,0.0,0.0,0.0,0.0,0.0,0.0,0.0,0.0,0.0,0.0,0.0,0.0,0.0,0.0,0.0,0.0,0.0,0.0,0.0,0.0,0.0,0.0,0.0,0.0,0.0,0.0,0.0,0.0,0.0,0.0,0.0,0.0,0.0,0.0,0.0,0.0,0.0,0.0,0.0,0.0,0.0,0.0,0.0,0.0,0.0,0.0,0.0,0.0,0.0,0.0,0.0,0.0,0.0,0.0,0.0,0.0,0.0,0.0,0.0,0.0,0.0,0.0,0.0,0.0,0.0,0.0,0.0,0.0,0.0,0.0,0.0,0.0,0.0,0.0,0.0,0.0,0.0,0.0,0.0,0.0,0.0,0.0,0.0,2.3584,2.3595,2.3814,2.3824,2.3638,0.0,0.0,0.0,0.0,0.0,0.0,0.0,0.0,0.0,0.0,0.0,0.0,0.0,0.0,0.0,0.0,0.0,0.0,0.0,0.0,0.0,0.0,0.0,0.0,0.0,0.0,0.0,0.0,0.0,0.0,0.0,0.0,0.0,0.0,0.0,0.0,0.0,0.0,0.0,0.0,0.0,0.0,0.0,0.0,0.0,0.0,0.0,0.0,0.0,0.0,0.0,0.0,0.0,0.0,0.0,0.0,0.0,0.0,0.0,0.0,0.0,0.0,0.0,0.0,0.0,0.0,0.0,0.0,0.0,0.0,0.0,0.0,0.0,0.0,0.0,0.0,0.0,0.0,0.0,0.0,0.0,0.0,0.0,0.0,0.0,0.0,0.0,0.0,0.0,0.0,0.0,0.0,0.0,0.0,0.0,0.0,0.0,0.0,0.0,0.0,0.0,0.0,0.0,0.0,0.0,0.0,0.0,0.0,0.0,0.0,0.0,0.0,2.3584,2.3681,2.3841,0.0,0.0,0.0,0.0,0.0,0.0,0.0,0.0,0.0,0.0,0.0,0.0,0.0,0.0,0.0,0.0,0.0,0.0,0.0,0.0,0.0,0.0,0.0,0.0,0.0,0.0,0.0,0.0,0.0,0.0,0.0,0.0,0.0,0.0,0.0,0.0,0.0,0.0,0.0,0.0,0.0,0.0,0.0,0.0,0.0,0.0,0.0,0.0,0.0,0.0,0.0,0.0,0.0,0.0,0.0,0.0,0.0,0.0,0.0,0.0,0.0,0.0,0.0,0.0,0.0,0.0,0.0,0.0,0.0,0.0,0.0,0.0,0.0,0.0,0.0,0.0,0.0,0.0,0.0,0.0,0.0,0.0,0.0,0.0,0.0,0.0,0.0,0.0,0.0,0.0,0.0,0.0,0.0,0.0,0.0,0.0,0.0,0.0,0.0,0.0,0.0,0.0,0.0,0.0,0.0,0.0,0.0,0.0,0.0,0.0,2.3584,2.3584,2.3584,0.0,2.4502,0.0,0.0,0.0,0.0,0.0,0.0,0.0,0.0,0.0,0.0,0.0,0.0,0.0,0.0,0.0,0.0,0.0,0.0,0.0,0.0,0.0,0.0,0.0,0.0,0.0,0.0,0.0,0.0,0.0,0.0,0.0,0.0,0.0,0.0,0.0,0.0,0.0,0.0,0.0,0.0,0.0,0.0,0.0,0.0,0.0,0.0,0.0,0.0,0.0,0.0,0.0,0.0,0.0,0.0,0.0,0.0,0.0,0.0,0.0,0.0,0.0,0.0,0.0,0.0,0.0,0.0,0.0,0.0,0.0,0.0,0.0,0.0,0.0,0.0,0.0,0.0,0.0,0.0,0.0,0.0,0.0,0.0,0.0,0.0,0.0,0.0,0.0,0.0,0.0,0.0,0.0,0.0,0.0,0.0,0.0,0.0,0.0,0.0,0.0,0.0,0.0,0.0,0.0,0.0,0.0,0.0,0.0,0.0,0.0,0.0,2.3584,2.3584,2.3584,2.3724,0.0,0.0,0.0,0.0,0.0,0.0,0.0,0.0,0.0,0.0,0.0,0.0,0.0,0.0,0.0,0.0,0.0,0.0,0.0,0.0,0.0,0.0,0.0,0.0,0.0,0.0,0.0,0.0,0.0,0.0,0.0,0.0,0.0,0.0,0.0,0.0,0.0,0.0,0.0,0.0,0.0,0.0,0.0,0.0,0.0,0.0,0.0,0.0,0.0,0.0,0.0,0.0,0.0,0.0,0.0,0.0,0.0,0.0,0.0,0.0,0.0,0.0,0.0,0.0,0.0,0.0,0.0,0.0,0.0,0.0,0.0,0.0,0.0,0.0,0.0,0.0,0.0,0.0,0.0,0.0,0.0,0.0,0.0,0.0,0.0,0.0,0.0,0.0,0.0,0.0,0.0,0.0,0.0,0.0,0.0,0.0,0.0,0.0,0.0,0.0,0.0,0.0,0.0,0.0,0.0,0.0,0.0,0.0,0.0,0.0,2.3584,2.3584,2.3595,2.3728,2.3852,2.397,0.0,0.0,0.0,0.0,0.0,0.0,0.0,0.0,0.0,0.0,0.0,0.0,0.0,0.0,0.0,0.0,0.0,0.0,0.0,0.0,0.0,0.0,0.0,0.0,0.0,0.0,0.0,0.0,0.0,0.0,0.0,0.0,0.0,0.0,0.0,0.0,0.0,0.0,0.0,0.0,0.0,0.0,0.0,0.0,0.0,0.0,0.0,0.0,0.0,0.0,0.0,0.0,0.0,0.0,0.0,0.0,0.0,0.0,0.0,0.0,0.0,0.0,0.0,0.0,0.0,0.0,0.0,0.0,0.0,0.0,0.0,0.0,0.0,0.0,0.0,0.0,0.0,0.0,0.0,0.0,0.0,0.0,0.0,0.0,0.0,0.0,0.0,0.0,0.0,0.0,0.0,0.0,0.0,0.0,0.0,0.0,0.0,0.0,0.0,0.0,0.0,0.0,0.0,0.0,0.0,0.0,0.0,0.0,2.3584,2.3584,2.3584,2.3606,2.4036,2.4477,0.0,0.0,0.0,0.0,0.0,0.0,0.0,0.0,0.0,0.0,0.0,0.0,0.0,0.0,0.0,0.0,0.0,0.0,0.0,0.0,0.0,0.0,0.0,0.0,0.0,0.0,0.0,0.0,0.0,0.0,0.0,0.0,0.0,0.0,0.0,0.0,0.0,0.0,0.0,0.0,0.0,0.0,0.0,0.0,0.0,0.0,0.0,0.0,0.0,0.0,0.0,0.0,0.0,0.0,0.0,0.0,0.0,0.0,0.0,0.0,0.0,0.0,0.0,0.0,0.0,0.0,0.0,0.0,0.0,0.0,0.0,0.0,0.0,0.0,0.0,0.0,0.0,0.0,0.0,0.0,0.0,0.0,0.0,0.0,0.0,0.0,0.0,0.0,0.0,0.0,0.0,0.0,0.0,0.0,0.0,0.0,0.0,0.0,0.0,0.0,0.0,0.0,0.0,0.0,0.0,0.0,0.0,0.0,0.0,2.3584,2.3584,2.3584,2.3606,2.4047,2.4374,0.0,0.0,0.0,0.0,0.0,0.0,0.0,0.0,0.0,0.0,0.0,0.0,0.0,0.0,0.0,0.0,0.0,0.0,0.0,0.0,0.0,0.0,0.0,0.0,0.0,0.0,0.0,0.0,0.0,0.0,0.0,0.0,0.0,0.0,0.0,0.0,0.0,0.0,0.0,0.0,0.0,0.0,0.0,0.0,0.0,0.0,0.0,0.0,0.0,0.0,0.0,0.0,0.0,0.0,0.0,0.0,0.0,0.0,0.0,0.0,0.0,0.0,0.0,0.0,0.0,0.0,0.0,0.0,0.0,0.0,0.0,0.0,0.0,0.0,0.0,0.0,0.0,0.0,0.0,0.0,0.0,0.0,0.0,0.0,0.0,0.0,0.0,0.0,0.0,0.0,0.0,0.0,0.0,0.0,0.0,0.0,0.0,0.0,0.0,0.0,0.0,0.0,0.0,0.0,0.0,0.0,0.0,0.0,0.0,2.3584,0.0,2.3584,0.0,2.3909,2.4156,0.0,0.0,0.0,0.0,0.0,0.0,0.0,0.0,0.0,0.0,0.0,0.0,0.0,0.0,0.0,0.0,0.0,0.0,0.0,0.0,0.0,0.0,0.0,0.0,0.0,0.0,0.0,0.0,0.0,0.0,0.0,0.0,0.0,0.0,0.0,0.0,0.0,0.0,0.0,0.0,0.0,0.0,0.0,0.0,0.0,0.0,0.0,0.0,0.0,0.0,0.0,0.0,0.0,0.0,0.0,0.0,0.0,0.0,0.0,0.0,0.0,0.0,0.0,0.0,0.0,0.0,0.0,0.0,0.0,0.0,0.0,0.0,0.0,0.0,0.0,0.0,0.0,0.0,0.0,0.0,0.0,0.0,0.0,0.0,0.0,0.0,0.0,0.0,0.0,0.0,0.0,0.0,0.0,0.0,0.0,0.0,0.0,0.0,0.0,0.0,0.0,0.0,0.0,0.0,0.0,0.0,0.0,0.0,2.3584,2.3584,2.3584,2.3584,2.3584,2.3627,2.3846,0.0,0.0,0.0,0.0,0.0,0.0,0.0,0.0,0.0,0.0,0.0,0.0,0.0,0.0,0.0,0.0,0.0,0.0,0.0,0.0,0.0,0.0,0.0,0.0,0.0,0.0,0.0,0.0,0.0,0.0,0.0,0.0,0.0,0.0,0.0,0.0,0.0,0.0,0.0,0.0,0.0,0.0,0.0,0.0,0.0,0.0,0.0,0.0,0.0,0.0,0.0,0.0,0.0,0.0,0.0,0.0,0.0,0.0,0.0,0.0,0.0,0.0,0.0,0.0,0.0,0.0,0.0,0.0,0.0,0.0,0.0,0.0,0.0,0.0,0.0,0.0,0.0,0.0,0.0,0.0,0.0,0.0,0.0,0.0,0.0,0.0,0.0,0.0,0.0,0.0,0.0,0.0,0.0,0.0,0.0,0.0,0.0,0.0,0.0,0.0,0.0,0.0,0.0,0.0,0.0,0.0,0.0,0.0,0.0,2.3584,2.3584,2.3584,2.3606,2.392,2.4156,0.0,0.0,0.0,0.0,0.0,0.0,0.0,0.0,0.0,0.0,0.0,0.0,0.0,0.0,0.0,0.0,0.0,0.0,0.0,0.0,0.0,0.0,0.0,0.0,0.0,0.0,0.0,0.0,0.0,0.0,0.0,0.0,0.0,0.0,0.0,0.0,0.0,0.0,0.0,0.0,0.0,0.0,0.0,0.0,0.0,0.0,0.0,0.0,0.0,0.0,0.0,0.0,0.0,0.0,0.0,0.0,0.0,0.0,0.0,0.0,0.0,0.0,0.0,0.0,0.0,0.0,0.0,0.0,0.0,0.0,0.0,0.0,0.0,0.0,0.0,0.0,0.0,0.0,0.0,0.0,0.0,0.0,0.0,0.0,0.0,0.0,0.0,0.0,0.0,0.0,0.0,0.0,0.0,0.0,0.0,0.0,0.0,0.0,0.0,0.0,0.0,0.0,0.0,0.0,0.0,0.0,0.0,0.0,0.0,2.3584,2.3584,2.3584,2.3584,2.3878,2.4026,2.4047,0.0,0.0,0.0,0.0,0.0,0.0,0.0,0.0,0.0,0.0,0.0,0.0,0.0,0.0,0.0,0.0,0.0,0.0,0.0,0.0,0.0,0.0,0.0,0.0,0.0,0.0,0.0,0.0,0.0,0.0,0.0,0.0,0.0,0.0,0.0,0.0,0.0,0.0,0.0,0.0,0.0,0.0,0.0,0.0,0.0,0.0,0.0,0.0,0.0,0.0,0.0,0.0,0.0,0.0,0.0,0.0,0.0,0.0,0.0,0.0,0.0,0.0,0.0,0.0,0.0,0.0,0.0,0.0,0.0,0.0,0.0,0.0,0.0,0.0,0.0,0.0,0.0,0.0,0.0,0.0,0.0,0.0,0.0,0.0,0.0,0.0,0.0,0.0,0.0,0.0,0.0,0.0,0.0,0.0,0.0,0.0,0.0,0.0,0.0,0.0,0.0,0.0,0.0,0.0,0.0,0.0,0.0,0.0,2.3584,2.364,2.364,2.3584,2.3595,2.3595,0.0,0.0,0.0,0.0,0.0,0.0,0.0,0.0,0.0,0.0,0.0,0.0,0.0,0.0,0.0,0.0,0.0,0.0,0.0,0.0,0.0,0.0,0.0,0.0,0.0,0.0,0.0,0.0,0.0,0.0,0.0,0.0,0.0,0.0,0.0,0.0,0.0,0.0,0.0,0.0,0.0,0.0,0.0,0.0,0.0,0.0,0.0,0.0,0.0,0.0,0.0,0.0,0.0,0.0,0.0,0.0,0.0,0.0,0.0,0.0,0.0,0.0,0.0,0.0,0.0,0.0,0.0,0.0,0.0,0.0,0.0,0.0,0.0,0.0,0.0,0.0,0.0,0.0,0.0,0.0,0.0,0.0,0.0,0.0,0.0,0.0,0.0,0.0,0.0,0.0,0.0,0.0,0.0,0.0,0.0,0.0,0.0,0.0,0.0,0.0,0.0,0.0,0.0,0.0,0.0,0.0,0.0,0.0,0.0,2.3599,2.4092,2.4092,2.3614,2.3584,2.3638,0.0,0.0,0.0,0.0,0.0,0.0,0.0,0.0,0.0,0.0,0.0,0.0,0.0,0.0,0.0,0.0,0.0,0.0,0.0,0.0,0.0,0.0,0.0,0.0,0.0,0.0,0.0,0.0,0.0,0.0,0.0,0.0,0.0,0.0,0.0,0.0,0.0,0.0,0.0,0.0,0.0,0.0,0.0,0.0,0.0,0.0,0.0,0.0,0.0,0.0,0.0,0.0,0.0,0.0,0.0,0.0,0.0,0.0,0.0,0.0,0.0,0.0,0.0,0.0,0.0,0.0,0.0,0.0,0.0,0.0,0.0,0.0,0.0,0.0,0.0,0.0,0.0,0.0,0.0,0.0,0.0,0.0,0.0,0.0,0.0,0.0,0.0,0.0,0.0,0.0,0.0,0.0,0.0,0.0,0.0,0.0,0.0,0.0,0.0,0.0,0.0,0.0,0.0,0.0,0.0,0.0,0.0,0.0,2.4448,2.4448,2.4825,2.4863,2.4522,2.447,2.4581,0.0,0.0,0.0,0.0,0.0,0.0,0.0,0.0,0.0,0.0,0.0,0.0,0.0,0.0,0.0,0.0,0.0,0.0,0.0,0.0,0.0,0.0,0.0,0.0,0.0,0.0,0.0,0.0,0.0,0.0,0.0,0.0,0.0,0.0,0.0,0.0,0.0,0.0,0.0,0.0,0.0,0.0,0.0,0.0,0.0,0.0,0.0,0.0,0.0,0.0,0.0,0.0,0.0,0.0,0.0,0.0,0.0,0.0,0.0,0.0,0.0,0.0,0.0,0.0,0.0,0.0,0.0,0.0,0.0,0.0,0.0,0.0,0.0,0.0,0.0,0.0,0.0,0.0,0.0,0.0,0.0,0.0,0.0,0.0,0.0,0.0,0.0,0.0,0.0,0.0,0.0,0.0,0.0,0.0,0.0,0.0,0.0,0.0,0.0,0.0,0.0,0.0,0.0,0.0,0.0,0.0,0.0,0.0,2.56,2.56,2.5663,2.5763,2.5861,2.57,2.5879,0.0,0.0,0.0,0.0,0.0,0.0,0.0,0.0,0.0,0.0,0.0,0.0,0.0,0.0,0.0,0.0,0.0,0.0,0.0,0.0,0.0,0.0,0.0,0.0,0.0,0.0,0.0,0.0,0.0,0.0,0.0,0.0,0.0,0.0,0.0,0.0,0.0,0.0,0.0,0.0,0.0,0.0,0.0,0.0,0.0,0.0,0.0,0.0,0.0,0.0,0.0,0.0,0.0,0.0,0.0,0.0,0.0,0.0,0.0,0.0,0.0,0.0,0.0,0.0,0.0,0.0,0.0,0.0,0.0,0.0,0.0,0.0,0.0,0.0,0.0,0.0,0.0,0.0,0.0,0.0,0.0,0.0,0.0,0.0,0.0,0.0,0.0,0.0,0.0,0.0,0.0,0.0,0.0,0.0,0.0,0.0,0.0,0.0,0.0,0.0,0.0,0.0,0.0,0.0,0.0,0.0,0.0,0.0,2.56,2.5603,2.6123,2.6402,2.6438,2.5999,2.6066,0.0,0.0,0.0,0.0,0.0,0.0,0.0,0.0,0.0,0.0,0.0,0.0,0.0,0.0,0.0,0.0,0.0,0.0,0.0,0.0,0.0,0.0,0.0,0.0,0.0,0.0,0.0,0.0,0.0,0.0,0.0,0.0,0.0,0.0,0.0,0.0,0.0,0.0,0.0,0.0,0.0,0.0,0.0,0.0,0.0,0.0,0.0,0.0,3.5728,0.0,0.0,0.0,0.0,0.0,0.0,0.0,0.0,0.0,0.0,0.0,0.0,0.0,0.0,0.0,0.0,0.0,0.0,0.0,0.0,0.0,0.0,0.0,0.0,0.0,0.0,0.0,0.0,0.0,0.0,0.0,0.0,0.0,0.0,0.0,0.0,0.0,0.0,0.0,0.0,0.0,0.0,0.0,0.0,0.0,0.0,0.0,0.0,0.0,0.0,0.0,0.0,0.0,0.0,0.0,0.0,0.0,0.0,0.0,2.6539,2.6542,2.6896,2.7088,2.715,2.6892,2.7121,0.0,0.0,0.0,0.0,0.0,0.0,0.0,0.0,0.0,0.0,0.0,0.0,0.0,0.0,0.0,0.0,0.0,0.0,0.0,0.0,0.0,0.0,0.0,0.0,0.0,0.0,0.0,0.0,0.0,0.0,0.0,0.0,0.0,0.0,0.0,0.0,0.0,0.0,0.0,0.0,0.0,0.0,0.0,0.0,0.0,0.0,0.0,0.0,0.0,0.0,0.0,0.0,0.0,0.0,0.0,0.0,0.0,0.0,0.0,0.0,0.0,0.0,0.0,0.0,0.0,0.0,0.0,0.0,0.0,0.0,0.0,0.0,0.0,0.0,0.0,0.0,0.0,0.0,0.0,0.0,0.0,0.0,0.0,0.0,0.0,0.0,0.0,0.0,0.0,0.0,0.0,0.0,0.0,0.0,0.0,0.0,0.0,0.0,0.0,0.0,0.0,0.0,0.0,0.0,0.0,0.0,0.0,2.7255,2.7585,2.7585,2.7585,2.765,2.7765,2.7765,2.8128,2.8919,0.0,0.0,0.0,0.0,0.0,0.0,0.0,0.0,0.0,0.0,0.0,0.0,0.0,0.0,0.0,0.0,0.0,0.0,0.0,0.0,0.0,0.0,0.0,0.0,0.0,0.0,0.0,0.0,0.0,0.0,0.0,0.0,0.0,0.0,0.0,0.0,0.0,0.0,3.3474,3.4748,0.0,0.0,0.0,0.0,0.0,0.0,0.0,0.0,3.6366,0.0,0.0,0.0,0.0,0.0,0.0,0.0,0.0,0.0,0.0,0.0,0.0,0.0,0.0,0.0,0.0,0.0,0.0,0.0,0.0,0.0,0.0,0.0,0.0,0.0,0.0,0.0,0.0,0.0,0.0,0.0,0.0,0.0,0.0,0.0,0.0,0.0,0.0,0.0,0.0,0.0,0.0,0.0,0.0,0.0,0.0,0.0,0.0,0.0,0.0,0.0,0.0,0.0,0.0,0.0,0.0,2.6614,2.7255,2.7585,2.7585,2.7585,2.7612,2.7638,2.7625,2.787,2.8424,0.0,0.0,0.0,0.0,0.0,0.0,0.0,0.0,0.0,0.0,0.0,0.0,0.0,0.0,0.0,0.0,0.0,0.0,0.0,0.0,0.0,0.0,0.0,0.0,0.0,0.0,0.0,0.0,0.0,0.0,0.0,0.0,0.0,0.0,0.0,0.0,0.0,0.0,0.0,3.5053,3.5628,0.0,0.0,0.0,0.0,0.0,0.0,0.0,0.0,3.7235,0.0,0.0,0.0,0.0,0.0,0.0,0.0,0.0,0.0,0.0,0.0,0.0,0.0,0.0,0.0,0.0,0.0,0.0,0.0,0.0,0.0,0.0,0.0,0.0,0.0,0.0,0.0,0.0,0.0,0.0,0.0,0.0,0.0,0.0,0.0,0.0,0.0,0.0,0.0,0.0,0.0,0.0,0.0,0.0,0.0,0.0,0.0,0.0,0.0,0.0,0.0,0.0,0.0,0.0,0.0,2.7136,2.7513,2.7703,2.77,2.7715,2.7715,2.7715,2.7638,2.7845,0.0,0.0,0.0,0.0,0.0,0.0,0.0,0.0,0.0,0.0,0.0,0.0,0.0,0.0,0.0,0.0,0.0,0.0,0.0,0.0,0.0,0.0,0.0,0.0,0.0,0.0,0.0,0.0,0.0,0.0,0.0,0.0,0.0,0.0,0.0,0.0,0.0,0.0,0.0,0.0,3.538,3.5628,3.5628,0.0,0.0,0.0,0.0,0.0,0.0,3.7444,3.8188,0.0,0.0,0.0,0.0,0.0,0.0,0.0,0.0,0.0,0.0,0.0,0.0,0.0,0.0,0.0,0.0,0.0,0.0,0.0,0.0,0.0,0.0,0.0,0.0,0.0,0.0,0.0,0.0,0.0,0.0,0.0,0.0,0.0,0.0,0.0,0.0,0.0,0.0,0.0,0.0,0.0,0.0,0.0,0.0,0.0,0.0,0.0,0.0,0.0,0.0,0.0,0.0,0.0,0.0,0.0,2.76,2.7715,2.7765,2.7765,2.7765,2.7738,2.7765,2.765,2.7872,0.0,0.0,0.0,0.0,0.0,0.0,0.0,0.0,0.0,0.0,0.0,0.0,0.0,0.0,0.0,0.0,0.0,0.0,0.0,0.0,0.0,0.0,0.0,0.0,0.0,0.0,0.0,0.0,0.0,0.0,0.0,0.0,0.0,0.0,0.0,0.0,0.0,0.0,0.0,0.0,0.0,3.5611,3.5622,3.5622,0.0,0.0,0.0,0.0,3.719,3.8239,0.0,0.0,0.0,0.0,0.0,0.0,0.0,0.0,0.0,0.0,0.0,0.0,0.0,0.0,0.0,0.0,0.0,0.0,0.0,0.0,0.0,0.0,0.0,0.0,0.0,0.0,0.0,0.0,0.0,0.0,0.0,0.0,0.0,0.0,0.0,0.0,0.0,0.0,0.0,0.0,0.0,0.0,0.0,0.0,0.0,0.0,0.0,0.0,0.0,0.0,0.0,0.0,0.0,0.0,0.0,0.0,2.7585,2.7625,2.7625,2.7625,2.7625,2.7625,2.764,2.7612,2.7832,0.0,0.0,0.0,0.0,0.0,0.0,0.0,0.0,0.0,0.0,0.0,0.0,0.0,0.0,0.0,0.0,0.0,0.0,0.0,0.0,0.0,0.0,0.0,0.0,0.0,0.0,0.0,0.0,0.0,0.0,0.0,0.0,0.0,0.0,0.0,0.0,0.0,0.0,0.0,0.0,0.0,3.5644,3.5762,3.5667,3.5881,0.0,0.0,0.0,3.8543,3.8899,0.0,0.0,0.0,0.0,0.0,0.0,0.0,0.0,0.0,0.0,0.0,0.0,0.0,0.0,0.0,0.0,0.0,0.0,0.0,0.0,0.0,0.0,0.0,0.0,0.0,0.0,0.0,0.0,0.0,0.0,0.0,0.0,0.0,0.0,0.0,0.0,0.0,0.0,0.0,0.0,0.0,0.0,0.0,0.0,0.0,0.0,0.0,0.0,0.0,0.0,0.0,0.0,0.0,0.0,0.0,2.7585,2.7597,2.7931,2.7981,2.774,2.7984,2.7996,2.77,2.7638,2.782,0.0,0.0,0.0,0.0,0.0,0.0,0.0,0.0,0.0,0.0,0.0,0.0,0.0,0.0,0.0,0.0,0.0,0.0,0.0,0.0,0.0,0.0,0.0,0.0,0.0,0.0,0.0,0.0,0.0,0.0,0.0,0.0,0.0,0.0,0.0,0.0,0.0,0.0,0.0,0.0,0.0,0.0,3.5678,3.6073,0.0,0.0,0.0,3.8362,3.8911,0.0,0.0,0.0,0.0,0.0,0.0,0.0,0.0,0.0,0.0,0.0,0.0,0.0,0.0,0.0,0.0,0.0,0.0,0.0,0.0,0.0,0.0,0.0,0.0,0.0,0.0,0.0,0.0,0.0,0.0,0.0,0.0,0.0,0.0,0.0,0.0,0.0,0.0,0.0,0.0,0.0,0.0,0.0,0.0,0.0,0.0,0.0,0.0,0.0,0.0,0.0,0.0,0.0,0.0,0.0,0.0,0.0,2.7785,2.8104,2.8165,2.7949,2.8324,2.8366,2.8009,2.807,0.0,0.0,0.0,0.0,0.0,0.0,0.0,0.0,0.0,0.0,0.0,0.0,0.0,0.0,0.0,0.0,0.0,0.0,0.0,0.0,0.0,0.0,0.0,0.0,0.0,0.0,0.0,3.119,0.0,0.0,0.0,0.0,0.0,0.0,0.0,0.0,0.0,0.0,0.0,0.0,0.0,0.0,3.5778,3.5865,3.6474,3.7024,0.0,0.0,3.9292,3.9365,3.9919,4.0313,0.0,0.0,0.0,0.0,0.0,0.0,0.0,0.0,0.0,0.0,0.0,0.0,0.0,0.0,0.0,0.0,0.0,0.0,0.0,0.0,0.0,0.0,0.0,0.0,0.0,0.0,0.0,0.0,0.0,0.0,0.0,0.0,0.0,0.0,0.0,0.0,0.0,0.0,0.0,0.0,0.0,0.0,0.0,0.0,0.0,0.0,0.0,0.0,0.0,0.0,0.0,0.0,0.0,0.0,0.0,2.8231,2.787,2.7885,2.8247,2.848,2.8584,2.856,2.9142,2.9916,0.0,0.0,0.0,0.0,0.0,0.0,0.0,0.0,0.0,0.0,0.0,0.0,0.0,0.0,0.0,0.0,0.0,0.0,0.0,0.0,0.0,0.0,0.0,0.0,0.0,0.0,0.0,0.0,0.0,0.0,0.0,0.0,0.0,0.0,0.0,0.0,0.0,0.0,0.0,0.0,0.0,3.5854,3.6535,3.682,3.7433,0.0,0.0,3.9614,4.0297,4.0434,4.0485,4.0468,0.0,0.0,0.0,0.0,0.0,0.0,0.0,0.0,0.0,0.0,0.0,0.0,0.0,0.0,0.0,0.0,0.0,0.0,0.0,0.0,0.0,0.0,0.0,0.0,0.0,0.0,0.0,0.0,0.0,0.0,0.0,0.0,0.0,0.0,0.0,0.0,0.0,0.0,0.0,0.0,0.0,0.0,0.0,0.0,0.0,0.0,0.0,0.0,0.0,0.0,0.0,0.0,0.0,2.7883,2.848,2.8594,2.895,2.9573,2.9936,2.9986,2.9709,2.9968,3.026,0.0,0.0,0.0,0.0,0.0,0.0,0.0,0.0,0.0,0.0,0.0,0.0,0.0,0.0,0.0,0.0,0.0,0.0,0.0,0.0,0.0,0.0,0.0,0.0,0.0,0.0,0.0,0.0,3.119,3.1369,3.1836,0.0,0.0,0.0,0.0,0.0,0.0,0.0,0.0,0.0,0.0,3.6627,3.7603,3.8028,0.0,0.0,4.035,4.0758,4.1235,4.1128,4.0955,4.0879,4.0669,0.0,0.0,0.0,0.0,0.0,0.0,0.0,0.0,0.0,0.0,0.0,0.0,0.0,0.0,0.0,0.0,0.0,0.0,0.0,0.0,0.0,0.0,0.0,0.0,0.0,0.0,0.0,0.0,0.0,0.0,0.0,0.0,0.0,0.0,0.0,0.0,0.0,0.0,0.0,0.0,0.0,0.0,0.0,0.0,0.0,0.0,0.0,0.0,0.0,0.0,0.0,0.0,2.8668,2.9595,2.9455,2.98,3.0599,3.0814,3.0861,3.0724,3.0896,3.1135,0.0,0.0,0.0,0.0,0.0,0.0,0.0,0.0,0.0,0.0,0.0,0.0,0.0,0.0,0.0,0.0,0.0,0.0,0.0,0.0,0.0,0.0,0.0,0.0,0.0,0.0,0.0,0.0,3.1403,3.1826,3.2554,0.0,0.0,0.0,0.0,0.0,0.0,0.0,0.0,0.0,0.0,3.7567,3.8537,3.9186,3.9893,4.0836,4.1188,4.1481,4.1853,4.1602,4.1388,4.1426,0.0,0.0,0.0,0.0,0.0,0.0,0.0,0.0,0.0,0.0,0.0,0.0,0.0,0.0,0.0,0.0,0.0,0.0,0.0,0.0,0.0,0.0,0.0,0.0,0.0,0.0,0.0,0.0,0.0,0.0,0.0,0.0,0.0,0.0,0.0,0.0,0.0,0.0,0.0,0.0,0.0,0.0,0.0,0.0,0.0,0.0,0.0,0.0,0.0,0.0,0.0,0.0,0.0,0.0,3.1837,3.0364,3.0121,3.1073,3.0729,3.0864,3.1393,3.2025,3.2864,3.3932,0.0,0.0,0.0,0.0,0.0,0.0,0.0,0.0,0.0,0.0,0.0,0.0,0.0,0.0,0.0,0.0,0.0,0.0,0.0,0.0,0.0,0.0,0.0,0.0,0.0,0.0,3.1309,3.186,3.2554,0.0,0.0,0.0,0.0,0.0,0.0,0.0,0.0,0.0,0.0,3.7904,3.8591,3.9227,4.0213,4.1016,4.1522,4.1558,4.167,4.2146,4.1821,4.1666,0.0,0.0,0.0,0.0,0.0,0.0,0.0,0.0,0.0,0.0,0.0,0.0,0.0,0.0,0.0,0.0,0.0,0.0,0.0,0.0,0.0,0.0,0.0,0.0,0.0,0.0,0.0,2.3803,2.3054,0.0,0.0,0.0,0.0,0.0,0.0,0.0,0.0,0.0,0.0,0.0,2.7255,2.727,0.0,0.0,0.0,0.0,0.0,0.0,0.0,0.0,0.0,0.0,0.0,0.0,3.0422,3.0955,3.087,3.1336,3.2458,3.2753,3.3002,3.3198,3.3405,3.3716,3.4075,0.0,0.0,0.0,0.0,0.0,0.0,0.0,0.0,0.0,0.0,0.0,0.0,0.0,0.0,0.0,0.0,0.0,0.0,0.0,0.0,0.0,0.0,0.0,0.0,0.0,3.2412,0.0,0.0,0.0,0.0,0.0,0.0,0.0,0.0,0.0,0.0,0.0,3.707,3.8322,3.8552,3.9255,4.1044,4.1334,4.1721,0.0,0.0,0.0,0.0,0.0,0.0,0.0,0.0,0.0,0.0,0.0,0.0,0.0,0.0,4.3214,4.3384,4.341,4.341,4.341,0.0,0.0,0.0,0.0,0.0,0.0,0.0,0.0,0.0,0.0,0.0,0.0,0.0,0.0,0.0,0.0,2.5184,0.0,0.0,0.0,0.0,0.0,0.0,0.0,0.0,2.739,2.7585,2.76,2.7839,2.7946,0.0,2.8199,2.8304,0.0,0.0,0.0,0.0,0.0,0.0,0.0,0.0,3.1479,3.1742,3.1933,3.251,3.3472,3.3668,3.3879,3.4101,3.4288,3.4374,3.4374,3.4386,3.4374,0.0,0.0,0.0,0.0,0.0,0.0,0.0,0.0,0.0,0.0,0.0,0.0,0.0,0.0,0.0,0.0,0.0,0.0,0.0,0.0,0.0,0.0,0.0,3.3078,0.0,0.0,0.0,0.0,0.0,0.0,0.0,0.0,0.0,3.6471,3.6991,3.7777,3.9003,3.9616,4.0518,4.208,0.0,0.0,0.0,0.0,0.0,0.0,0.0,4.2966,4.3096,4.2855,4.2751,4.3059,4.3312,4.3488,4.3488,0.0,0.0,4.3488,4.3488,4.3488,4.3488,4.3488,4.3488,4.3488,4.3488,4.3488,0.0,0.0,0.0,0.0,0.0,0.0,0.0,0.0,2.5252,2.5524,0.0,2.6317,0.0,0.0,0.0,0.0,0.0,0.0,0.0,0.0,2.7657,2.7657,2.7735,2.8336,2.8637,2.8682,2.9264,2.9592,2.9578,2.8979,0.0,0.0,0.0,0.0,0.0,0.0,3.3488,3.3955,3.3485,3.3501,3.4047,3.3566,3.3553,3.4126,3.4635,3.4899,3.4899,3.4887,3.4899,3.4911,3.4899,0.0,0.0,0.0,0.0,0.0,0.0,0.0,0.0,0.0,0.0,0.0,0.0,0.0,0.0,0.0,0.0,0.0,0.0,0.0,0.0,3.3446,0.0,0.0,0.0,0.0,0.0,0.0,0.0,0.0,0.0,0.0,3.6826,3.7768,3.873,3.936,0.0,0.0,0.0,0.0,4.3488,4.3488,4.316,4.3068,4.3436,4.3169,4.3068,4.3445,0.0,0.0,4.3488,4.3488,4.3488,4.3488,4.3488,4.3488,4.3488,4.3488,4.3488,4.3488,4.3488,4.3488,4.3488,4.3488,4.3488,2.64,0.0,0.0,0.0,0.0,2.6409,2.6484,2.6659,2.6712,2.6802,2.6954,2.7152,0.0,0.0,0.0,0.0,0.0,0.0,2.7869,2.8306,2.8321,2.8575,2.9024,2.9219,2.9309,2.9324,2.9517,2.9832,3.0223,3.0058,3.0058,3.0252,0.0,0.0,0.0,0.0,3.329,3.3475,3.371,3.3933,3.4088,3.4292,3.4488,3.4667,3.4811,3.4911,3.4911,3.4911,3.4947,3.5029,3.4947,0.0,0.0,0.0,0.0,0.0,0.0,0.0,0.0,0.0,0.0,0.0,0.0,0.0,0.0,0.0,0.0,0.0,0.0,0.0,3.4134,3.4664,3.5176,0.0,0.0,0.0,0.0,0.0,0.0,0.0,0.0,0.0,3.8101,3.8411,3.9346,0.0,0.0,4.2202,4.3031,4.3359,4.3488,4.3488,0.0,0.0,0.0,4.3419,4.3366,4.3479,4.3488,4.3488,4.3488,4.3488,4.3488,4.3488,4.3488,4.3488,4.3488,4.3488,4.3488,4.3488,4.3488,4.3488,4.3488,4.3488,4.3488,2.7038,2.6886,2.6833,2.691,2.7067,2.7029,2.7131,2.7361,2.7401,2.7401,2.7427,2.7552,2.7741,2.8006,2.8263,0.0,0.0,0.0,2.8605,2.8981,2.8996,2.9219,2.9606,2.9861,2.9952,2.9953,3.0238,3.0538,3.0897,3.0897,3.0897,3.091,0.0,0.0,3.2078,3.3042,3.3433,3.3251,3.3989,3.4423,3.4407,3.4715,3.4911,3.4911,3.4911,3.4911,3.4911,3.4911,3.4935,3.5018,3.4935,3.497,0.0,0.0,0.0,0.0,0.0,0.0,0.0,0.0,0.0,0.0,0.0,3.4275,0.0,0.0,0.0,0.0,3.4318,3.4537,3.4977,3.5462,0.0,0.0,0.0,0.0,0.0,0.0,0.0,3.6556,3.7481,3.8569,3.9703,3.9894,4.042,4.1891,4.2266,4.2684,4.3388,0.0,4.3488,4.3488,4.3488,4.3488,4.3488,4.3488,4.3488,4.3488,4.3488,4.3488,4.3488,4.3488,4.3488,4.3488,4.3488,4.3488,4.3488,4.3488,4.3488,4.3488,4.3488,4.3488,4.3488,4.3488,4.3488,2.7529,2.7123,2.7031,2.7107,2.7281,2.7225,2.741,2.7737,2.7642,2.7637,2.7764,2.775,2.8109,2.8712,2.9337,0.0,0.0,2.9608,2.9608,2.9668,2.9668,2.9713,2.9773,3.0328,3.0582,3.0612,3.1212,3.1496,3.1496,3.1496,3.1525,3.1596,3.212,3.2148,3.1739,3.3232,3.3803,3.3352,3.4378,3.4911,3.4899,3.4911,3.4911,3.4911,3.4911,3.4911,3.4911,3.4911,3.4911,3.4923,3.4911,3.4911,3.4947,0.0,0.0,0.0,0.0,0.0,0.0,0.0,0.0,0.0,0.0,0.0,0.0,0.0,0.0,0.0,3.5739,0.0,3.5806,3.5921,0.0,0.0,0.0,3.6187,3.6197,3.6349,3.688,3.8023,0.0,0.0,0.0,0.0,4.1842,4.186,4.2801,4.3488,4.3488,4.3488,4.3488,4.3488,4.3488,4.3488,4.3488,4.3488,4.3488,4.3488,4.3488,4.3488,4.3488,4.3488,4.3488,4.3488,4.3488,4.3488,4.3488,4.3488,4.3488,4.3488,4.3488,4.3488,4.3488,4.3488,4.3488,2.854,2.8464,2.8533,2.8374,2.8162,2.8624,2.894,2.9114,2.9116,2.9102,2.9114,2.9112,2.9204,2.9368,2.9518,2.9608,2.9608,2.9608,2.9847,3.0268,3.0283,3.0567,3.1061,3.1182,3.1271,3.1286,3.1406,3.1496,3.1496,3.1496,3.174,3.2176,3.2342,3.2547,3.2815,3.3198,3.3771,3.4505,3.4763,3.4911,3.4911,3.4911,3.4911,3.4911,3.4911,3.4911,3.4911,3.4911,3.4958,3.5058,3.4958,3.5029,3.5337,3.5256,0.0,0.0,0.0,0.0,0.0,0.0,0.0,0.0,0.0,3.5628,3.5628,0.0,3.5644,0.0,3.5866,3.5971,3.5954,3.5986,0.0,0.0,3.6176,3.6236,3.6286,3.7099,3.7898,3.8487,3.989,4.118,4.2043,4.2707,4.3055,4.3073,4.3307,4.3488,4.3488,4.3488,4.3488,4.3488,4.3488,4.3488,4.3488,4.3488,4.3488,4.3488,4.3488,4.3488,4.3488,4.3488,4.3488,4.3488,4.3488,4.3488,4.3488,4.3488,4.3488,4.3488,4.3488,4.3488,4.3488,4.3488,4.3488,2.9292,2.9126,2.9491,2.9527,2.9337,2.9385,2.9484,2.9608,2.9608,2.9608,2.9608,2.9877,2.9983,3.0042,3.0299,3.0447,3.0447,3.0433,3.0628,3.0928,3.0957,3.1137,3.1496,3.1496,3.1496,3.1496,3.1496,3.1496,3.151,3.1783,3.2064,3.2411,3.2641,3.3042,3.3582,3.3607,3.3917,3.4533,3.478,3.4911,3.4911,3.4911,3.5065,3.5379,3.5065,3.5048,3.5363,3.5081,3.5084,3.5459,3.5416,3.5516,3.5777,3.5746,3.5643,0.0,0.0,0.0,0.0,0.0,0.0,0.0,0.0,0.0,0.0,0.0,3.5751,0.0,3.5997,3.609,3.609,3.6116,3.617,3.6251,3.6571,3.6799,3.6818,3.771,3.8694,3.9653,4.0736,4.1786,4.2695,4.3239,4.3488,4.3488,4.3488,4.3488,4.3488,4.3488,4.3488,4.3488,4.3488,4.3488,4.3488,4.3488,4.3488,4.3488,4.3488,4.3488,4.3488,4.3488,4.3488,4.3488,4.3488,4.3488,4.3488,4.3488,4.3496,4.3549,4.3558,4.354,4.3496,4.3488,4.3488,2.9976,2.9628,3.0207,3.0516,3.0597,2.9948,2.9737,2.9847,2.9847,2.9847,2.9862,3.0402,3.0628,3.0658,3.1241,3.1496,3.1496,3.1496,3.1496,3.1496,3.1496,3.1496,3.1496,3.1496,3.1496,3.1496,3.1583,3.1625,3.1625,3.2216,3.2533,3.2629,3.3095,3.3604,3.4176,3.4282,3.4298,3.4201,3.4754,3.5032,3.5048,3.5114,3.5495,3.6075,3.5512,3.5479,3.6092,3.5512,3.5467,3.6092,3.6141,3.6207,3.6329,3.6366,3.6186,0.0,3.5801,0.0,0.0,0.0,0.0,0.0,0.0,0.0,0.0,3.5734,3.5894,3.6025,3.6144,3.626,3.6356,3.642,3.6473,3.6611,3.7208,3.764,3.7657,3.8333,3.941,4.0925,4.1225,4.1906,4.3237,4.3488,4.3488,4.3488,4.3488,4.3488,4.3488,4.3488,4.3488,4.3488,4.3488,4.3488,4.3488,4.3488,4.3488,4.3488,4.3488,4.3488,4.3523,4.3515,4.3496,4.3523,4.3523,4.3505,4.3505,4.3532,4.3566,4.3625,4.3634,4.3617,4.3575,4.3558,4.354,3.1011,3.095,3.117,3.1287,3.1301,3.1182,3.1123,3.1137,3.1151,3.1151,3.1137,3.1256,3.1316,3.1316,3.1451,3.1496,3.1496,3.1496,3.1496,3.1496,3.1496,3.1496,3.1496,3.1496,3.1496,3.1524,3.1994,3.2217,3.2245,3.2774,3.3293,3.3768,3.3882,3.4197,3.4748,0.0,0.0,0.0,3.5447,3.5794,3.581,3.6373,3.6754,3.6887,3.6754,0.0,3.6887,3.6742,3.6754,3.6887,3.6891,0.0,0.0,0.0,0.0,0.0,0.0,0.0,0.0,0.0,0.0,0.0,3.7471,3.693,3.5746,3.5822,3.6025,3.6155,3.6233,3.6555,3.7193,3.7267,3.7519,3.8105,3.8295,3.8399,3.8427,3.9371,4.0341,4.1008,4.1936,4.2776,4.3364,4.3488,4.3488,4.3488,4.3488,4.3488,4.3488,4.3488,4.3488,4.3488,4.3488,4.3488,4.3488,4.3488,4.3488,4.3488,4.3488,4.3532,4.3556,4.3549,4.3513,4.3565,4.3573,4.3573,4.3592,4.3678,4.3728,4.3763,4.3771,4.3753,4.3736,4.3736,4.3736,3.1707,0.0,3.1467,3.1496,0.0,3.1496,3.1496,3.1496,3.1496,3.1496,3.1496,3.1496,3.1496,3.1496,3.1496,3.1496,3.1496,3.1496,3.1496,3.1496,3.1496,3.1496,3.1496,3.1496,3.1496,3.1524,3.2135,3.2411,3.2453,3.3243,3.3963,3.4603,3.49,3.5354,3.598,3.6373,3.6344,3.5992,3.6357,3.6539,3.6555,3.6907,3.7272,3.7619,0.0,0.0,0.0,0.0,0.0,0.0,0.0,0.0,0.0,0.0,0.0,3.7718,3.7773,3.7834,3.7893,3.791,3.791,3.791,3.791,3.7614,3.6933,3.7001,3.7175,3.7369,3.7417,3.7605,3.7985,3.8036,3.8192,3.8571,3.8933,3.9158,3.9272,4.0214,4.111,4.1614,4.239,4.305,4.3436,4.3488,4.3488,4.3488,4.3488,4.3488,4.3488,4.3488,4.3488,4.3488,4.3488,4.3488,4.3488,4.3488,4.3488,4.3488,4.354,4.3575,4.3609,4.3625,4.3661,4.3694,4.3711,4.3703,4.3711,4.3771,4.3831,4.3853,4.3843,4.3867,4.3873,4.3843,4.3796,3.2347,3.1839,3.172,3.169,3.166,3.157,3.1496,3.1496,0.0,0.0,0.0,3.1496,3.1496,3.1496,3.1496,3.1496,3.1496,3.1496,3.1496,3.1496,3.1496,3.1496,3.1496,3.1496,3.1539,3.1697,3.241,3.2772,3.2938,3.4073,3.4905,3.5447,3.5951,3.6555,3.7238,3.7288,3.7354,3.7483,3.7367,3.7305,3.7288,3.7433,3.7765,3.8381,3.7814,3.7781,3.8348,3.7814,3.7752,3.8364,3.8381,3.843,3.8559,3.8585,3.8434,3.8072,3.8088,3.8144,3.8282,3.8282,3.8294,3.8282,3.8266,3.8267,3.823,3.8202,3.8305,3.8583,3.8606,3.864,3.8767,3.8795,3.8864,3.9002,3.9554,3.9905,3.9974,4.083,4.1635,4.2164,4.2596,4.3059,4.3427,4.3488,4.3488,4.3488,4.3488,4.3488,4.3488,4.3488,4.3488,4.3488,4.3505,4.3513,4.3513,4.3558,4.3549,4.3566,4.3609,4.3642,4.3667,4.3736,4.3786,4.3802,4.382,4.382,4.3829,4.3826,4.3851,4.3897,4.3921,4.3918,4.3974,4.3931,4.3843,3.332,3.317,3.2602,3.2362,3.2318,3.175,3.1496,3.1496,3.1496,3.1496,3.1496,3.1496,3.1496,3.1496,3.1496,3.1496,3.1496,3.1496,3.1496,0.0,3.1496,3.1496,3.1496,3.1496,3.1768,3.2347,3.3449,3.4274,3.4816,3.6024,3.674,3.6806,3.6902,3.7321,3.7983,3.805,3.8344,3.8967,3.8361,3.805,3.805,3.8656,3.9033,3.9136,3.902,3.9033,3.9133,3.9033,3.905,3.9149,3.9153,3.9163,3.9176,3.9282,3.9363,3.9415,3.9517,3.9644,3.9779,3.9779,3.9791,3.9795,3.9779,3.9335,3.8315,3.8202,3.8305,3.8572,3.8675,3.8882,3.9451,3.9543,3.9802,4.0417,4.0641,4.071,4.0687,4.1184,4.1702,4.2164,4.2614,4.3078,4.341,4.3488,4.3488,4.3488,4.3488,4.3488,4.3496,4.3488,4.3488,4.3496,4.3539,4.3573,4.359,4.3676,4.3728,4.3744,4.3753,4.3786,4.3816,4.3818,4.3845,4.3865,4.3899,4.3899,4.3899,4.3937,4.395,4.3992,4.3992,4.3981,4.3997,4.3992,4.3958,3.3829,3.3485,3.317,3.3051,3.2991,3.2318,3.2034,3.2004,3.1645,3.1496,3.1496,3.1496,3.1496,3.1496,3.1496,3.1496,3.1496,3.1496,3.1496,3.1496,3.1496,3.1496,3.1554,3.2245,3.2726,3.3095,3.4587,3.5457,3.5772,3.665,3.7288,3.7685,3.8079,3.8473,3.8772,3.8805,3.8954,3.9269,3.897,3.8805,3.8791,3.9133,3.9315,3.9315,3.9315,3.9315,3.9315,3.9315,3.9315,3.9315,3.9315,3.9325,3.9405,3.9408,3.9511,3.9798,3.9794,3.9884,4.0083,4.0113,4.0113,4.0113,4.0113,3.9937,3.95,3.9443,3.9567,3.9807,3.9848,3.9968,4.0313,4.0348,4.0515,4.0877,4.0894,4.0894,4.0977,4.1507,4.1959,4.2236,4.2817,4.3295,4.347,4.3488,4.3488,4.3488,4.3488,4.3523,4.3558,4.3566,4.3548,4.3556,4.3634,4.3703,4.3719,4.3771,4.3796,4.3796,4.3837,4.3867,4.3889,4.3899,4.3921,4.3934,4.3961,4.3942,4.3968,4.3974,4.3997,4.3997,4.3997,4.3997,4.3997,4.3997,4.3997,3.4443,3.3948,3.3784,3.3649,3.3455,3.2961,3.2721,3.2662,3.2033,3.172,3.1705,3.1585,3.1496,3.1496,3.1496,3.1496,3.1496,3.1496,3.1583,3.1698,3.1718,3.1879,3.2212,3.3235,3.3843,3.4257,3.5711,3.652,3.6698,3.7287,3.788,3.846,3.9033,3.9315,3.9315,3.9315,3.9315,3.9315,3.9315,3.9315,3.9315,3.9315,3.9315,3.9315,3.9315,3.9315,3.9315,3.9315,3.9315,3.9315,3.9315,3.9369,3.9488,3.9379,3.9484,3.9836,3.9768,3.9803,4.0058,4.0113,4.0113,4.0113,4.0113,4.0209,4.0444,4.051,4.0619,4.0847,4.0825,4.0848,4.086,4.0877,4.0894,4.0894,4.0894,4.0894,4.0977,4.1666,4.2216,4.2279,4.2967,4.3479,4.3488,4.3488,4.3488,4.3488,4.3488,4.3513,4.3565,4.3582,4.3617,4.3624,4.3718,4.382,4.381,4.3835,4.3843,4.3843,4.3899,4.3921,4.3937,4.3966,4.3989,4.3997,4.3997,4.3989,4.3997,4.3997,4.3997,4.3997,4.3997,4.3997,4.3997,4.3997,4.3997,3.5355,3.5235,3.4637,3.4054,3.3559,3.3455,3.341,3.332,3.2691,3.2407,3.2362,3.175,3.1511,3.1496,3.1496,3.1496,3.1511,3.1496,3.1812,3.2281,3.2387,3.2977,3.3952,3.4239,3.4892,3.5897,3.6816,3.7499,3.7998,3.8682,3.9116,3.9199,3.9282,3.9315,3.9315,3.9315,3.9315,3.9315,3.9315,3.9315,3.9315,3.9315,3.9315,3.9315,3.9315,3.9315,3.9315,3.9315,3.9315,3.9315,3.9299,3.9352,3.9475,3.9365,3.9484,3.9875,3.9768,3.982,4.0058,4.0113,4.0113,4.0113,4.0113,4.0213,4.0456,4.051,4.0619,4.084,4.0883,4.0894,4.0894,4.0894,4.0894,4.0894,4.0894,4.0894,4.1,4.1666,4.2216,4.2216,4.2958,4.3488,4.3488,4.3488,4.3488,4.3488,4.3488,4.3505,4.3522,4.3582,4.3634,4.3659,4.3767,4.3865,4.3899,4.3953,4.3968,4.3984,4.4,4.4,4.3981,4.3989,4.3997,4.3997,4.3997,4.3997,4.3997,4.3997,4.3997,4.3997,4.3997,4.3997,4.3997,4.3997,4.3997,3.5489,3.5458,3.5221,3.4936,3.4651,3.4263,3.4084,3.4024,3.3365,3.3095,3.3006,3.2377,3.1869,3.1511,3.1496,3.1496,3.1525,3.1914,3.2428,3.3045,3.3459,3.4097,3.495,3.5776,3.6387,3.6921,3.7959,3.8592,3.8861,3.9169,3.9315,3.9315,3.9315,3.9315,3.9315,3.9315,3.9315,3.9315,3.9315,3.9315,3.9315,3.9315,3.9315,3.9315,3.9315,3.9315,3.9315,3.9315,3.9315,3.9315,3.9365,3.9484,3.9616,3.956,3.9677,3.9986,3.9973,3.9969,4.0083,4.0113,4.0113,4.0113,4.0113,4.0171,4.035,4.0444,4.0583,4.0757,4.0864,4.0894,4.0894,4.0894,4.0894,4.0894,4.0894,4.0894,4.0906,4.1677,4.2216,4.2277,4.2958,4.3488,4.3488,4.3488,4.3488,4.3488,4.3488,4.3523,4.3566,4.3661,4.3744,4.3783,4.3889,4.3937,4.3913,4.3961,4.3989,4.3997,4.3997,4.3997,4.3997,4.3997,4.3997,4.3997,4.3997,4.3997,4.3997,4.3997,4.3997,4.3997,4.3997,4.3997,4.3997,4.3997,4.3997,3.5489,3.5489,3.5489,3.5489,3.5459,3.4966,3.4772,3.4682,3.4053,3.3769,3.3724,3.308,3.2512,3.2048,3.169,3.1585,3.1839,3.2464,3.3219,3.3992,3.4642,3.5398,3.619,3.7111,3.7685,3.7973,3.88,3.9285,3.9315,3.9315,3.9315,3.9315,3.9315,3.9315,3.9315,3.9315,3.9315,3.9315,3.9315,3.9315,3.9315,3.9315,3.9315,3.9315,3.9315,3.9315,3.9315,3.9315,3.9325,3.9369,3.9422,3.9554,3.9746,3.9707,3.9768,4.0011,4.007,4.0113,4.0113,4.0113,4.0113,4.0113,4.0113,4.0175,4.0325,4.0466,4.0588,4.0757,4.0852,4.0894,4.0894,4.0894,4.0894,4.0894,4.0894,4.093,4.1094,4.1774,4.2267,4.2428,4.3078,4.3488,4.3488,4.3488,4.3488,4.3488,4.3505,4.3531,4.3609,4.3711,4.3802,4.3875,4.3929,4.3942,4.3937,4.3958,4.3997,4.3997,4.3997,4.3997,4.3997,4.3997,4.3997,4.3997,4.3997,4.3997,4.3997,4.3997,4.3997,4.3997,4.3997,4.3997,4.3997,4.3997,4.3997,3.5489,3.5489,3.5489,3.5489,3.5489,3.5444,3.5444,3.5355,3.4742,3.4443,3.4368,3.3754,3.344,3.3275,3.2138,3.1869,3.2481,3.3203,3.4129,3.517,3.5963,3.6917,3.8038,3.8215,3.8583,3.8999,3.9179,3.9315,3.9315,3.9315,3.9315,3.9315,3.9315,3.9315,3.9315,3.9315,3.9315,3.9315,3.9315,3.9315,3.9315,3.9315,3.9315,3.9315,3.9315,3.9315,3.9315,3.9315,3.9369,3.9488,3.9392,3.9498,3.9824,3.9672,3.9668,3.9901,4.0037,4.0113,4.0113,4.0113,4.0113,4.0113,4.0096,4.0196,4.0412,4.0473,4.0595,4.0847,4.0876,4.0871,4.0894,4.0894,4.0894,4.0894,4.0918,4.11,4.1423,4.1906,4.2388,4.2779,4.3223,4.347,4.3488,4.3488,4.3515,4.3505,4.3556,4.3599,4.3642,4.3728,4.3804,4.3837,4.3883,4.3921,4.3992,4.3989,4.3997,4.3997,4.3997,4.3997,4.3997,4.3997,4.3997,4.3997,4.3997,4.3997,4.3997,4.3997,4.3997,4.3997,4.3997,4.3997,4.3997,4.3997,4.3997,3.5506,3.5489,3.5489,3.5489,3.5489,3.5489,3.5489,3.5458,3.5265,3.513,3.5027,3.4443,3.4143,3.4099,3.32,3.2901,3.3216,3.4224,3.5195,3.6068,3.7118,3.8061,3.8828,3.8938,3.9037,3.9258,3.9315,3.9315,3.9315,3.9315,3.9315,3.9315,3.9315,3.9315,3.9315,3.9315,3.9315,3.9315,3.9315,3.9315,3.9315,3.9315,3.9315,3.9315,3.9315,3.9315,3.9315,3.9315,3.9352,3.9501,3.9537,3.9668,3.9875,3.9884,3.9922,4.0011,4.0075,4.0113,4.0113,4.0113,4.0113,4.0113,4.0113,4.0133,4.0251,4.0337,4.0448,4.0619,4.0728,4.0805,4.0888,4.0894,4.0894,4.093,4.1128,4.1299,4.1611,4.2157,4.2711,4.291,4.325,4.3479,4.3488,4.3488,4.3523,4.3566,4.3573,4.3615,4.3709,4.3802,4.3859,4.3875,4.3921,4.3974,4.3989,4.3997,4.3997,4.3997,4.3997,4.3997,4.3997,4.3997,4.3997,4.3997,4.3997,4.3997,4.3997,4.3997,4.3997,4.3997,4.3997,4.3997,4.3997,4.3997,4.3997,3.6122,3.6102,3.6132,3.6116,3.61,3.5893,3.5797,3.5765,3.5602,3.5618,3.5642,3.5107,3.504,3.5277,3.4728,3.4577,3.4775,3.5471,3.6175,3.7064,3.8126,3.8887,3.9245,3.9315,3.9315,3.9315,3.9315,3.9315,3.9315,3.9315,3.9315,3.9315,3.9325,3.9339,3.9312,3.9339,3.9352,3.9365,3.9312,3.9312,3.9339,3.9365,3.9382,3.9382,3.9388,3.9392,3.9312,3.9339,3.9418,3.9534,3.9668,3.9755,3.9901,4.0041,4.0113,4.0113,4.0113,4.0113,4.0113,4.0113,4.0113,4.0113,4.0113,4.0113,4.0163,4.0238,4.0362,4.0534,4.0648,4.0757,4.0864,4.0894,4.0894,4.0918,4.1152,4.1356,4.1516,4.2205,4.274,4.3096,4.333,4.347,4.3488,4.3488,4.3532,4.3575,4.3573,4.3651,4.3769,4.3851,4.3923,4.3918,4.3958,4.3989,4.3997,4.3997,4.3997,4.3997,4.3997,4.3997,4.3997,4.3997,4.3997,4.3997,4.3997,4.3997,4.3997,4.3997,4.3997,4.3997,4.3997,4.3997,4.3997,4.3997,4.3997,3.7369,3.7295,3.7369,3.725,3.7146,3.6646,3.6399,3.6321,3.5861,3.5989,3.6306,3.5785,3.6182,3.6918,3.6445,3.6645,3.6982,3.6688,3.7084,3.8137,3.8895,3.9232,3.9315,3.9315,3.9315,3.9315,3.9315,3.9315,3.9315,3.9315,3.9315,3.9325,3.9405,3.9392,3.9315,3.9408,3.9475,3.9448,3.9352,3.9369,3.9488,3.9471,3.9488,3.9514,3.9599,3.956,3.9339,3.9432,3.955,3.9677,3.9716,3.9755,3.9926,4.0037,4.0113,4.0113,4.0113,4.0113,4.0113,4.0113,4.0113,4.0113,4.0113,4.0121,4.0226,4.0292,4.0404,4.0595,4.0685,4.0745,4.0876,4.0894,4.0894,4.0894,4.1,4.1197,4.1545,4.1969,4.2539,4.3259,4.3479,4.3488,4.3488,4.3488,4.3496,4.354,4.3583,4.3659,4.3777,4.3867,4.3921,4.3984,4.3997,4.3997,4.3997,4.3997,4.3997,4.3997,4.3997,4.3997,4.3997,4.3997,4.3997,4.3997,4.3997,4.3997,4.3997,4.3997,4.3997,4.3997,4.3997,4.3997,4.3997,4.3997,4.3997,3.7778,3.7398,3.7383,3.7383,3.7369,3.7176,3.7086,3.7071,3.6875,3.6905,3.7026,3.6875,3.7026,3.7295,3.7176,3.7443,3.7978,3.7812,3.7943,3.839,3.8993,3.9315,3.9315,3.9315,3.9315,3.9315,3.9315,3.9315,3.9315,3.9315,3.9315,3.9312,3.9355,3.9339,3.9299,3.9339,3.9365,3.9352,3.9325,3.9365,3.9471,3.9501,3.9554,3.9642,3.969,3.9651,3.9586,3.9629,3.9707,3.9836,3.9836,3.9897,4.0024,4.0087,4.0113,4.0113,4.0113,4.0113,4.0113,4.0113,4.0113,4.0113,4.0113,4.0125,4.0175,4.0238,4.0362,4.0546,4.0648,4.0745,4.0876,4.0894,4.0894,4.0894,4.114,4.1456,4.1927,4.2598,4.3142,4.341,4.3488,4.3488,4.3488,4.3488,4.3505,4.3548,4.3582,4.3667,4.3826,4.3865,4.3929,4.3981,4.3989,4.3997,4.3997,4.3997,4.3997,4.3997,4.3997,4.3997,4.3997,4.3997,4.3997,4.3997,4.3997,4.3997,4.3997,4.3997,4.3997,4.3997,4.3997,4.3997,4.3997,4.3997,4.3997,3.8435,3.8126,3.8112,3.8112,3.8069,3.7867,3.7735,3.7707,3.7502,3.7485,3.7585,3.7456,3.7693,3.7967,3.7867,3.8096,3.8648,3.8676,3.8676,3.8717,3.905,3.9299,3.9315,3.9315,3.9315,3.9315,3.9315,3.9315,3.9315,3.9315,3.9315,3.9299,3.9339,3.9382,3.9379,3.9432,3.9471,3.9511,3.9484,3.9511,3.9616,3.9642,3.9677,3.9768,3.9803,3.9858,3.9829,3.9858,3.9875,3.9914,3.9935,4.0011,4.01,4.0113,4.0113,4.0113,4.0113,4.0113,4.0113,4.0113,4.0113,4.0113,4.0113,4.0113,4.0125,4.0188,4.0271,4.0485,4.0571,4.0709,4.0864,4.0894,4.0894,4.0894,4.11,4.1556,4.2126,4.2818,4.3294,4.3418,4.3488,4.3488,4.3488,4.3488,4.3522,4.36,4.3617,4.3666,4.3832,4.3889,4.3926,4.3974,4.3997,4.3997,4.3997,4.3997,4.3997,4.3997,4.3997,4.3997,4.3997,4.3997,4.3997,4.3997,4.3997,4.3997,4.3997,4.3997,4.3997,4.3997,4.3997,4.3997,4.3997,4.3997,4.3997,3.9285,3.9315,3.9285,3.9205,3.9137,3.8606,3.8365,3.8266,3.7838,3.7817,3.7995,3.7819,3.8197,3.8942,3.8593,3.8676,3.9205,3.9232,3.9188,3.9218,3.9299,3.9315,3.9315,3.9315,3.9315,3.9315,3.9315,3.9312,3.9342,3.9342,3.9329,3.9365,3.9445,3.9484,3.9484,3.9629,3.9707,3.9746,3.9716,3.9729,3.9862,3.9892,3.9901,3.9914,4.0011,4.0075,4.0058,4.0062,4.0007,3.9952,4.0037,4.0087,4.0113,4.0113,4.0113,4.0113,4.0113,4.0113,4.0113,4.0113,4.0113,4.0113,4.0113,4.0113,4.0113,4.0175,4.0271,4.0485,4.0558,4.0638,4.0835,4.0894,4.0894,4.0923,4.11,4.1529,4.2136,4.2711,4.3151,4.3418,4.3488,4.3488,4.3488,4.3488,4.3522,4.3592,4.3617,4.3691,4.3832,4.3897,4.3937,4.3976,4.3997,4.3997,4.3997,4.3997,4.3997,4.3997,4.3997,4.3997,4.3997,4.3997,4.3997,4.3997,4.3997,4.3997,4.3997,4.3997,4.3997,4.3997,4.3997,4.3997,4.3997,4.3997,4.3997,3.9315,3.9315,3.9315,3.9315,3.9285,3.9077,3.9023,3.901,3.886,3.8786,3.8892,3.8857,3.8914,3.9258,3.9121,3.9148,3.9272,3.9315,3.9315,3.9315,3.9315,3.9315,3.9315,3.9315,3.9315,3.9315,3.9315,3.9339,3.9448,3.9418,3.9484,3.9586,3.9498,3.9484,3.9498,3.9524,3.955,3.9619,3.9677,3.9772,3.9875,3.9884,3.9948,4.0049,4.0087,4.0113,4.0113,4.0113,4.0083,4.0062,4.0087,4.0113,4.0113,4.0113,4.0113,4.0113,4.0113,4.0113,4.0113,4.0113,4.0113,4.0113,4.0113,4.0113,4.0096,4.0283,4.0395,4.0534,4.0667,4.0799,4.0871,4.0894,4.0894,4.0977,4.1407,4.2008,4.2557,4.3078,4.3401,4.3497,4.3488,4.3488,4.3488,4.3488,4.3522,4.3592,4.3634,4.3657,4.3816,4.3897,4.3929,4.3984,4.3997,4.3997,4.3997,4.3997,4.3997,4.3997,4.3997,4.3997,4.3997,4.3997,4.3997,4.3997,4.3997,4.3997,4.3997,4.3997,4.3997,4.3997,4.3997,4.3997,4.3997,4.3997,4.3997,3.9315,3.9315,3.9315,3.9315,3.9315,3.9315,3.9315,3.9315,3.9315,3.9315,3.9315,3.9315,3.9315,3.9315,3.9315,3.9315,3.9315,3.9315,3.9315,3.9315,3.9315,3.9315,3.9315,3.9315,3.9315,3.9315,3.9315,3.9325,3.9408,3.9405,3.9458,3.9498,3.9458,3.9461,3.9484,3.9484,3.9541,3.959,3.9664,3.9742,3.9824,3.9875,3.9939,4.0024,4.0075,4.0113,4.0113,4.0113,4.0113,4.0113,4.0113,4.0113,4.0113,4.0113,4.0113,4.0113,4.0113,4.0113,4.0113,4.0113,4.0113,4.0113,4.0113,4.0138,4.0188,4.0337,4.0436,4.0612,4.0745,4.0829,4.09,4.0894,4.0971,4.1209,4.1767,4.229,4.2604,4.2939,4.3304,4.3427,4.3488,4.3488,4.3488,4.3469,4.3504,4.3592,4.3617,4.3701,4.38,4.3857,4.382,4.3746,4.3811,4.3819,4.3838,4.3856,4.396,4.3978,4.3997,4.3997,4.3997,4.3997,4.3997,4.3997,4.3997,4.3997,4.3997,4.3997,4.3997,4.3997,4.3997,4.3997,4.3997,4.3997,4.3997,3.9315,3.9315,3.9315,3.9315,3.9315,3.9315,3.9315,3.9315,3.9315,3.9315,3.9315,3.9315,3.9315,3.9315,3.9315,3.9315,3.9315,3.9315,3.9315,3.9315,3.9299,3.9312,3.9355,3.9312,3.9315,3.9315,3.9312,3.9352,3.9405,3.9392,3.9405,3.9481,3.9441,3.9445,3.9563,3.9563,3.9599,3.972,3.9768,3.9794,3.9833,3.9897,3.9965,3.9973,4.0045,4.0083,4.0113,4.0113,4.0113,4.0113,4.0113,4.0113,4.0113,4.0113,4.0113,4.0113,4.0113,4.0113,4.0113,4.0113,4.0113,4.0113,4.0113,4.015,4.0226,4.0288,4.0399,4.0612,4.0667,4.0781,4.0883,4.093,4.0955,4.117,4.1637,4.1996,4.2075,4.2473,4.2951,4.318,4.3185,4.3231,4.3249,4.3267,4.3201,4.2707,4.2824,4.2871,4.2979,4.3013,4.3098,4.3222,4.3361,4.3559,4.3615,4.367,4.3819,4.3923,4.3978,4.3997,4.3997,4.3997,4.3997,4.3997,4.3997,4.3997,4.3997,4.3997,4.3997,4.3997,4.3997,4.3997,4.3997,4.3997,4.3997,3.9315,3.9315,3.9315,3.9315,3.9315,3.9315,3.9315,3.9315,3.9315,3.9315,3.9315,3.9315,3.9315,3.9315,3.9315,3.9315,3.9315,3.9315,3.9315,3.9315,3.9315,3.9382,3.9408,3.9339,3.9312,3.9339,3.9405,3.9481,3.954,3.9547,3.979,3.9774,3.9515,3.9738,3.9701,3.9625,3.9824,3.9875,3.9918,3.9973,3.9973,3.9999,4.0037,4.0049,4.007,4.0083,4.0113,4.0113,4.0113,4.0113,4.0113,4.0113,4.0113,4.0113,4.0113,4.0113,4.0113,4.0113,4.0113,4.0113,4.0113,4.0113,4.0096,4.0108,4.0133,4.0251,4.0362,4.0522,4.0636,4.0745,4.0796,4.118,4.0861,4.0517,4.0757,4.0962,4.07,4.1542,4.2079,4.1859,4.1727,4.1635,4.1672,4.1801,4.1805,4.175,4.1817,4.1846,4.201,4.2218,4.2367,4.2565,4.2592,4.2705,4.2768,4.289,4.315,4.3318,4.3448,4.3522,4.354,4.3856,4.3801,4.3893,4.3997,4.3997,4.3997,4.3997,4.3997,4.3997,4.3997,4.3997,4.3997,4.3997,4.3997,3.9315,3.9315,3.9315,3.9315,3.9315,3.9315,3.9315,3.9315,3.9315,3.9315,3.9315,3.9315,3.9315,3.9315,3.9315,3.9315,3.9315,3.9315,3.9315,3.9315,3.9315,3.9325,3.9395,3.9365,3.9352,3.9421,3.9101,3.9092,3.9125,3.8967,3.8719,3.8874,3.8845,3.8652,3.8875,3.9122,3.9227,3.9374,3.972,3.9922,3.9922,3.9986,4.0045,4.01,4.0113,4.0113,4.0113,4.0113,4.0113,4.0113,4.0113,4.0113,4.0113,4.0113,4.0113,4.0113,4.0113,4.0113,4.0113,4.0113,4.0113,4.0113,4.0113,4.015,4.0175,4.028,4.0404,4.0546,4.0621,4.0625,4.0388,4.0476,4.0117,3.9596,3.9778,3.9838,3.9465,4.0419,4.1413,4.1103,4.1205,4.1187,4.1113,4.0893,4.1062,4.1319,4.138,4.1409,4.158,4.1743,4.1722,4.1816,4.1765,4.1776,4.1839,4.2025,4.2314,4.2426,4.2463,4.25,4.25,4.302,4.3522,4.3689,4.3893,4.3997,4.3997,4.3997,4.3997,4.3997,4.3997,4.3997,4.3997,4.3997,4.3997,3.9315,3.9315,3.9315,3.9315,3.9315,3.9315,3.9315,3.9315,3.9315,3.9315,3.9315,3.9315,3.9315,3.9315,3.9315,3.9315,3.9315,3.9315,3.9315,3.9315,3.9339,3.9379,3.9405,3.9405,3.9468,3.9607,3.8948,3.863,3.8501,3.7974,3.7972,3.768,3.7646,3.788,3.7843,3.8132,3.8539,3.8631,3.9026,3.9295,3.9328,3.9438,3.9556,3.9817,4.0062,4.0096,4.0113,4.0113,4.0113,4.0113,4.0113,4.0113,4.0113,4.0113,4.0113,4.0113,4.0113,4.0113,4.0113,4.0113,4.0113,4.0113,4.0113,4.015,4.0213,4.0267,4.0367,4.0441,4.0477,4.0132,3.96,3.9571,3.9209,3.8729,3.8852,3.8718,3.8465,3.9262,4.0008,4.0372,4.0276,4.0233,4.0369,4.0314,4.0601,4.0825,4.0867,4.0906,4.1029,4.1017,4.0866,4.0767,4.0658,4.0977,4.1096,4.1207,4.1497,4.1757,4.172,4.172,4.1739,4.2222,4.2853,4.3522,4.3763,4.3838,4.3949,4.3997,4.3997,4.3997,4.3997,4.3997,4.3997,4.3997,4.3997,3.9315,3.9315,3.9315,3.9315,3.9315,3.9315,3.9315,3.9315,3.9315,3.9315,3.9315,3.9315,3.9315,3.9315,3.9315,3.9315,3.9315,3.9315,3.9315,3.9329,3.9379,3.9471,3.9507,3.9458,3.9573,3.9571,3.8962,3.8535,3.8509,3.8166,3.7537,3.7725,3.7691,3.7646,3.7646,3.7969,3.7966,3.7988,3.8241,3.8388,3.8417,3.8458,3.8685,3.9169,3.9605,3.9846,3.9982,4.0045,4.0113,4.0113,4.0096,4.0096,4.0113,4.0113,4.0113,4.0113,4.0113,4.0113,4.0113,4.0113,4.0113,4.0113,4.0113,4.0113,4.0138,4.01,4.0064,4.0046,3.984,3.9409,3.8688,3.8722,3.8405,3.8025,3.7941,3.8066,3.7817,3.8133,3.8614,3.8852,3.9004,3.9287,3.9507,3.9625,3.9693,3.9779,3.9776,3.9791,3.9852,3.9767,3.9601,3.9506,3.9428,3.9918,4.0408,4.0538,4.0743,4.1163,4.1237,4.1244,4.1337,4.1597,4.211,4.2582,4.3206,4.3578,4.3708,4.3745,4.3819,4.367,4.3801,4.3968,4.3997,4.3997,4.3997,3.9315,3.9315,3.9315,3.9315,3.9315,3.9315,3.9315,3.9315,3.9315,3.9315,3.9315,3.9315,3.9315,3.9315,3.9315,3.9315,3.9315,3.9315,3.9315,3.9312,3.9365,3.9418,3.9494,3.9418,3.928,3.9024,3.8447,3.8116,3.8105,3.713,3.685,3.6681,3.671,3.6727,3.6845,3.7082,3.728,3.7364,3.7652,3.786,3.7877,3.7877,3.813,3.843,3.8734,3.8937,3.8966,3.8983,3.9153,3.9406,3.9525,3.9728,3.9931,4.0062,4.0079,4.0045,4.0079,4.0113,4.0113,4.0113,4.0113,4.0113,4.0079,4.0113,3.9994,3.9787,3.9493,3.9221,3.9132,3.8671,3.8011,3.7992,3.7629,3.7102,3.7092,3.7107,3.707,3.7301,3.7496,3.7712,3.8391,3.8818,3.8846,3.8898,3.8785,3.8745,3.8742,3.884,3.8925,3.8968,3.8979,3.905,3.9138,3.9361,3.9832,3.9907,4.0018,4.0383,4.0606,4.0613,4.0631,4.0773,4.1003,4.1356,4.2062,4.2694,4.2749,4.2537,4.2909,4.328,4.3262,4.3355,4.3801,4.3997,4.3838,3.8868,3.8854,3.8868,3.8854,3.8854,3.8851,3.8821,3.8854,3.8818,3.8785,3.8854,3.8805,3.8788,3.8871,3.8987,3.9103,3.9282,3.9315,3.9315,3.9325,3.9392,3.9388,3.9375,3.9199,3.9046,3.8723,3.7705,3.7385,3.7306,3.6393,3.5769,3.5797,3.5678,3.5628,3.5847,3.6315,3.653,3.6738,3.7077,3.742,3.7466,3.7601,3.7674,3.7753,3.7809,3.7978,3.8079,3.8096,3.8328,3.8633,3.8831,3.9022,3.9525,3.9643,3.9643,3.9694,3.991,4.0079,4.0079,3.9846,3.9762,3.9774,3.9677,3.9643,3.9491,3.8979,3.8582,3.8092,3.7997,3.7814,3.7267,3.7195,3.6935,3.6587,3.638,3.6385,3.6622,3.688,3.72,3.7578,3.8153,3.8403,3.8467,3.8699,3.8715,3.8753,3.875,3.8814,3.8918,3.8983,3.9007,3.9059,3.9101,3.9101,3.9268,3.9324,3.9417,3.9584,3.9714,3.9714,3.9733,3.9788,4.0074,4.0371,4.0557,4.1077,4.117,4.1579,4.2118,4.2463,4.2519,4.2649,4.2872,4.3039,4.2983,3.7367,3.7384,3.7384,3.7354,3.7417,3.745,3.7417,3.745,3.75,3.7354,3.7549,3.7433,3.7483,3.7615,3.8129,3.8672,3.91,3.9229,3.9259,3.9319,3.9441,3.9465,3.9484,3.9067,3.8707,3.8295,3.7237,3.6823,3.6663,3.5988,3.5633,3.5628,3.5628,3.5628,3.5645,3.5831,3.5735,3.5769,3.5887,3.5983,3.6101,3.6603,3.6885,3.7071,3.7398,3.7691,3.7623,3.7606,3.7821,3.7956,3.8012,3.8063,3.8159,3.8176,3.8159,3.8548,3.922,4.0096,3.9863,3.944,3.9123,3.9034,3.8684,3.8278,3.821,3.8159,3.7755,3.7039,3.7041,3.6933,3.654,3.6371,3.6309,3.6338,3.6284,3.6482,3.6668,3.6567,3.69,3.7265,3.7765,3.8,3.8127,3.8441,3.8707,3.8745,3.8765,3.8829,3.8903,3.895,3.9028,3.9073,3.9101,3.9101,3.9101,3.9101,3.9101,3.9101,3.9101,3.9101,3.9231,3.9361,3.9268,3.9535,3.9665,4.0037,4.0631,4.1133,4.1505,4.1672,4.1727,4.1746,4.1765,4.1932,4.2203,3.634,3.7102,3.7119,3.7119,3.7119,3.7119,3.7119,3.7119,3.7119,3.7119,3.7119,3.7119,3.7119,3.7168,3.7483,3.798,3.8569,3.8751,3.9056,3.9182,3.9185,3.9087,3.8887,3.8388,3.7956,3.747,3.6865,3.6351,3.6118,3.5864,3.5628,3.5628,3.5628,3.5628,3.5628,3.5628,3.5628,3.5633,3.5645,3.5628,3.5712,3.5915,3.6129,3.6146,3.649,3.6642,3.6676,3.6597,3.6874,3.711,3.7263,3.7516,3.7792,3.7927,3.7927,3.799,3.843,3.8785,3.8785,3.8514,3.843,3.8345,3.8024,3.7804,3.7444,3.7241,3.6976,3.6299,3.6338,3.6278,3.6165,3.6208,3.6255,3.628,3.6284,3.6367,3.6516,3.6533,3.6638,3.6997,3.733,3.7578,3.787,3.8252,3.8546,3.8715,3.8735,3.8777,3.8866,3.8935,3.9021,3.9094,3.9101,3.9101,3.9101,3.9101,3.9101,3.9101,3.9101,3.9101,3.9101,3.912,3.9101,3.9101,3.9287,3.974,4.026,4.0334,4.0401,4.0643,4.091,4.1003,4.1114,4.1523,4.1746,3.5545,3.6526,3.6555,3.6572,3.6555,3.6555,3.6522,3.6539,3.6506,3.6522,3.6568,3.656,3.6638,3.6871,3.6974,3.7365,3.8017,3.8119,3.8474,3.8675,3.8631,3.8405,3.8191,3.7671,3.7122,3.6558,3.6368,3.6043,3.5797,3.5628,3.5628,3.5628,3.5628,3.5628,3.5628,3.5628,3.5628,3.5628,3.5628,3.5628,3.5628,3.5628,3.5661,3.5645,3.5628,3.5628,3.5628,3.5667,3.605,3.6332,3.6485,3.6721,3.7065,3.7082,3.7099,3.7116,3.7302,3.7285,3.7415,3.7432,3.7584,3.7567,3.7335,3.6913,3.662,3.6479,3.6372,3.5836,3.5863,3.5989,3.6079,3.6159,3.6223,3.6255,3.628,3.629,3.6294,3.6367,3.6523,3.685,3.7142,3.7265,3.7596,3.8051,3.8377,3.8627,3.8712,3.8739,3.8837,3.8928,3.9021,3.9101,3.9101,3.9101,3.9101,3.9101,3.9101,3.9101,3.9101,3.9101,3.9101,3.9101,3.9101,3.9101,3.9101,3.9268,3.9684,3.9454,3.9268,3.9714,4.0104,4.0327,4.0568,4.0958,4.1021,3.4961,3.506,3.5081,3.5143,3.516,3.506,3.511,3.5259,3.5164,3.5197,3.5316,3.53,3.578,3.6125,3.639,3.6789,3.7498,3.7552,3.7707,3.7756,3.7716,3.7744,3.7528,3.7179,3.676,3.6551,3.6123,3.5752,3.5616,3.5628,3.5628,3.5628,3.5628,3.5628,3.5628,3.5628,3.5628,3.5628,3.5628,3.5628,3.5628,3.5628,3.5628,3.5628,3.5628,3.5628,3.5628,3.5628,3.5661,3.5847,3.5864,3.5864,3.6152,3.614,3.6169,3.6169,3.6169,3.6169,3.6236,3.6586,3.6818,3.6665,3.6383,3.6039,3.5932,3.578,3.5656,3.5667,3.5711,3.5756,3.5872,3.596,3.6127,3.6206,3.628,3.629,3.6284,3.6294,3.6464,3.6751,3.6919,3.7007,3.7189,3.7605,3.8042,3.8293,3.8655,3.869,3.8848,3.8957,3.9024,3.9094,3.9101,3.9101,3.9101,3.9101,3.9101,3.9101,3.9101,3.9101,3.9101,3.9101,3.9101,3.9101,3.9101,3.9101,3.9101,3.9138,3.9157,3.9138,3.9331,3.9677,3.977,3.9918,3.9825,3.5029,3.5029,3.5116,3.5041,3.4911,3.4911,3.4911,3.4911,3.4911,3.4958,3.5029,3.5168,3.5325,3.5507,3.5595,3.5961,3.6529,3.6681,3.6993,3.7224,3.7254,3.7104,3.6871,3.6506,3.6033,3.6033,3.5718,3.5628,3.5616,3.5628,3.5628,3.5628,3.5628,3.5628,3.5628,3.5628,3.5628,3.5628,3.5628,3.5628,3.5628,3.5628,3.5628,3.5628,3.5628,3.5628,3.5628,3.5628,3.5628,3.5628,3.5628,3.5628,3.5628,3.5628,3.5628,3.5628,3.5628,3.5628,3.5628,3.5915,3.6045,3.6028,3.578,3.5628,3.5628,3.5628,3.5628,3.5622,3.5667,3.5762,3.5927,3.6047,3.6176,3.6227,3.6269,3.6273,3.6284,3.6284,3.6326,3.6577,3.6628,3.6651,3.688,3.7132,3.7569,3.7991,3.834,3.8664,3.8815,3.8946,3.9031,3.9094,3.9101,3.9101,3.9101,3.9101,3.9101,3.9101,3.9101,3.9101,3.9101,3.9101,3.9101,3.9101,3.9101,3.9101,3.9101,3.9101,3.9101,3.9101,3.9101,3.9194,3.9157,3.9101,3.9101,3.5163,3.5175,3.5256,3.5198,3.5018,3.5018,3.5018,3.5018,3.5029,3.5058,3.51,3.5198,3.5198,3.5123,3.5168,3.5409,3.5847,3.6007,3.6386,3.6515,3.6486,3.6375,3.6202,3.596,3.5707,3.5566,3.5588,3.5628,3.5628,3.5628,3.5628,3.5628,3.5628,3.5628,3.5628,3.5628,3.5628,3.5628,3.5628,3.5628,3.5628,3.5628,3.5628,3.5628,3.5628,3.5628,3.5628,3.5628,3.5628,3.5628,3.5628,3.5628,3.5628,3.5628,3.5628,3.5628,3.5628,3.5628,3.5628,3.5628,3.5628,3.5695,3.5678,3.5628,3.5628,3.5628,3.5628,3.5611,3.57,3.5839,3.5971,3.6068,3.6182,3.6251,3.628,3.6284,3.6284,3.6284,3.6284,3.6367,3.6381,3.6444,3.6668,3.6956,3.746,3.7939,3.8438,3.8706,3.88,3.8943,3.901,3.9066,3.9101,3.9101,3.9101,3.9101,3.9101,3.9101,3.9101,3.9101,3.9101,3.9101,3.9101,3.9101,3.9101,3.9101,3.9101,3.9101,3.9101,3.9101,3.9101,3.9101,3.9101,3.9101,3.9101,3.5291,3.5308,3.5303,3.5303,3.5291,3.5296,3.5285,3.5245,3.5256,3.5198,3.51,3.514,3.5152,3.5135,3.5233,3.5368,3.5465,3.554,3.5676,3.5756,3.5795,3.5655,3.5656,3.5583,3.5571,3.5532,3.5577,3.5628,3.5628,3.5628,3.5628,3.5628,3.5628,3.5628,3.5628,3.5628,3.5628,3.5628,3.5628,3.5628,3.5628,3.5628,3.5628,3.5628,3.5628,3.5628,3.5628,3.5628,3.5628,3.5628,3.5628,3.5628,3.5628,3.5628,3.5628,3.5628,3.5628,3.5628,3.5628,3.5628,3.5628,3.5628,3.5628,3.5628,3.5628,3.5628,3.5628,3.5611,3.5689,3.5773,3.5894,3.6014,3.6133,3.6229,3.6259,3.6284,3.6284,3.6284,3.6284,3.6284,3.6284,3.6336,3.6516,3.6818,3.7377,3.7913,3.8478,3.8736,3.8803,3.8924,3.9031,3.9059,3.9101,3.9101,3.9101,3.9101,3.9101,3.9101,3.9101,3.9101,3.9101,3.9101,3.9101,3.9101,3.9101,3.9101,3.9101,3.9101,3.9101,3.9101,3.9101,3.9101,3.9101,3.9101,3.9101,3.5434,3.5434,3.5469,3.5503,3.5481,3.5332,3.5308,3.5308,3.5308,3.5222,3.5152,3.5198,3.5233,3.5256,3.5256,3.528,3.5245,3.5233,3.5251,3.5286,3.5309,3.5395,3.5452,3.552,3.5554,3.5571,3.56,3.5628,3.5628,3.5628,3.5628,3.5628,3.5628,3.5628,3.5628,3.5628,3.5628,3.5628,3.5628,3.5628,3.5628,3.5628,3.5628,3.5628,3.5628,3.5628,3.5628,3.5628,3.5628,3.5628,3.5628,3.5628,3.5628,3.5628,3.5628,3.5628,3.5628,3.5628,3.5628,3.5628,3.5628,3.5628,3.5628,3.5628,3.5628,3.5628,3.5628,3.5628,3.5656,3.5739,3.5817,3.596,3.609,3.6197,3.6255,3.6273,3.6284,3.6284,3.6284,3.6284,3.6284,3.6315,3.6461,3.6739,3.7236,3.7676,3.8191,3.8541,3.8664,3.8917,3.908,3.908,3.9101,3.9101,3.9101,3.9101,3.9101,3.9101,3.9101,3.9101,3.9101,3.9101,3.9101,3.9101,3.9101,3.9101,3.9101,3.9101,3.9101,3.9101,3.9101,3.9101,3.9101,3.9101,3.9101,3.5515,3.5532,3.5577,3.5628,3.5594,3.5441,3.5377,3.5349,3.5326,3.5268,3.5285,3.5308,3.5268,3.5245,3.5222,3.521,3.51,3.51,3.521,3.5227,3.5245,3.5372,3.5469,3.5526,3.5554,3.5566,3.5588,3.5628,3.5628,3.5628,3.5628,3.5628,3.5628,3.5628,3.5628,3.5628,3.5628,3.5628,3.5628,3.5628,3.5628,3.5628,3.5628,3.5628,3.5628,3.5628,3.5628,3.5628,3.5628,3.5628,3.5628,3.5628,3.5628,3.5628,3.5628,3.5628,3.5628,3.5628,3.5628,3.5628,3.5628,3.5628,3.5628,3.5628,3.5628,3.5628,3.5628,3.5628,3.5633,3.5751,3.585,3.5975,3.6073,3.6208,3.6255,3.629,3.6284,3.6284,3.6284,3.6284,3.6294,3.6336,3.6451,3.6739,3.7094,3.7487,3.7877,3.8181,3.8491,3.8752,3.8996,3.902,3.9041,3.9066,3.908,3.9101,3.9101,3.9101,3.9087,3.9073,3.9101,3.9101,3.9101,3.9101,3.9101,3.9101,3.9101,3.9101,3.9101,3.9101,3.9101,3.9101,3.9101,3.9101,3.9101,3.5616,3.5628,3.5628,3.5628,3.5605,3.5509,3.5497,3.5497,3.5377,3.536,3.5441,3.5319,3.5222,3.5123,3.5128,3.514,3.5135,3.5135,3.5256,3.5389,3.5389,3.5457,3.5486,3.5554,3.5554,3.5554,3.5577,3.5628,3.5628,3.5628,3.5628,3.5628,3.5628,3.5628,3.5628,3.5628,3.5628,3.5628,3.5628,3.5628,3.5628,3.5628,3.5628,3.5628,3.5628,3.5628,3.5628,3.5628,3.5628,3.5628,3.5628,3.5628,3.5628,3.5628,3.5628,3.5628,3.5628,3.5628,3.5628,3.5628,3.5628,3.5628,3.5628,3.5628,3.5628,3.5628,3.5628,3.5639,3.5684,3.5828,3.596,3.6058,3.6144,3.6212,3.6276,3.629,3.6284,3.6284,3.6284,3.6284,3.6284,3.6357,3.6546,3.6801,3.6878,3.7207,3.7542,3.7843,3.8167,3.851,3.8722,3.8891,3.8927,3.901,3.9017,3.8927,3.8989,3.8953,3.901,3.9017,3.9052,3.9101,3.9101,3.9101,3.9101,3.9101,3.9101,3.9101,3.9101,3.9101,3.9101,3.9101,3.9101,3.9101,3.9101,3.5628,3.5628,3.5628,3.5628,3.5605,3.5532,3.5492,3.548,3.5446,3.5389,3.521,3.5187,3.5147,3.51,3.5187,3.5216,3.5268,3.5314,3.5337,3.5383,3.5395,3.5446,3.5492,3.5549,3.5543,3.5571,3.5605,3.5628,3.5628,3.5628,3.5628,3.5628,3.5628,3.5628,3.5628,3.5628,3.5628,3.5628,3.5628,3.5628,3.5628,3.5628,3.5628,3.5628,3.5628,3.5628,3.5628,3.5628,3.5628,3.5628,3.5628,3.5628,3.5628,3.5628,3.5628,3.5628,3.5628,3.5628,3.5628,3.5628,3.5628,3.5628,3.5628,3.5628,3.5628,3.5628,3.5628,3.565,3.5661,3.5756,3.5861,3.596,3.609,3.6197,3.6244,3.6265,3.6269,3.6284,3.6284,3.6284,3.6284,3.6326,3.6536,3.6536,3.6618,3.6933,3.7223,3.7496,3.7844,3.8193,3.8502,3.8669,3.8714,3.8752,3.8661,3.8577,3.8717,3.8818,3.8892,3.8974,3.9066,3.9101,3.9101,3.9101,3.9101,3.9101,3.9101,3.9101,3.9101,3.9101,3.9101,3.9101,3.9101,3.9101,3.9101,3.5628,3.5628,3.5628,3.5577,3.5566,3.5526,3.5469,3.5434,3.5423,3.5314,3.5198,3.5256,3.521,3.5152,3.5268,3.5314,3.5222,3.5314,3.5372,3.5423,3.536,3.5452,3.5526,3.556,3.5571,3.5605,3.5628,3.5628,3.5628,3.5628,3.5628,3.5628,3.5628,3.5628,3.5628,3.5628,3.5628,3.5628,3.5628,3.5628,3.5628,3.5628,3.5628,3.5628,3.5628,3.5628,3.5628,3.5628,3.5628,3.5628,3.5628,3.5628,3.5628,3.5628,3.5628,3.5628,3.5628,3.5628,3.5628,3.5628,3.5628,3.5628,3.5628,3.5628,3.5628,3.5628,3.5628,3.5628,3.5622,3.5644,3.5723,3.5828,3.6003,3.6165,3.6197,3.6223,3.6248,3.6273,3.6284,3.6284,3.6284,3.6284,3.6305,3.6284,3.6385,3.67,3.6928,3.7097,3.7477,3.7897,3.8218,3.8476,3.8468,3.8478,3.8374,3.8358,3.8559,3.8713,3.8811,3.8895,3.9031,3.9101,3.9101,3.9101,3.9101,3.9101,3.9101,3.9101,3.9101,3.9101,3.9101,3.9101,3.9101,3.9101,3.9101,3.5622,3.5628,3.5616,3.5571,3.5514,3.5514,3.5457,3.5314,3.5354,3.5303,3.5314,3.5446,3.5337,3.5222,3.536,3.5349,3.5314,3.5349,3.5452,3.5503,3.5486,3.5526,3.5571,3.5616,3.5605,3.5616,3.5628,3.5628,3.5628,3.5628,3.5628,3.5628,3.5628,3.5628,3.5628,3.5628,3.5628,3.5628,3.5628,3.5628,3.5628,3.5628,3.5628,3.5628,3.5628,3.5628,3.5628,3.5628,3.5628,3.5628,3.5628,3.5628,3.5628,3.5628,3.5628,3.5628,3.5628,3.5628,3.5628,3.5628,3.5628,3.5628,3.5628,3.5628,3.5628,3.5628,3.5628,3.5628,3.5611,3.5656,3.5751,3.5806,3.5938,3.6101,3.6197,3.6223,3.6269,3.6284,3.6284,3.6284,3.6284,3.6284,3.6284,3.6294,3.6395,3.6613,3.6753,3.6856,3.7106,3.7559,3.7844,3.8152,3.817,3.8136,3.8186,3.8219,3.8457,3.8606,3.8698,3.8899,3.9052,3.9094,3.9101,3.9101,3.9101,3.9101,3.9101,3.9101,3.9101,3.9101,3.9101,3.9101,3.9101,3.9101,3.9101,3.5609,3.5628,3.5628,3.5588,3.5583,3.5571,3.5515,3.5457,3.5446,3.54,3.5326,3.5423,3.5406,3.5291,3.5434,3.5429,3.5434,3.5452,3.5521,3.5571,3.5571,3.5571,3.5588,3.5628,3.5628,3.5628,3.5628,3.5628,3.5628,3.5628,3.5628,3.5628,3.5628,3.5628,3.5628,3.5628,3.5628,3.5628,3.5628,3.5628,3.5628,3.5628,3.5628,3.5628,3.5628,3.5628,3.5628,3.5628,3.5628,3.5628,3.5628,3.5628,3.5628,3.5628,3.5628,3.5628,3.5628,3.5628,3.5628,3.5628,3.5628,3.5628,3.5628,3.5628,3.5628,3.5628,3.5628,3.5628,3.565,3.5706,3.5762,3.5806,3.5883,3.6047,3.6187,3.6233,3.628,3.6284,3.6284,3.6284,3.6284,3.6284,3.6284,3.6353,3.6454,3.6564,3.6671,3.6783,3.6888,3.7195,3.7364,3.7613,3.7748,3.7775,3.7889,3.8018,3.8211,3.8423,3.8549,3.8792,3.9045,3.9052,3.9031,3.9087,3.9101,3.9101,3.9101,3.9101,3.9101,3.9101,3.9101,3.9101,3.9101,3.9101,3.9101,3.4824,3.5131,3.5475,3.5577,3.556,3.5566,3.5498,3.5418,3.548,3.5457,3.5412,3.5457,3.5418,3.5349,3.5475,3.5526,3.5509,3.5571,3.5594,3.5616,3.5628,3.5616,3.5628,3.5628,3.5628,3.5628,3.5628,3.5628,3.5628,3.5628,3.5628,3.5628,3.5628,3.5628,3.5628,3.5628,3.5628,3.5628,3.5628,3.5628,3.5628,3.5628,3.5628,3.5628,3.5628,3.5628,3.5628,3.5628,3.5628,3.5628,3.5628,3.5628,3.5628,3.5628,3.5628,3.5628,3.5628,3.5628,3.5628,3.5628,3.5628,3.5628,3.5628,3.5628,3.5628,3.5628,3.5628,3.5628,3.5628,3.5673,3.5728,3.5773,3.5872,3.5986,3.6073,3.6137,3.6227,3.6284,3.6284,3.6284,3.6284,3.6284,3.6284,3.6294,3.6385,3.6385,3.6513,3.6534,3.668,3.6871,3.6999,3.7172,3.7372,3.7549,3.7694,3.7819,3.7941,3.8153,3.8407,3.8603,3.8807,3.8902,3.896,3.9003,3.9052,3.9101,3.9101,3.9087,3.9101,3.9101,3.9101,3.9101,3.9101,3.9101,3.9101,3.3738,3.4432,3.5137,3.5419,3.5408,3.5492,3.5452,3.5383,3.5469,3.5514,3.5514,3.5526,3.5429,3.5435,3.5503,3.552,3.5543,3.5583,3.56,3.5628,3.5628,3.5628,3.5628,3.5628,3.5628,3.5628,3.5628,3.5628,3.5628,3.5628,3.5628,3.5628,3.5628,3.5628,3.5628,3.5628,3.5628,3.5628,3.5628,3.5628,3.5628,3.5628,3.5628,3.5628,3.5628,3.5628,3.5628,3.5628,3.5628,3.5628,3.5628,3.5628,3.5628,3.5628,3.5628,3.5628,3.5628,3.5628,3.5628,3.5628,3.5628,3.5628,3.5628,3.5628,3.5628,3.5628,3.5628,3.5628,3.5628,3.5639,3.5695,3.5762,3.5844,3.5943,3.6008,3.6094,3.6206,3.6284,3.6284,3.6284,3.6284,3.6284,3.6284,3.6284,3.6284,3.6284,3.6284,3.6284,3.6367,3.6612,3.6811,3.698,3.7192,3.7345,3.754,3.773,3.7863,3.8027,3.8277,3.8423,3.8575,3.8664,3.8777,3.8895,3.8953,3.9003,3.9052,3.9052,3.9073,3.9101,3.9101,3.9101,3.9101,3.9101,3.9101,3.312,3.3666,3.4404,3.4698,3.476,3.5307,3.5554,3.5543,3.5538,3.5583,3.5583,3.5583,3.5543,3.5532,3.5566,3.5594,3.5554,3.5588,3.5588,3.5628,3.5605,3.5616,3.5628,3.5628,3.5628,3.5628,3.5628,3.5628,3.5628,3.5628,3.5628,3.5628,3.5628,3.5628,3.5628,3.5628,3.5628,3.5628,3.5628,3.5628,3.5628,3.5628,3.5628,3.5628,3.5628,3.5628,3.5628,3.5628,3.5628,3.5628,3.5628,3.5628,3.5628,3.5628,3.5628,3.5628,3.5628,3.5628,3.5628,3.5628,3.5628,3.5628,3.5628,3.5628,3.5628,3.5628,3.5628,3.5628,3.5611,3.5611,3.5656,3.5739,3.5828,3.5927,3.6003,3.6148,3.6269,3.629,3.6284,3.6284,3.6284,3.6284,3.6284,3.6284,3.6284,3.6284,3.6284,3.6284,3.6294,3.6457,3.6632,3.6851,3.7076,3.7297,3.7522,3.7766,3.7906,3.8044,3.8138,3.8244,3.835,3.8441,3.8549,3.8755,3.8833,3.887,3.8921,3.9045,3.9073,3.9101,3.9101,3.9101,3.9101,3.9101,3.9101]}]]